GFSGBSN_700_spd_000.txt.gz
Wind_Speed
28 29 29 29 26 24 23 22 20 20 18 18 17 19 18 16 14 14 13 16 18 16 16 18 21 24 30 37 37 39 30 20 18 23 30 26 24 24 33 28 29 37 33 29 27 28 25
29 28 29 30 29 26 24 25 22 20 20 19 17 18 18 18 16 16 15 17 16 14 15 18 20 24 29 37 31 31 37 34 25 16 17 24 23 22 23 23 30 31 37 34 31 28 27
31 30 29 30 30 29 26 24 25 23 21 21 18 17 17 19 17 16 16 17 14 12 13 17 19 24 31 29 29 25 32 29 24 25 15 15 28 22 12 24 25 34 32 32 38 30 29
34 32 32 30 31 31 28 26 25 25 22 22 20 17 17 18 20 18 20 22 18 15 14 16 18 24 34 24 29 26 30 23 21 28 29 21 15 30 27 19 26 28 33 37 37 33 34
36 36 35 33 32 31 30 28 26 25 25 22 22 19 17 18 20 21 21 23 23 22 18 16 20 25 33 22 29 23 26 21 20 21 23 27 29 24 23 31 22 29 32 45 40 28 29
36 38 37 37 34 32 31 30 28 26 24 24 23 21 18 18 20 22 22 23 24 25 22 22 23 23 24 20 14 18 25 24 22 23 22 22 24 30 31 31 38 31 31 33 38 37 26
40 41 37 38 37 34 31 30 29 27 26 25 23 22 19 18 20 22 23 22 24 25 27 21 26 22 27 18 13 16 16 21 26 27 26 21 25 38 42 39 40 29 31 26 35 27 30
40 38 35 37 38 35 33 31 29 27 27 26 23 24 20 18 19 22 24 20 21 25 28 27 26 32 31 29 26 23 19 22 25 31 27 24 36 39 35 34 31 39 31 33 29 27 34
46 43 33 38 36 35 32 32 30 28 27 26 24 24 21 19 19 20 19 19 17 20 28 39 32 34 28 34 32 28 26 25 26 27 30 35 40 30 30 29 31 35 43 34 32 34 30
43 43 49 39 32 35 28 31 30 28 27 26 23 23 23 19 20 18 18 17 18 15 18 27 26 26 34 36 39 32 29 26 29 31 26 32 36 32 28 34 32 37 43 41 37 36 22
37 42 48 50 43 38 31 28 26 24 22 23 21 22 23 19 20 17 15 16 14 6 6 8 11 14 14 33 32 24 30 27 30 28 24 32 31 36 40 40 36 43 41 40 36 20 27
24 29 41 51 55 37 34 30 26 23 22 22 18 21 22 20 17 14 13 11 7 5 8 8 10 9 14 17 24 23 21 28 25 27 29 30 25 28 40 46 40 39 35 35 31 30 12
22 25 29 42 39 45 34 31 29 26 24 21 19 18 18 17 15 12 12 8 5 9 6 9 14 15 17 20 21 21 19 30 26 19 29 29 35 31 30 29 36 38 29 12 9 10 5
26 23 28 29 35 40 34 33 30 26 24 22 17 16 14 17 13 13 11 10 11 11 14 15 12 17 19 21 25 26 15 27 28 24 9 21 18 36 38 36 30 41 43 7 5 4 6
24 23 23 19 24 35 32 29 29 26 24 21 15 18 17 17 12 13 13 18 10 9 20 21 20 13 18 20 6 22 25 23 25 30 16 12 19 11 30 34 25 28 44 36 12 20 6
23 22 20 13 25 29 31 28 29 26 23 20 20 20 19 12 13 17 18 29 21 12 21 19 12 10 11 18 14 18 16 11 23 28 33 28 6 16 22 23 35 20 40 25 16 5 7
23 23 19 22 29 7 31 32 33 28 26 21 20 21 21 16 15 22 30 32 29 28 24 16 11 8 12 15 22 20 12 16 14 20 29 27 26 6 17 27 35 26 24 18 14 5 6
23 21 21 12 32 12 33 33 28 19 21 23 23 22 19 18 19 26 31 28 28 24 13 11 12 14 14 16 21 18 21 12 12 24 30 27 7 8 21 24 24 33 31 23 5 3 8
20 22 23 18 24 10 33 32 36 28 23 26 24 21 14 15 19 25 22 28 31 26 21 12 16 9 10 11 14 21 18 11 8 25 12 12 11 3 5 25 32 30 17 15 3 3 4
21 22 23 21 28 9 23 36 37 32 22 27 25 20 19 20 23 21 24 28 31 25 18 20 16 10 11 14 16 5 19 11 17 19 23 10 17 16 6 10 32 20 21 17 9 3 3
23 23 22 21 23 14 28 27 25 30 26 26 31 26 21 17 20 26 26 23 20 14 11 16 22 21 16 14 14 21 10 12 12 13 26 13 10 13 10 10 25 22 27 23 17 12 3
20 21 21 17 17 11 21 30 26 25 27 28 28 27 22 20 17 17 19 28 27 27 18 18 26 18 15 18 17 21 11 13 13 14 20 17 11 13 10 13 15 17 22 25 21 18 16
20 18 18 17 23 8 29 23 23 24 24 29 29 26 27 16 18 21 25 25 23 21 19 27 26 20 19 15 10 12 14 16 7 14 20 16 6 12 6 7 9 5 17 20 20 21 22
19 18 16 18 17 18 16 25 20 17 26 25 25 24 29 25 19 19 18 22 25 25 24 27 25 26 15 15 18 16 16 18 18 14 15 22 12 4 3 7 1 2 7 21 19 17 18
19 18 15 19 18 27 15 31 28 24 25 22 23 23 27 26 22 15 14 22 29 27 16 28 26 25 18 16 12 11 12 17 19 16 15 16 18 3 1 6 6 6 9 13 25 22 18
20 19 17 18 13 25 19 26 23 20 24 24 23 22 23 24 19 14 17 19 17 12 11 24 34 30 24 19 13 7 6 7 9 7 17 21 24 9 7 2 2 2 3 5 11 18 16
22 18 18 17 18 25 31 24 25 21 22 23 20 20 23 25 23 16 18 21 10 8 10 21 23 29 26 21 15 9 8 10 8 12 21 24 25 23 13 4 4 7 5 3 9 1 4
22 18 18 17 20 28 31 22 25 22 20 21 18 19 22 24 22 15 13 15 11 9 10 20 26 25 31 25 15 10 7 13 9 10 22 22 19 17 17 9 9 7 12 7 6 4 2
21 18 16 16 21 28 30 27 29 27 23 19 18 17 20 22 18 11 16 16 10 6 14 10 18 25 21 23 17 11 11 17 11 10 13 20 23 17 18 13 6 11 7 8 8 10 11

GFSGBSN_700_spd_003.txt.gz
Wind_Speed
32 29 29 29 28 26 26 26 26 23 22 21 20 18 18 17 16 15 14 15 13 14 17 18 20 22 26 25 25 32 30 30 26 18 13 22 23 21 27 28 27 36 34 29 31 31 31
33 33 31 30 29 28 26 26 26 26 23 22 21 20 19 19 19 16 15 14 13 12 14 16 20 23 26 23 19 27 30 30 30 33 30 23 27 22 23 26 30 29 33 35 31 28 27
30 30 32 32 30 29 29 27 26 27 25 23 22 21 21 19 20 19 18 15 16 12 11 12 18 22 21 14 17 22 26 24 21 23 23 17 18 24 23 24 28 34 35 32 39 36 37
39 33 30 34 32 31 30 29 28 27 27 26 23 22 21 20 20 22 20 18 17 18 17 15 19 23 20 15 19 22 26 23 17 16 15 16 18 31 29 23 28 31 35 42 39 39 39
40 37 34 31 35 34 32 32 30 29 28 27 25 24 21 20 20 22 22 20 18 18 19 21 24 24 23 12 14 17 23 21 18 19 25 25 23 23 33 30 26 32 29 36 38 36 35
35 38 39 35 31 32 33 32 32 30 29 28 26 24 22 21 20 20 21 21 19 21 22 22 25 23 19 15 16 14 20 21 20 23 25 25 31 34 31 34 29 22 29 31 30 39 35
36 36 37 37 32 34 34 34 32 31 30 30 27 24 22 21 20 21 20 20 20 23 25 21 23 26 28 24 18 15 13 18 23 26 28 25 30 37 38 34 31 33 25 22 34 31 34
38 36 34 34 35 31 38 33 32 31 30 30 28 25 21 20 20 21 19 18 18 22 28 26 23 28 23 28 24 20 18 22 25 31 27 28 40 31 29 33 36 34 37 41 31 22 29
42 40 35 33 42 39 25 35 33 29 30 29 27 25 22 20 20 18 16 17 16 17 26 37 26 29 25 27 31 27 23 20 24 26 29 37 23 29 31 31 31 35 35 37 40 29 28
41 39 35 29 38 44 36 32 32 27 24 24 23 23 22 21 19 17 14 18 13 15 15 21 15 12 15 26 32 25 29 24 29 29 26 29 30 32 16 30 32 36 36 33 30 26 24
37 33 29 27 26 44 44 35 29 28 26 25 25 25 21 22 19 14 14 14 11 7 5 5 9 7 11 19 24 14 25 29 32 31 26 31 22 28 35 38 24 39 30 27 25 27 33
36 26 25 27 24 28 42 41 41 28 28 26 25 24 21 22 16 13 11 11 7 3 8 7 10 9 11 14 25 26 18 35 34 32 33 32 27 17 27 32 30 25 26 25 19 24 17
31 26 28 26 26 25 28 38 44 33 32 28 27 21 18 18 13 13 11 11 7 7 4 9 12 14 11 13 14 20 24 28 31 18 29 28 33 31 27 28 34 29 26 6 7 8 10
28 25 27 19 16 14 23 24 37 32 35 29 28 23 18 16 15 12 13 14 9 5 13 16 15 12 15 15 18 19 23 24 35 19 8 13 13 32 32 34 31 33 35 13 7 6 8
28 24 25 21 27 25 18 25 32 39 35 30 26 23 18 15 14 12 16 14 9 5 15 20 21 16 16 14 15 12 21 24 17 24 20 7 17 17 26 34 30 32 34 44 11 14 5
27 24 22 24 20 23 15 25 38 28 34 29 30 21 23 16 16 14 17 20 14 13 16 17 16 9 8 10 13 11 13 14 26 23 23 21 21 23 21 23 35 34 33 29 20 5 6
29 25 19 24 27 22 21 10 29 30 35 32 35 24 27 19 17 22 25 22 20 18 18 18 18 10 9 11 10 17 10 14 15 16 22 30 24 22 15 28 35 39 25 30 20 26 2
28 23 21 22 27 30 15 7 25 39 37 39 35 28 26 19 28 33 25 23 14 16 12 16 10 13 15 10 13 20 21 17 8 14 22 31 14 18 28 29 33 30 31 32 17 13 28
31 24 22 24 28 30 25 12 31 48 37 45 30 26 19 21 31 27 20 17 14 15 16 15 14 12 6 15 10 19 22 5 7 14 18 25 14 11 7 20 25 34 36 30 29 26 24
31 29 24 27 26 26 24 4 33 44 42 37 34 26 30 27 21 17 14 17 18 19 23 18 19 13 12 14 17 7 20 7 10 16 19 15 15 18 12 8 13 20 36 31 32 15 9
34 28 22 20 23 25 20 9 34 30 28 31 32 23 29 34 24 19 15 16 13 17 13 7 9 19 17 15 17 20 18 13 9 18 23 23 22 21 29 20 18 31 25 35 32 21 25
34 29 19 19 19 22 19 11 27 39 31 29 31 17 27 23 16 12 11 27 24 24 22 21 13 13 19 20 19 4 14 15 12 18 20 24 25 27 7 12 24 24 27 23 17 16 23
36 30 19 15 14 20 23 11 23 34 32 32 28 33 21 17 19 15 19 17 14 16 21 16 12 17 22 19 14 18 15 13 8 13 23 21 17 16 9 17 18 9 28 24 16 19 17
35 32 20 16 15 22 27 9 23 24 39 31 28 24 19 19 19 18 15 13 15 18 24 23 20 22 20 15 15 10 14 13 18 13 10 11 9 9 7 8 1 3 12 12 13 17 17
33 31 21 16 14 21 25 12 24 21 30 26 23 25 18 20 20 18 13 17 21 21 26 28 21 25 20 14 16 8 11 12 16 15 15 10 6 3 3 4 4 2 4 15 16 13 11
30 29 22 15 13 16 22 16 26 24 23 25 25 21 24 20 20 18 15 13 17 22 20 20 21 19 21 18 15 8 6 9 10 6 13 12 11 8 3 2 1 5 3 7 7 17 14
27 27 24 16 13 15 17 17 18 25 24 24 20 22 20 21 17 17 14 12 15 15 14 8 31 23 26 19 15 9 7 11 10 13 18 20 17 21 11 3 3 5 2 7 9 4 14
24 26 23 16 11 14 13 17 16 30 27 22 21 14 16 18 16 14 9 12 11 14 9 5 27 28 23 21 10 8 8 14 11 13 16 19 17 17 15 7 7 9 11 4 5 7 10
25 27 20 15 13 13 15 16 14 31 28 25 20 15 13 17 12 11 12 10 13 12 9 12 18 22 19 23 15 8 8 12 13 9 16 17 21 17 15 14 6 8 6 8 6 5 4

GFSGBSN_700_spd_006.txt.gz
Wind_Speed
29 25 26 29 30 30 29 30 29 27 27 25 23 22 20 19 18 20 20 18 16 15 15 18 20 21 20 22 27 26 27 25 23 17 13 13 19 26 29 29 30 41 42 40 40 38 37
35 33 29 26 29 31 31 30 30 29 28 27 25 23 21 21 19 20 21 20 18 15 16 18 20 18 19 23 22 27 27 25 26 25 26 27 26 22 29 29 31 33 36 40 38 37 36
34 35 36 31 24 28 34 32 30 31 29 29 28 25 23 22 20 20 21 21 19 17 16 15 14 11 12 8 18 25 24 20 25 23 20 20 17 24 27 27 28 35 38 34 40 37 35
31 33 35 36 31 26 28 33 31 31 30 30 29 28 25 23 21 21 21 21 21 20 20 21 20 14 12 13 17 24 22 19 20 16 15 13 17 25 29 26 21 28 34 39 36 31 34
30 32 32 35 36 35 34 28 31 30 29 31 30 29 27 24 21 21 21 21 23 23 22 21 23 20 18 19 16 21 22 22 19 18 17 18 22 27 30 25 27 26 28 27 34 31 32
30 30 31 32 34 36 33 31 29 31 30 28 30 31 29 25 23 21 19 20 22 25 25 24 26 22 18 17 14 16 18 20 21 22 23 28 26 29 26 28 33 27 28 34 32 19 31
35 34 32 32 32 34 37 39 34 31 31 28 28 30 28 27 24 22 20 19 22 26 27 24 22 20 22 24 20 17 19 19 23 26 27 29 36 40 38 35 31 35 32 34 22 19 34
40 40 36 34 35 30 36 34 37 36 32 30 28 27 27 26 24 23 21 19 19 25 25 26 25 27 26 28 26 16 19 22 24 29 28 30 34 31 29 33 38 33 39 39 36 26 22
43 42 39 36 34 33 33 41 42 27 34 32 28 30 27 26 25 24 18 17 18 22 25 29 25 32 27 29 28 21 19 20 23 26 29 36 25 26 34 31 32 39 42 38 34 28 31
48 42 39 35 32 25 25 40 46 33 29 31 31 29 30 29 30 22 19 15 16 17 14 17 13 15 13 24 25 21 22 22 26 28 27 26 30 25 18 35 31 36 32 32 32 22 17
46 41 40 27 24 22 23 21 45 33 23 32 33 29 28 28 26 21 12 14 16 9 3 5 9 7 5 11 10 9 8 25 30 29 27 24 23 28 39 35 26 35 33 30 25 23 25
42 39 36 19 20 24 25 25 29 45 28 34 32 32 32 31 25 21 18 17 15 6 8 8 9 8 9 10 12 11 9 15 27 32 36 38 19 22 24 26 38 17 12 19 17 18 15
43 41 31 21 23 24 19 22 26 33 44 33 31 35 34 23 22 22 20 20 12 8 6 8 9 10 11 11 11 14 19 22 21 26 29 30 38 33 25 21 20 28 25 5 9 9 8
44 45 35 20 20 23 19 21 20 27 35 35 26 39 32 30 24 24 23 25 9 6 11 7 7 9 13 12 15 14 21 25 28 30 7 17 8 28 29 36 23 30 34 12 6 4 5
44 46 33 20 19 23 23 22 21 24 32 42 16 34 37 30 27 25 27 20 10 14 12 10 9 10 11 13 11 11 21 26 27 31 27 9 14 19 19 26 33 27 32 39 12 18 8
42 46 31 21 18 22 23 24 13 24 21 32 21 44 34 32 27 25 32 26 17 15 13 10 7 7 10 8 12 12 15 11 24 24 23 17 14 17 16 17 26 34 26 18 23 5 5
39 39 34 20 16 24 27 19 10 16 24 41 27 47 41 30 32 34 36 32 24 19 16 11 9 10 12 12 12 15 10 9 10 22 29 27 22 10 16 22 25 33 30 19 21 18 3
37 39 33 22 23 30 30 32 17 11 26 30 37 37 41 38 39 42 32 30 15 11 11 12 10 12 13 13 13 15 19 15 9 17 21 25 14 21 31 28 29 34 38 37 18 17 21
37 37 34 27 24 28 30 31 15 3 39 19 41 33 38 35 41 40 33 27 21 13 12 7 8 10 11 13 10 11 12 11 20 15 9 21 16 8 11 17 21 33 39 40 41 19 23
36 36 34 26 24 24 26 27 15 6 25 36 42 29 33 42 35 32 25 25 17 11 10 11 11 13 16 17 17 8 7 5 11 18 21 17 21 21 16 5 5 25 39 40 38 29 23
34 35 35 26 19 21 25 20 23 6 28 39 38 34 37 46 40 26 24 13 14 16 10 7 2 19 19 18 18 21 20 15 14 20 23 28 21 24 31 37 31 24 36 39 37 27 30
33 33 34 27 16 17 21 21 20 1 29 37 35 30 41 22 39 21 18 23 18 15 12 15 13 8 10 25 17 2 10 21 20 16 22 26 21 24 34 4 20 20 23 35 32 31 23
31 32 32 27 17 15 18 22 16 3 26 21 16 30 30 21 31 25 22 17 8 6 12 7 9 8 14 22 20 19 16 13 14 16 23 25 23 14 6 15 18 12 24 29 38 30 27
27 29 30 28 18 13 16 17 6 11 22 23 22 30 23 21 21 20 15 10 10 11 13 13 16 15 13 14 17 22 18 20 19 20 14 18 18 13 4 7 3 3 11 15 13 13 8
25 26 27 26 19 13 14 10 4 13 23 19 40 27 30 22 18 17 19 17 16 16 17 17 19 18 14 14 13 6 15 12 12 12 14 9 11 8 6 5 2 8 9 21 23 19 17
25 25 26 26 18 11 11 11 9 17 21 19 23 26 23 23 18 15 11 9 14 14 17 18 24 24 18 23 13 9 7 7 6 3 11 10 9 8 5 3 3 5 6 11 14 12 18
25 25 26 27 17 8 6 10 14 10 17 28 22 18 17 19 15 13 12 9 10 12 15 16 13 14 24 24 13 10 7 13 8 8 12 14 10 15 10 3 2 4 5 10 8 5 20
26 25 26 25 17 9 7 9 11 12 20 20 23 23 18 19 12 11 6 6 8 11 13 12 5 19 26 19 13 7 6 15 10 11 10 18 11 11 9 3 6 9 6 6 3 4 11
26 22 24 25 17 11 8 11 15 18 20 20 20 19 12 14 11 12 10 9 8 11 12 11 8 12 15 15 12 11 7 10 12 7 14 14 16 11 12 5 5 5 6 10 9 8 7

GFSGBSN_700_spd_009.txt.gz
Wind_Speed
29 31 31 30 25 25 23 29 29 29 28 29 29 27 25 23 22 20 19 18 17 17 16 17 18 20 21 21 21 20 21 18 15 16 17 17 19 23 26 26 29 36 41 41 40 39 39
25 28 30 31 32 30 28 23 28 31 30 30 29 29 27 25 23 22 20 19 20 20 19 18 18 20 21 22 20 21 21 23 22 23 22 20 17 16 22 25 29 32 30 39 41 40 40
27 27 29 30 31 31 28 26 25 29 31 30 29 30 29 27 25 23 22 20 21 21 21 18 16 15 16 13 19 19 18 20 22 23 22 23 26 29 26 27 29 33 36 37 34 36 41
30 31 32 32 31 32 31 34 29 23 30 31 28 29 30 29 26 25 23 22 22 23 23 22 20 18 16 16 17 16 17 19 21 19 16 20 20 20 24 23 20 19 27 34 33 34 31
32 32 32 33 34 33 33 34 40 35 27 31 28 27 29 29 28 25 24 23 23 25 26 26 23 20 21 23 19 20 19 20 20 19 19 19 19 20 24 25 24 27 31 24 15 20 26
35 33 33 32 33 34 34 36 37 44 39 28 30 26 25 28 28 27 25 24 24 26 28 28 27 20 20 14 15 13 12 14 19 19 21 23 24 26 25 24 23 17 24 22 22 22 20
40 38 36 36 35 33 34 36 37 38 42 33 32 28 28 26 27 27 27 24 25 26 29 25 16 10 18 15 15 18 20 20 21 23 26 27 31 36 34 31 30 32 29 25 22 15 25
40 40 39 37 36 34 35 35 35 39 44 39 36 32 30 30 26 28 28 26 23 24 22 22 26 28 28 28 29 25 21 22 23 27 27 29 38 37 35 33 35 36 35 34 36 29 29
47 46 43 40 36 35 34 36 33 34 39 41 29 34 32 29 29 31 27 22 21 22 24 25 25 28 25 30 32 26 25 22 22 25 27 31 24 24 32 33 34 34 34 35 35 31 34
49 48 46 42 40 29 26 24 25 28 38 41 38 36 34 31 34 32 27 20 18 18 12 15 17 21 25 34 33 24 22 22 23 24 21 25 33 33 25 26 27 36 32 28 28 25 19
47 39 42 43 45 21 21 22 26 29 30 54 20 35 35 37 37 35 21 18 19 12 2 7 15 13 12 17 11 7 10 20 25 25 24 24 21 20 30 32 23 24 23 26 26 25 27
41 40 43 43 47 21 20 26 26 29 28 29 45 31 32 41 37 31 23 22 18 9 7 9 11 14 13 14 12 9 9 11 21 25 30 32 31 24 26 22 30 28 16 17 15 20 19
37 38 43 42 40 16 19 21 20 22 25 26 47 38 29 45 35 33 30 27 14 8 6 10 14 15 12 11 14 12 13 18 19 20 26 29 36 37 29 26 21 21 28 5 8 10 8
40 40 42 40 33 15 23 16 25 18 18 22 42 25 32 37 35 35 30 29 8 7 14 8 14 15 14 12 15 16 19 22 27 31 13 20 14 28 31 33 27 26 32 13 6 4 6
40 41 39 39 28 20 18 25 24 11 17 19 28 47 19 48 36 33 34 31 19 11 13 13 13 13 15 17 13 12 23 28 29 32 24 8 13 13 17 19 40 21 30 38 26 27 8
37 39 38 37 25 21 22 26 27 21 9 19 22 42 30 44 36 32 35 31 22 14 12 14 11 9 10 13 15 13 16 8 22 28 28 18 15 20 15 22 24 35 15 14 21 5 5
36 36 35 34 28 18 22 27 28 26 7 15 10 38 16 43 41 37 39 34 31 17 16 12 11 11 13 14 15 16 9 6 11 12 17 27 13 7 16 21 26 30 35 20 16 19 4
34 35 32 33 29 18 25 29 28 28 12 11 17 34 23 48 43 43 37 36 28 30 22 17 15 14 14 15 15 16 15 10 4 8 19 25 13 21 33 26 21 27 32 38 10 6 23
32 32 31 30 30 21 24 28 25 27 8 13 21 15 28 45 37 44 37 34 24 21 14 16 17 14 14 18 12 14 13 6 16 16 11 20 15 12 9 21 34 30 32 30 39 16 22
31 30 29 29 30 17 18 25 24 24 1 20 33 17 40 47 35 38 38 27 25 16 14 19 11 15 14 19 21 9 8 3 6 11 18 24 20 20 14 14 5 16 28 38 39 29 29
31 28 27 28 28 13 14 22 30 21 17 24 27 26 47 51 34 36 34 23 22 15 11 15 20 18 18 18 18 22 19 16 13 13 21 24 30 31 36 32 30 27 23 30 42 50 27
33 27 26 28 26 13 11 17 23 11 22 24 13 34 40 41 43 30 31 31 13 9 16 15 14 10 13 23 21 5 6 13 18 20 22 25 25 24 31 36 44 41 32 28 37 42 43
33 24 24 26 25 15 9 10 10 7 29 22 14 29 40 24 39 33 31 23 17 21 18 15 13 9 12 18 16 21 16 15 15 17 20 25 24 15 25 15 10 19 40 39 39 39 38
30 26 23 25 26 15 8 4 4 3 15 17 25 27 32 23 40 36 25 18 16 14 15 10 11 12 9 10 15 19 23 25 23 22 25 22 16 12 13 3 1 9 9 21 35 36 37
29 26 24 25 26 13 7 3 5 7 14 21 16 30 29 28 21 26 30 16 14 15 18 18 16 15 14 9 9 12 15 18 25 22 21 15 16 9 7 7 4 14 9 19 33 29 35
30 28 25 25 24 13 5 4 7 11 14 22 12 21 25 24 24 19 19 22 17 16 16 15 14 15 19 20 15 9 7 6 4 4 13 10 9 9 8 5 4 6 6 3 8 9 18
30 29 25 22 23 14 5 4 12 12 13 26 29 27 24 25 17 18 16 18 15 13 13 14 14 17 18 22 21 10 9 7 4 5 10 11 6 12 9 4 3 4 10 10 11 2 12
28 27 24 22 21 15 6 7 15 14 13 17 24 22 24 22 13 16 14 13 14 10 10 10 9 10 18 20 13 9 8 9 8 7 5 12 7 5 6 3 2 5 12 11 3 3 18
27 25 25 17 18 15 7 9 16 15 22 25 23 16 17 20 13 17 13 14 11 8 9 9 9 7 15 17 17 7 7 7 11 5 13 10 11 4 6 2 4 7 5 5 8 9 9

GFSGBSN_700_spd_012.txt.gz
Wind_Speed
25 25 28 29 29 31 28 22 21 25 26 26 26 27 24 23 24 22 21 21 20 18 16 12 12 14 16 18 19 17 13 8 6 12 14 15 18 20 24 23 26 28 29 33 35 36 37
26 27 27 28 30 31 30 31 33 30 24 27 28 26 24 26 25 24 22 22 21 20 18 16 14 15 17 18 19 18 22 21 18 18 16 16 17 19 22 24 26 28 28 29 31 36 38
30 31 32 32 31 32 33 31 32 32 31 26 28 26 25 24 25 25 24 23 22 22 20 20 16 15 16 11 18 17 18 20 18 18 19 18 21 22 23 24 25 27 30 30 33 33 34
34 36 36 36 37 34 35 35 33 31 37 28 24 26 26 24 25 26 25 24 23 22 22 22 20 18 17 15 14 16 17 18 16 17 17 19 23 25 26 26 24 19 21 24 23 24 30
40 39 38 38 38 38 38 36 35 34 36 42 31 25 27 24 27 26 26 25 25 23 24 24 23 20 21 20 19 19 18 18 18 19 17 20 22 23 23 21 23 23 22 18 17 7 12
43 41 40 38 37 39 39 37 37 35 35 41 46 26 28 25 27 28 26 26 26 25 27 26 24 19 22 13 18 23 20 22 21 20 19 20 22 23 21 22 16 18 20 21 18 10 17
46 43 39 36 36 37 36 37 36 37 35 35 46 35 32 28 27 27 28 27 25 27 29 23 9 18 22 12 20 19 18 17 16 19 21 24 27 29 28 25 27 26 21 22 23 20 24
49 49 47 43 38 34 33 34 34 36 36 34 39 44 36 32 29 31 28 30 27 24 22 23 24 25 24 21 18 16 17 20 22 22 23 27 35 30 30 24 26 29 31 33 34 30 31
49 49 40 38 39 43 40 32 33 27 25 27 33 44 42 36 30 34 31 20 24 24 23 24 23 24 23 27 30 29 24 23 22 23 25 28 26 12 24 33 30 32 34 34 35 30 32
46 46 42 43 44 44 40 34 21 21 23 27 27 43 44 35 29 41 36 25 19 19 11 14 18 24 28 30 33 26 26 25 24 23 20 21 27 31 29 26 25 36 33 32 30 22 12
43 42 42 43 43 44 37 25 22 26 22 27 22 35 44 36 35 44 30 19 16 14 2 8 17 19 20 27 22 11 17 24 26 21 20 19 18 14 23 33 30 22 17 15 15 20 25
39 39 40 43 42 41 27 17 23 23 26 26 26 30 33 39 29 41 29 23 19 10 6 8 11 12 14 18 18 12 12 17 17 21 25 28 26 29 25 18 17 24 16 14 15 15 13
39 38 39 42 40 38 25 22 19 17 23 17 18 22 38 31 26 37 34 36 19 8 7 9 13 16 15 16 15 13 14 21 16 11 20 23 29 32 31 26 25 19 16 4 6 8 8
38 37 38 40 37 35 27 28 20 32 25 15 15 23 32 17 29 42 34 32 8 10 13 8 13 16 18 14 16 16 14 20 21 20 19 13 10 18 27 32 23 22 29 9 5 3 4
37 36 37 38 34 34 30 29 24 27 23 13 13 17 29 22 34 47 46 31 19 16 25 13 15 17 16 15 10 12 20 25 25 26 17 8 11 11 13 9 20 17 30 32 18 20 6
36 34 35 35 32 33 30 18 26 29 24 14 11 12 27 26 49 45 40 29 23 17 11 18 15 12 10 12 14 12 13 6 17 24 23 15 18 25 20 14 20 32 13 10 17 6 6
35 34 34 32 30 31 27 19 28 30 26 12 7 10 35 11 42 47 39 27 28 22 15 13 15 12 10 10 16 12 9 6 8 9 12 24 22 10 16 24 31 27 35 26 10 6 3
33 33 33 30 28 29 24 17 25 30 26 1 5 9 23 15 41 43 36 33 28 22 17 15 12 12 12 10 11 18 18 11 6 8 16 21 13 22 32 26 20 26 31 32 21 9 13
34 35 33 28 26 28 19 14 21 26 26 10 5 8 20 28 33 39 30 29 30 27 24 16 13 13 15 16 10 14 13 12 12 19 7 15 14 10 8 19 29 26 34 35 35 26 27
34 36 29 26 27 26 15 12 18 22 28 5 11 11 19 30 17 31 34 33 26 25 18 17 8 17 11 13 15 9 11 6 6 8 17 15 21 21 17 15 11 16 30 36 36 27 35
32 33 26 26 27 26 14 10 16 23 12 10 16 16 35 47 21 35 31 20 24 14 20 15 17 16 11 13 16 21 24 21 20 18 16 23 31 32 41 41 41 39 31 26 44 43 24
31 30 27 26 27 25 12 8 12 19 6 16 16 12 27 28 24 27 26 16 20 19 12 14 17 7 9 19 19 5 9 13 21 17 19 23 32 33 40 37 33 42 42 37 31 36 42
33 31 29 27 27 24 11 7 8 19 13 17 16 9 35 19 35 30 33 29 15 10 12 15 9 9 13 12 12 17 20 12 11 17 24 24 27 18 21 21 16 21 36 38 35 36 32
31 30 31 26 25 22 10 3 5 7 8 20 13 25 31 24 40 32 19 22 19 19 18 7 11 12 10 9 10 14 16 22 24 25 28 31 29 16 19 23 3 12 12 19 34 34 33
29 29 29 27 20 20 11 5 4 3 9 10 27 27 28 23 28 32 17 12 15 16 14 14 15 15 15 16 15 8 8 16 23 25 29 27 27 9 7 13 10 18 9 0 24 32 33
28 27 26 26 20 18 10 3 2 5 11 10 24 26 20 32 24 17 26 20 15 13 12 15 14 17 19 16 14 5 5 5 4 5 8 12 13 15 13 6 4 14 11 13 5 9 5
27 26 24 26 17 15 11 5 11 11 10 13 7 17 24 18 15 18 20 19 19 16 13 12 12 14 14 18 16 11 8 7 4 5 5 9 9 15 13 6 4 9 7 9 7 8 8
29 26 23 23 16 15 8 9 11 13 13 16 14 15 20 20 14 17 16 13 12 17 15 11 10 10 12 14 13 12 12 11 11 10 5 7 6 6 6 5 4 4 2 3 11 6 12
33 24 22 22 19 16 10 9 16 16 15 19 20 18 16 18 11 12 14 17 16 16 14 16 13 10 7 11 10 10 10 7 12 5 11 6 9 3 6 2 1 5 2 5 4 4 9

GFSGBSN_700_spd_015.txt.gz
Wind_Speed
26 28 29 29 28 27 30 31 29 29 23 20 22 23 21 22 24 22 22 21 20 18 17 16 15 16 16 17 16 9 6 6 12 20 19 15 19 21 21 20 23 25 26 29 31 33 34
29 31 33 35 35 33 31 30 33 32 30 34 31 23 26 24 23 26 25 22 20 19 19 18 17 16 16 15 17 14 16 16 13 12 15 15 17 16 19 19 23 24 24 26 29 31 34
34 36 38 39 41 40 37 36 34 34 33 32 36 36 26 24 23 27 27 23 21 21 21 19 20 18 15 10 13 15 15 15 15 17 17 15 16 16 17 17 20 21 24 26 28 29 33
38 40 42 42 41 40 40 40 40 36 36 33 32 39 28 27 22 25 29 26 23 22 21 21 21 19 17 14 12 15 15 14 12 13 15 17 20 20 21 21 22 22 24 26 23 25 26
41 43 44 44 41 39 38 40 42 39 37 34 32 39 39 25 24 25 27 27 23 23 21 20 21 19 18 17 16 13 15 15 13 14 16 17 19 21 21 18 20 21 21 21 21 15 19
49 51 49 49 42 37 35 36 36 39 35 33 31 33 44 36 29 27 25 29 24 25 24 24 20 15 19 11 17 17 17 17 17 17 18 19 21 21 19 18 14 12 17 20 21 14 21
52 52 52 51 47 42 35 39 37 34 35 31 28 30 37 47 33 28 31 33 27 27 29 22 8 19 11 11 18 13 17 21 21 20 20 21 22 25 21 20 20 21 23 23 22 18 27
50 51 50 49 48 46 38 44 42 35 31 25 20 24 31 42 30 33 36 36 28 23 19 20 23 21 13 17 17 15 17 17 18 17 18 21 27 24 23 23 21 23 26 29 31 29 30
51 49 47 46 45 44 44 44 41 29 17 17 17 18 27 43 41 38 33 34 27 20 21 21 19 20 23 23 21 17 17 19 19 21 21 24 18 5 10 20 26 26 27 26 29 30 33
50 48 48 45 43 40 44 40 37 26 20 22 22 17 21 31 43 34 35 40 28 16 10 11 21 24 25 25 26 25 26 25 25 22 19 20 23 27 27 25 19 26 26 27 28 21 12
50 48 48 45 39 41 42 38 33 21 23 20 22 22 19 29 40 34 35 38 25 15 1 10 18 20 26 27 19 13 25 29 28 24 20 15 12 10 13 12 15 23 19 18 15 15 20
51 49 46 41 39 39 39 36 28 25 15 23 18 16 18 29 38 22 30 41 30 14 6 10 13 18 19 24 22 15 15 17 18 20 22 23 23 22 20 18 17 16 16 16 17 17 12
52 49 46 37 37 38 36 34 26 25 23 30 16 12 17 25 36 19 41 39 20 8 11 10 15 15 15 18 19 16 17 20 14 11 17 20 25 26 25 22 21 22 10 3 6 8 7
53 50 39 35 36 36 33 32 27 23 26 27 25 11 14 18 26 35 46 45 6 18 17 12 16 19 15 17 16 14 11 18 23 15 9 9 7 12 14 17 17 22 29 11 5 5 5
56 43 34 35 36 34 31 32 19 21 30 37 16 5 9 20 26 47 50 26 9 22 24 15 19 22 16 18 12 17 17 18 17 21 12 5 6 8 11 7 14 14 24 27 16 24 10
55 37 36 36 34 30 30 30 17 20 28 33 11 3 6 21 22 41 46 19 14 17 25 16 10 13 20 20 14 13 11 5 13 19 15 12 11 10 18 17 21 26 9 10 13 5 8
52 38 36 36 29 27 29 26 15 22 26 29 11 3 5 30 18 39 29 15 21 15 11 23 14 13 11 14 14 13 7 4 6 4 15 16 17 11 13 15 21 24 31 22 12 10 3
50 36 36 32 28 28 28 22 13 18 27 30 8 5 9 16 25 27 23 19 18 22 15 12 13 12 8 10 11 13 13 7 4 5 11 13 11 18 27 27 24 24 33 33 25 13 12
47 36 33 29 28 29 26 19 14 19 24 29 9 10 4 8 25 36 22 23 19 20 21 14 10 10 10 8 6 9 8 7 14 12 6 9 11 7 8 10 25 34 38 38 39 29 30
47 36 32 30 30 29 27 14 13 19 23 25 7 8 9 10 26 37 25 27 25 17 15 12 10 11 9 7 10 6 4 6 8 6 11 17 21 24 18 28 27 18 34 36 41 22 32
45 35 33 31 28 27 22 11 13 17 16 1 7 6 12 28 19 32 20 29 22 20 19 14 12 11 5 8 10 14 13 15 14 13 19 19 29 30 38 41 44 44 41 33 36 37 29
48 35 31 30 26 25 19 9 7 18 8 6 5 6 12 23 20 32 30 23 22 15 16 18 12 10 15 12 14 5 6 7 13 15 17 24 32 30 42 39 33 34 34 44 44 42 41
49 37 30 29 26 23 14 7 4 15 12 3 7 3 18 16 18 26 27 17 10 17 8 8 7 11 8 9 9 11 13 19 17 13 16 22 24 20 28 28 36 16 11 19 30 39 35
48 40 30 26 26 21 16 7 3 5 5 3 3 8 16 19 31 22 20 19 12 14 9 6 11 8 8 6 6 10 15 18 21 26 26 29 30 26 24 23 3 12 9 12 14 22 29
48 42 32 26 25 18 14 9 2 4 3 8 7 12 14 20 24 24 21 11 18 19 13 13 13 7 7 10 11 7 7 12 16 17 24 29 31 16 6 15 18 19 20 11 3 14 12
48 44 32 27 22 16 15 9 3 3 7 5 17 7 17 18 14 19 17 16 17 14 12 12 10 12 12 12 11 5 5 6 4 4 6 5 15 19 15 6 4 17 17 15 10 16 10
47 45 34 26 21 16 12 9 6 5 10 9 16 9 11 15 13 15 18 22 15 11 9 8 6 8 10 12 14 15 8 8 5 4 4 2 8 13 14 7 11 12 10 11 12 15 13
46 46 38 28 20 16 12 9 9 11 14 13 10 14 16 15 11 18 11 11 11 13 15 8 5 7 9 13 13 10 11 11 10 11 8 5 4 6 4 5 7 10 7 8 13 10 8
43 45 42 31 23 15 12 10 12 12 15 16 11 14 16 16 10 13 11 12 14 13 11 14 11 9 5 7 10 9 9 7 10 5 9 6 8 3 4 5 9 8 8 10 12 9 8

GFSGBSN_700_spd_018.txt.gz
Wind_Speed
28 30 31 31 33 35 36 35 30 30 32 29 29 25 23 23 23 22 27 26 23 21 20 19 18 17 17 19 21 11 14 19 20 23 19 16 17 19 18 19 22 22 24 26 28 29 30
31 33 35 36 38 38 38 38 36 36 29 31 29 33 34 30 27 23 26 27 24 23 21 20 19 18 18 18 17 20 11 10 16 22 20 18 18 17 20 22 22 20 21 23 27 28 30
35 36 38 40 41 42 41 41 39 37 35 32 32 31 36 38 31 26 27 28 23 24 22 21 21 20 18 17 16 19 21 21 16 16 17 18 16 17 16 16 19 19 21 23 25 26 30
39 42 44 46 45 43 42 39 37 37 35 32 35 32 34 40 40 29 28 24 25 24 23 23 23 21 20 19 16 18 18 19 20 21 20 18 18 19 18 18 16 15 18 15 18 21 23
45 49 51 49 48 47 46 45 39 34 35 34 35 31 31 33 40 34 29 27 27 24 25 24 23 21 21 20 18 17 18 19 16 16 18 19 19 22 20 17 13 15 12 13 14 16 16
47 49 52 53 52 42 39 37 35 37 34 32 32 31 27 31 36 36 30 25 28 24 25 25 21 17 18 20 21 20 18 18 18 18 17 18 19 18 18 16 9 9 12 13 13 10 20
48 51 52 52 50 49 48 39 36 40 39 33 28 22 21 28 36 40 30 35 34 30 32 26 11 24 8 21 14 23 20 19 19 19 19 19 19 21 17 17 16 14 12 14 16 18 26
50 51 52 51 50 47 43 35 37 39 36 27 16 11 16 22 33 34 33 45 36 20 19 23 23 12 20 11 18 18 16 21 23 21 20 19 21 16 17 17 19 18 20 21 20 18 21
51 53 52 51 47 42 36 37 38 34 32 24 19 19 19 22 32 40 30 40 37 29 18 19 21 25 20 17 16 15 17 18 17 21 18 17 12 8 13 17 17 20 21 19 21 21 25
51 52 52 49 45 35 37 36 36 32 28 18 18 14 19 15 27 32 51 34 40 26 13 16 25 23 28 26 21 19 19 18 19 16 16 15 21 23 22 20 18 20 19 20 19 16 10
54 55 54 43 33 35 35 35 33 30 24 22 14 20 18 18 20 20 41 17 35 26 7 13 24 25 26 27 16 27 25 23 21 20 18 11 10 11 17 17 13 14 16 13 12 15 18
57 57 49 33 33 35 34 33 30 28 19 20 25 25 16 18 20 18 34 21 35 14 6 16 24 23 26 31 26 16 27 28 25 24 25 20 21 17 15 12 13 14 11 13 13 12 11
59 59 37 35 35 35 33 29 27 20 19 22 28 34 19 17 15 25 24 36 24 7 11 16 23 23 23 28 24 23 21 22 14 11 14 13 21 23 21 16 16 16 10 3 6 8 8
60 49 39 36 35 34 29 27 26 15 15 25 31 17 8 12 15 31 31 41 10 11 13 13 21 21 15 20 17 17 19 20 18 14 5 6 5 14 13 17 7 19 18 9 6 8 11
57 48 36 36 32 29 28 30 23 14 17 26 32 6 4 13 15 30 29 29 10 25 21 21 24 22 18 21 17 18 18 20 18 22 10 7 6 9 5 7 14 11 23 19 25 32 20
55 45 35 34 30 29 30 28 19 13 18 27 32 3 8 12 19 24 39 15 10 25 22 21 14 11 14 24 15 19 16 8 14 17 15 8 6 10 18 17 21 22 9 9 16 6 15
54 43 36 31 31 30 30 25 14 13 19 30 23 1 8 14 19 32 25 14 20 18 22 14 12 14 12 24 14 18 9 5 10 8 19 15 12 7 15 18 19 20 29 24 19 18 9
53 43 33 32 31 30 27 18 12 16 21 27 26 4 7 18 20 31 18 24 21 20 18 11 9 9 13 14 16 11 12 10 9 12 15 17 10 15 24 18 17 21 24 26 23 18 17
52 46 33 31 30 26 22 15 14 18 24 28 15 16 18 19 9 22 23 23 23 20 17 13 10 8 11 12 6 9 6 11 12 11 5 12 11 6 8 4 11 20 25 36 39 33 32
51 47 35 30 28 24 20 13 15 22 23 10 10 12 13 9 16 20 26 21 20 14 12 9 8 8 7 7 8 6 5 5 7 11 14 12 14 19 16 25 21 23 30 30 38 32 35
50 48 39 31 27 21 18 12 13 20 10 14 13 14 11 14 21 24 23 19 17 15 12 10 8 8 3 7 8 11 11 10 10 9 14 15 23 27 36 37 36 41 44 42 36 45 31
49 47 40 31 25 19 16 9 8 14 7 12 15 10 7 15 30 25 22 17 15 13 7 12 9 3 10 7 6 5 7 10 9 11 20 24 25 26 36 34 26 36 42 35 33 41 47
48 47 42 31 25 16 12 7 6 5 1 9 14 11 15 15 24 26 24 17 12 12 6 8 11 8 4 8 9 10 13 11 13 14 14 18 22 15 20 22 39 16 22 18 19 22 22
46 46 44 34 26 17 10 2 4 3 2 8 9 7 10 19 15 23 23 16 11 13 8 5 6 8 5 4 5 7 11 15 17 17 22 25 22 21 24 24 4 16 21 14 11 13 12
43 45 45 38 27 16 11 6 2 0 2 2 2 5 6 18 19 21 17 14 9 12 12 6 5 6 7 7 8 7 6 6 5 9 19 24 28 15 6 11 18 11 24 14 10 11 24
41 43 43 41 30 17 7 3 4 3 6 2 3 10 9 12 19 19 16 9 15 14 12 11 8 12 11 6 8 4 3 3 1 4 5 7 14 23 7 5 4 14 21 17 10 10 17
38 40 42 42 33 21 9 3 7 6 10 12 4 6 8 13 5 14 19 17 13 12 7 6 6 7 10 11 10 8 6 7 3 3 4 2 9 16 12 8 12 12 15 13 12 15 15
35 37 39 40 36 25 12 7 10 13 15 12 12 6 10 9 8 11 15 15 14 10 9 8 5 6 8 11 7 7 7 7 10 13 8 5 5 6 5 6 5 13 10 13 14 13 5
33 34 36 38 38 27 20 8 13 14 19 17 18 16 14 12 6 16 13 12 14 12 9 9 11 6 3 4 5 4 9 7 8 5 8 8 9 4 6 7 13 10 8 10 13 7 4

GFSGBSN_700_spd_021.txt.gz
Wind_Speed
32 33 33 34 35 35 35 35 36 35 32 27 27 30 29 30 31 29 27 26 27 24 23 21 20 19 18 20 21 17 10 19 20 22 17 17 19 15 15 14 15 20 19 18 23 26 26
35 35 35 36 38 39 39 38 38 37 37 34 28 28 31 29 33 31 29 27 25 25 23 21 22 20 20 22 27 24 11 16 21 24 21 18 17 16 14 16 17 7 18 22 21 24 26
39 41 42 44 44 44 45 44 41 40 38 36 32 28 30 32 39 40 33 29 28 27 24 23 22 21 23 20 23 21 17 10 20 25 22 21 20 18 15 16 21 20 23 23 26 25 24
43 45 46 47 49 51 50 47 45 39 35 31 28 27 28 30 36 39 40 32 28 27 24 23 24 23 25 23 22 20 26 22 15 23 22 21 20 21 17 17 13 11 14 14 8 17 18
44 46 47 49 50 50 51 41 39 33 31 29 28 27 29 32 29 35 42 40 31 31 26 23 25 24 24 24 23 23 22 23 25 25 22 18 15 19 20 14 9 13 13 14 14 13 11
46 48 49 50 50 49 46 36 36 34 34 34 32 30 28 26 25 31 39 38 31 29 23 24 27 21 23 26 26 22 23 23 21 25 27 25 20 15 16 15 11 12 16 14 14 7 11
48 49 50 51 50 49 38 35 37 36 33 33 31 26 21 18 14 26 31 32 32 32 32 31 19 29 14 23 27 27 22 20 21 20 21 22 19 19 17 17 17 10 8 13 12 13 22
48 50 52 53 50 40 32 35 36 32 31 29 27 20 19 17 16 20 38 35 35 28 30 30 25 18 26 19 19 28 24 23 22 21 19 18 23 18 15 15 16 15 16 18 18 18 20
50 52 55 54 40 31 33 33 32 29 27 26 23 17 18 18 21 21 38 37 35 28 13 25 26 27 19 18 23 19 23 22 21 19 21 17 10 13 19 16 15 16 16 16 18 20 24
51 54 56 50 34 33 33 32 31 28 24 22 19 19 16 17 17 14 26 40 31 24 13 19 30 30 26 20 17 19 20 19 19 20 16 16 18 18 14 16 14 15 12 16 17 14 10
52 56 54 39 36 35 33 32 27 24 24 18 13 21 16 15 17 11 14 30 36 27 7 13 26 20 28 24 17 21 20 21 15 13 20 10 14 17 14 16 12 11 9 6 8 13 19
52 54 50 35 35 34 32 27 24 25 19 15 19 25 31 15 20 9 16 36 17 14 4 14 24 29 31 29 23 19 25 22 18 12 16 13 16 13 11 12 12 11 7 9 9 9 9
53 53 49 35 33 31 30 28 27 21 13 15 23 33 19 14 14 15 21 25 10 5 10 16 21 28 29 31 19 19 27 28 18 13 18 17 21 17 19 14 11 13 6 2 4 6 8
52 53 46 36 31 31 31 30 26 14 10 18 27 26 5 4 11 26 25 21 9 10 12 11 23 23 20 27 18 19 19 23 21 14 6 11 7 19 13 20 7 15 16 7 6 8 13
52 53 44 34 34 32 31 28 19 14 17 24 30 7 1 7 17 25 24 23 5 16 16 23 23 24 15 24 15 19 20 18 19 18 11 9 6 11 10 8 16 8 19 17 21 27 19
52 52 44 32 31 31 25 21 16 16 20 27 28 2 6 12 16 21 29 9 5 11 16 24 13 12 14 25 14 18 19 17 16 22 15 6 4 7 10 13 16 14 4 7 12 5 10
50 51 45 33 30 29 23 17 15 17 20 24 16 5 10 10 16 19 20 4 11 19 18 8 9 14 12 24 13 19 17 7 16 14 19 8 7 4 10 12 14 17 24 17 13 16 5
49 51 46 34 28 27 24 17 14 19 25 17 10 9 10 16 17 23 10 14 20 21 13 11 10 7 16 21 12 13 11 3 15 14 20 14 4 9 16 11 11 19 21 20 15 13 18
48 50 47 37 27 23 22 17 18 22 22 6 17 17 21 13 16 24 16 18 19 18 12 8 7 8 13 17 8 9 11 12 9 13 11 15 6 4 5 2 14 19 21 29 36 35 38
47 50 48 38 24 21 19 15 20 22 18 9 11 14 16 13 16 20 18 17 21 18 13 9 12 10 13 14 5 11 7 7 11 12 14 9 10 15 12 14 13 18 26 29 33 30 37
45 48 48 38 22 19 17 16 19 20 21 13 14 12 12 13 13 22 9 21 15 8 6 7 7 6 6 5 5 5 8 7 7 10 14 13 17 18 25 28 28 34 36 37 40 47 39
43 46 48 39 20 17 17 14 16 15 18 7 17 12 8 13 13 11 8 9 10 8 5 4 3 6 6 5 3 5 7 8 7 8 13 16 15 18 32 22 18 29 33 29 20 22 30
39 43 46 41 20 14 13 15 15 12 10 12 10 16 12 18 18 12 9 13 7 5 4 4 7 4 3 8 9 8 9 9 10 12 10 15 14 14 10 13 34 11 14 17 16 15 21
35 39 43 42 26 11 11 11 11 9 8 9 8 11 14 14 13 12 13 11 8 7 4 3 4 6 6 5 2 2 7 9 13 16 15 19 15 15 17 24 3 10 18 20 15 10 18
32 35 38 40 34 16 8 8 7 4 3 7 3 6 12 13 9 13 13 13 13 10 11 4 3 7 4 5 4 4 3 7 8 10 18 19 20 10 5 11 20 9 16 20 17 12 24
29 32 35 37 36 25 9 5 3 2 4 2 3 4 6 14 11 13 15 16 8 5 9 9 6 7 7 4 3 1 3 1 2 2 4 10 15 17 8 4 4 8 17 16 11 5 11
27 29 32 33 35 30 17 6 7 5 5 5 1 4 7 14 14 17 14 15 8 8 6 5 6 6 7 7 5 4 5 5 3 4 5 6 8 18 14 7 13 9 17 10 7 10 7
25 27 29 31 32 34 26 13 10 11 12 13 10 5 10 14 11 13 21 17 11 8 5 3 3 4 6 7 5 6 5 4 5 7 5 5 5 6 7 6 7 13 15 9 13 12 5
24 26 28 30 30 32 30 21 14 16 18 21 19 14 12 11 11 13 15 14 15 15 13 8 7 3 3 3 4 4 7 7 5 4 6 6 10 5 8 7 14 14 9 9 12 9 1

GFSGBSN_700_spd_024.txt.gz
Wind_Speed
32 34 34 35 37 38 38 38 37 36 35 37 35 29 25 27 30 30 32 31 30 24 28 23 22 20 19 21 20 13 8 13 19 18 18 21 23 21 18 15 16 20 20 21 19 30 27
35 37 39 41 42 43 45 47 47 46 45 37 39 37 31 28 30 32 33 33 31 25 23 22 22 21 21 22 21 19 16 10 17 20 18 16 16 14 11 13 16 9 19 22 20 23 31
38 40 42 43 44 45 48 51 50 42 33 34 29 27 27 28 29 31 35 32 31 31 28 25 21 22 25 20 22 24 19 13 18 20 22 16 19 22 23 17 18 25 20 18 24 27 29
40 41 43 44 46 48 49 50 45 32 36 38 31 26 23 27 31 29 32 36 38 30 25 21 21 23 27 25 25 18 21 16 15 20 21 22 19 20 18 17 13 15 15 19 15 12 18
41 45 46 45 47 48 48 45 33 36 39 40 36 29 24 27 29 27 29 36 38 32 28 25 25 24 24 25 25 21 19 25 15 15 21 21 19 21 21 16 10 10 12 14 11 12 12
42 46 47 49 49 49 44 31 32 34 35 33 30 29 25 24 22 15 18 29 31 41 25 28 26 21 26 25 25 21 20 23 25 22 19 18 19 20 20 16 10 10 16 14 14 11 15
45 47 49 51 51 46 33 33 33 33 31 29 26 25 23 21 21 20 13 15 26 34 31 33 22 25 15 28 22 23 21 21 21 25 22 18 19 20 17 14 15 13 13 10 10 9 18
46 49 52 54 45 36 36 35 34 32 29 25 23 21 18 16 15 14 16 18 25 30 33 33 17 22 24 12 21 23 22 23 21 21 16 20 25 24 16 14 15 16 16 18 19 16 19
47 51 53 50 37 36 36 35 33 29 23 22 21 19 18 18 16 12 17 22 31 27 20 35 28 22 22 18 20 21 25 22 22 23 22 16 6 21 20 17 18 15 14 16 18 18 25
48 52 53 47 38 35 34 33 29 26 24 23 17 16 19 15 12 9 10 23 35 20 13 28 27 25 17 22 12 16 23 21 20 22 19 18 13 11 13 17 12 8 9 13 13 12 6
49 52 52 44 37 34 33 33 29 26 25 17 15 19 21 27 16 9 7 11 28 16 6 23 29 18 21 21 21 20 22 24 20 20 22 12 16 15 14 13 11 10 15 14 13 11 18
49 53 52 40 36 34 35 34 30 22 13 12 17 26 35 21 12 9 13 8 23 3 2 15 29 23 29 19 18 23 26 22 19 13 20 12 13 13 12 9 16 12 12 10 8 8 7
50 53 52 40 33 33 30 25 22 15 13 16 26 34 17 10 5 12 13 10 8 4 23 18 30 30 31 22 20 25 29 25 17 16 18 20 15 17 15 12 11 12 4 1 4 4 7
49 52 52 38 30 30 27 20 15 13 15 20 34 27 7 9 17 15 21 28 6 8 6 17 30 28 23 25 18 20 22 24 20 13 6 15 7 21 16 26 9 14 13 5 5 3 4
48 51 52 38 31 27 23 20 17 15 18 22 23 8 8 9 12 21 20 23 5 11 17 25 26 28 19 23 15 21 22 23 24 19 10 8 4 5 6 10 16 9 19 15 9 17 9
47 52 53 40 31 26 20 21 19 21 23 21 13 9 12 10 20 24 23 9 7 9 18 28 15 15 18 28 14 19 18 12 16 23 15 5 2 4 10 8 16 12 6 6 8 3 5
46 51 53 41 29 27 23 21 21 23 20 15 8 13 12 13 15 18 16 7 14 24 12 5 12 13 14 28 10 19 12 3 19 17 18 8 5 5 15 14 17 24 21 11 7 9 4
44 49 51 41 28 27 25 20 24 24 16 11 14 15 11 18 14 15 17 5 18 18 14 14 9 9 18 25 12 14 13 1 13 10 23 13 5 9 18 8 6 19 18 24 10 8 15
42 47 49 40 28 26 25 22 29 24 14 16 16 20 14 19 11 15 17 18 18 17 10 10 11 6 20 20 11 8 10 11 19 16 14 17 6 3 1 3 16 18 18 23 29 31 33
39 43 48 40 27 24 21 21 27 20 14 13 18 15 17 16 17 13 19 15 15 14 12 11 14 16 15 10 5 10 11 10 12 18 15 9 9 11 8 5 7 13 21 25 28 25 32
35 39 45 42 28 23 19 19 19 23 15 10 15 14 16 14 8 15 16 19 16 11 13 13 11 14 12 7 8 8 8 9 11 16 17 15 9 15 21 22 22 24 27 27 31 39 37
31 35 39 41 29 22 18 16 18 19 19 8 10 16 15 13 6 13 15 12 11 10 10 9 8 8 11 7 5 8 8 5 5 9 12 13 9 13 27 8 6 21 24 22 25 24 28
27 31 34 38 35 22 18 14 14 14 17 14 10 11 11 13 11 6 1 5 5 5 3 3 7 5 7 8 7 3 11 10 6 8 9 10 9 10 8 11 24 10 7 13 13 16 19
24 27 31 33 35 28 16 12 8 7 8 9 5 5 12 13 16 5 6 4 2 2 5 2 5 6 4 2 4 1 7 8 10 13 12 12 11 11 11 14 2 4 20 17 19 9 12
21 23 26 29 31 31 21 10 9 10 8 6 6 8 10 14 13 8 7 4 5 8 5 2 2 5 3 3 1 2 1 4 4 7 13 14 14 6 4 8 17 4 11 22 17 9 19
19 20 23 25 28 30 28 17 9 12 12 5 2 3 10 11 12 6 10 5 4 1 8 4 2 3 4 1 3 2 2 1 3 2 6 13 14 17 5 4 3 2 15 21 14 6 23
19 19 20 23 23 27 28 25 15 11 12 11 7 6 10 16 15 15 10 11 12 7 7 5 3 3 5 6 4 3 3 4 2 4 7 8 10 18 14 7 11 5 16 15 5 11 18
18 19 20 22 21 22 26 28 22 14 16 16 14 9 11 17 14 17 18 13 14 8 5 3 1 1 3 5 2 3 4 4 5 7 5 5 6 7 8 6 7 9 18 9 14 14 12
16 18 20 22 21 20 23 26 28 22 17 23 22 21 15 15 14 17 23 23 15 14 12 7 5 2 3 4 5 4 4 5 6 5 8 9 11 4 8 5 8 14 16 14 14 14 9

GFSGBSN_700_spd_030.txt.gz
Wind_Speed
34 35 36 38 42 44 43 45 45 46 43 32 32 32 31 30 31 26 30 35 31 33 36 36 22 26 26 26 22 13 17 21 22 23 23 26 29 28 30 32 29 36 34 32 30 29 28
35 37 39 42 45 47 48 49 49 43 37 28 32 31 32 31 32 30 25 32 34 30 34 34 25 27 29 29 17 20 13 20 19 20 22 25 25 23 24 22 29 23 28 25 28 27 31
37 38 40 43 46 50 51 48 39 34 34 32 31 32 29 23 22 23 23 26 28 30 33 35 35 24 31 20 22 24 18 18 20 20 20 18 21 25 20 18 18 24 17 19 25 26 33
37 39 42 45 49 51 49 42 33 32 32 32 30 28 23 20 19 21 23 21 20 22 32 37 32 27 35 23 24 24 23 20 17 22 19 19 21 26 21 14 16 21 19 23 23 18 21
38 40 44 46 50 51 42 32 30 29 30 28 25 22 20 19 18 19 21 18 16 14 33 40 31 28 21 26 28 21 25 20 18 21 22 22 23 21 23 22 12 18 19 18 16 16 20
39 42 45 49 52 48 32 30 27 29 27 23 21 19 17 16 16 16 16 11 11 15 34 39 32 26 25 29 23 25 25 21 17 22 25 25 26 23 23 25 18 16 21 20 17 14 15
40 44 47 51 52 41 28 26 28 24 23 17 16 16 14 17 20 19 16 7 8 14 39 33 20 22 14 19 25 27 24 23 21 18 23 29 24 31 33 24 13 12 11 8 14 14 21
41 45 49 52 50 34 25 25 24 19 16 13 12 8 13 17 23 23 9 8 7 16 39 17 23 24 9 19 30 27 27 24 28 23 22 21 23 21 16 20 13 16 18 17 19 20 22
42 46 50 52 46 28 24 21 19 15 13 12 12 11 15 21 24 13 3 6 10 19 22 18 25 32 18 20 28 33 31 26 26 24 22 13 10 17 16 15 13 11 13 16 20 23 27
42 46 50 53 39 30 24 21 19 19 19 17 17 19 20 23 26 13 3 6 13 21 16 18 24 28 27 23 23 28 27 25 24 24 21 16 12 11 19 18 17 16 15 17 19 19 11
42 46 49 52 37 33 27 24 22 21 23 23 21 24 25 23 14 6 5 2 20 26 4 27 26 27 28 24 29 30 28 25 23 23 19 13 16 17 11 19 17 14 14 12 14 16 22
42 47 50 46 37 35 32 30 28 24 24 23 25 21 17 11 4 6 10 7 17 4 3 16 22 26 29 15 32 33 26 22 19 17 20 13 10 14 12 10 16 14 13 11 15 14 5
40 45 50 40 37 36 33 33 29 24 24 21 16 16 16 9 13 16 17 17 7 1 14 22 30 34 27 26 27 32 26 24 16 18 17 14 12 13 11 14 13 16 10 2 3 1 7
39 43 47 37 36 35 36 33 29 25 24 17 13 15 16 19 16 15 17 12 3 5 3 21 36 33 26 22 29 28 25 26 16 14 20 12 6 13 11 14 10 16 13 5 5 2 5
38 41 45 35 35 34 36 34 27 27 21 18 14 14 14 10 16 13 9 6 7 7 22 33 35 28 24 18 24 27 25 23 18 19 9 14 7 7 9 11 15 12 11 11 4 6 4
37 38 42 33 35 35 35 33 33 28 27 21 16 14 16 16 16 8 6 9 11 19 31 35 17 17 18 17 23 21 24 21 20 18 10 11 7 4 6 10 14 9 8 7 6 1 4
34 35 38 31 32 33 32 29 29 30 25 24 19 28 25 21 10 8 11 22 25 30 23 12 6 17 20 20 16 19 18 6 25 22 11 14 5 8 9 9 18 19 12 7 4 5 3
32 32 34 29 29 28 28 24 26 28 28 25 22 24 18 9 8 16 22 25 22 17 11 12 4 13 21 19 13 18 18 1 12 20 19 11 6 5 11 4 5 17 18 17 6 3 6
28 30 29 28 23 21 22 26 27 28 25 21 21 22 17 16 20 23 30 27 22 12 10 12 8 13 18 18 13 9 8 5 13 13 24 16 5 4 3 11 19 16 18 23 21 20 17
25 26 25 25 15 13 13 17 21 23 20 19 16 19 19 16 20 21 22 22 21 16 13 10 11 14 23 9 8 15 14 10 15 13 20 9 10 6 4 1 4 13 15 17 22 19 22
22 23 22 20 14 7 6 7 10 12 15 14 14 15 17 20 20 17 20 18 19 18 19 22 24 21 14 10 11 15 13 15 16 16 15 14 7 12 15 15 17 18 18 20 26 33 31
18 21 21 18 19 8 5 4 2 2 8 12 13 15 17 19 17 13 12 12 13 16 15 14 14 11 13 14 9 16 13 16 12 18 18 16 7 8 12 7 11 14 14 16 20 25 35
18 17 20 17 15 16 6 5 5 4 2 7 7 10 7 10 11 11 11 8 9 10 9 10 11 8 13 7 9 7 5 8 4 9 20 15 6 6 4 4 14 12 6 4 8 11 14
17 14 19 17 15 15 16 10 6 6 3 5 9 8 10 10 11 10 9 6 5 5 3 7 9 11 11 6 9 7 6 7 6 6 9 8 9 7 7 6 1 5 1 5 11 10 10
23 14 16 18 14 14 14 16 15 9 7 5 7 10 13 12 12 12 12 9 8 5 3 5 8 8 9 10 10 6 7 7 9 11 11 11 10 5 3 6 13 6 4 8 14 5 9
25 13 16 17 15 14 12 12 15 18 11 7 8 9 11 14 17 15 13 10 8 6 8 7 8 9 11 13 10 6 6 6 7 4 11 11 13 13 3 3 3 4 4 11 14 6 15
26 12 16 17 17 15 14 13 11 13 18 15 9 13 14 15 17 20 15 14 11 10 10 10 9 10 11 11 11 7 6 8 6 7 10 14 16 17 14 7 10 4 5 10 4 9 22
24 11 16 16 15 18 18 17 14 13 14 16 18 15 16 20 18 23 22 19 19 16 12 9 9 11 10 12 9 6 7 9 8 9 7 12 10 10 10 7 9 6 10 10 16 19 18
22 12 15 15 15 16 17 19 21 21 20 19 21 21 21 24 18 28 28 25 23 24 17 12 9 7 9 10 10 7 7 7 10 5 12 10 13 5 10 5 6 9 17 12 15 18 16

GFSGBSN_700_spd_033.txt.gz
Wind_Speed
32 33 35 38 41 44 46 47 48 45 33 30 28 29 31 33 31 31 32 29 29 29 29 32 37 38 25 29 27 10 18 23 25 27 29 30 32 35 35 36 36 38 36 35 34 31 32
32 34 37 39 43 46 48 50 45 34 31 27 26 29 28 26 25 26 25 23 25 24 27 30 38 42 28 33 17 23 9 21 24 27 29 31 30 30 29 31 34 30 34 32 30 29 30
34 36 38 42 46 49 52 46 34 29 28 26 23 25 25 22 19 19 19 19 20 19 23 29 38 41 26 28 23 23 16 16 21 25 27 28 27 28 24 28 23 31 15 29 31 28 30
36 38 41 44 49 52 52 32 27 28 26 25 22 21 20 17 15 17 18 18 18 14 15 29 36 44 26 25 21 24 21 19 24 22 20 22 25 26 21 20 16 16 25 18 23 24 26
38 40 43 46 52 55 43 29 26 28 24 23 18 15 14 14 14 14 15 15 14 15 14 27 42 29 26 21 28 28 27 19 23 24 23 25 25 25 21 18 14 18 12 23 20 19 21
38 41 45 49 54 53 36 27 25 25 22 19 14 15 12 10 14 16 13 11 11 9 16 28 43 19 17 25 24 26 26 25 20 26 27 29 27 27 28 26 18 13 20 19 20 16 17
40 42 46 51 56 47 33 28 27 22 19 19 16 14 10 12 20 26 17 8 10 10 18 30 37 24 26 22 29 27 28 26 20 24 27 28 29 31 25 27 23 13 14 15 14 18 25
41 45 48 52 52 44 36 30 27 23 21 19 19 17 16 17 21 24 16 6 9 9 18 30 18 22 23 20 29 29 28 24 21 23 21 27 31 28 22 22 21 15 14 14 14 20 22
42 45 49 54 48 42 38 33 29 25 23 22 23 22 22 23 25 22 14 5 9 9 25 24 23 27 30 27 30 32 31 27 24 19 23 19 16 17 29 27 26 20 16 16 18 18 23
41 45 51 53 46 42 38 34 30 27 25 24 25 22 24 25 21 9 2 5 8 17 20 14 30 22 26 27 31 32 27 22 23 24 17 12 13 18 19 22 18 14 12 12 14 14 8
40 44 49 49 44 39 40 36 34 31 29 27 24 18 15 12 6 3 7 9 23 24 6 20 26 25 25 25 32 31 27 23 23 18 19 10 10 16 17 19 19 12 11 12 13 14 16
38 44 48 45 40 39 39 34 32 30 29 22 19 18 12 8 9 13 14 23 25 2 5 12 17 29 28 12 34 33 26 21 17 15 11 8 11 8 11 12 15 15 13 11 13 13 3
35 40 45 42 37 35 34 32 31 31 27 25 26 23 17 18 18 21 18 24 3 4 11 19 26 29 25 27 31 29 23 21 11 15 15 12 13 13 11 13 10 13 9 2 3 2 5
35 38 42 38 34 31 31 26 28 28 27 26 28 21 18 19 21 22 16 7 7 12 10 27 33 31 27 26 28 21 25 21 12 13 17 10 6 13 11 12 10 15 12 4 5 1 4
31 35 37 33 30 25 24 25 26 27 30 34 27 21 19 22 19 14 12 15 9 11 26 37 30 28 25 22 20 21 22 19 13 14 9 12 5 14 7 10 11 10 10 11 2 2 2
28 30 32 28 26 21 20 21 24 25 26 26 21 22 21 16 12 13 22 22 22 27 34 29 20 14 19 17 22 18 22 19 17 14 13 7 7 8 12 12 15 13 9 5 6 1 3
25 25 26 22 22 17 19 20 21 24 23 20 20 20 19 17 17 20 25 27 34 36 25 13 9 19 22 21 17 20 21 9 21 16 12 13 6 10 10 10 17 15 13 7 5 2 3
24 21 22 18 17 12 13 15 16 18 19 20 16 17 15 18 19 23 20 21 22 17 15 13 9 18 18 18 18 22 17 11 24 20 13 13 6 7 14 5 7 16 14 13 4 4 3
20 19 19 17 14 12 6 7 10 14 16 14 16 19 20 19 22 23 22 18 13 11 10 10 7 11 14 16 12 21 18 12 8 28 15 12 5 4 2 9 13 13 19 18 16 10 11
20 17 16 18 15 14 7 6 5 5 6 7 11 10 15 16 18 19 18 15 13 6 6 7 9 10 18 14 5 14 12 12 9 20 17 11 9 5 5 1 3 11 20 16 17 9 11
22 16 15 17 18 17 12 7 8 4 4 4 5 6 7 11 14 13 13 14 18 17 11 12 11 16 15 6 9 13 14 12 12 12 18 14 5 9 11 11 13 10 10 14 21 24 20
25 17 14 15 18 17 17 9 7 7 5 5 2 12 14 13 12 13 11 8 7 13 17 18 20 12 8 10 9 16 16 16 11 16 18 15 7 6 9 11 13 17 20 22 26 28 33
25 20 15 16 14 18 15 14 10 8 7 6 7 5 5 8 8 10 9 6 8 8 9 10 9 8 10 5 7 7 3 10 3 10 17 14 6 6 3 3 8 16 13 18 14 12 13
29 26 21 16 15 15 16 12 11 10 10 9 10 12 10 8 8 9 9 10 6 5 7 9 9 9 11 7 8 7 5 8 4 4 11 9 10 8 6 5 1 3 4 1 8 10 10
32 32 25 18 17 14 15 14 11 10 9 11 10 14 18 16 13 12 12 9 9 7 5 10 11 11 12 9 7 4 6 5 8 7 8 11 11 4 3 4 12 8 7 5 7 1 3
35 33 27 20 17 16 14 13 12 11 10 9 9 12 15 17 20 19 17 17 14 12 9 10 12 13 12 12 12 6 6 5 7 5 14 13 13 11 4 3 3 4 8 7 10 2 9
35 27 25 22 19 17 15 14 13 12 12 13 10 8 13 18 19 19 22 18 17 16 11 13 11 12 13 16 14 7 7 7 5 7 10 15 16 17 16 8 9 9 3 7 2 4 15
22 23 20 22 19 16 16 15 14 13 14 15 15 15 16 15 14 21 25 24 22 19 15 13 13 15 16 15 11 8 8 11 8 9 9 12 11 10 13 7 9 7 3 9 11 12 16
20 20 20 22 17 15 17 17 16 17 18 17 20 22 24 24 19 18 27 28 26 24 23 20 15 5 12 11 13 9 9 9 14 7 16 10 14 5 10 4 5 7 10 15 14 16 17

GFSGBSN_700_spd_036.txt.gz
Wind_Speed
32 34 36 39 42 45 48 50 49 37 31 24 25 26 23 24 25 27 25 24 28 30 27 23 31 40 37 35 28 5 16 26 30 30 31 33 35 36 36 38 36 37 35 33 29 33 35
35 36 38 41 44 48 50 46 38 34 27 26 26 22 23 22 21 22 19 18 17 20 22 23 29 42 36 33 19 20 8 23 27 30 31 31 33 33 31 33 35 31 36 33 31 35 35
36 38 41 44 48 51 50 38 31 31 27 29 24 21 20 17 15 16 14 15 15 16 17 18 29 41 38 39 19 19 18 16 25 27 30 30 30 28 26 29 29 31 22 30 35 33 30
39 40 42 46 49 54 44 36 30 33 29 25 24 19 16 15 14 14 13 13 12 14 13 14 23 35 29 45 23 24 22 19 23 25 25 27 27 26 22 19 20 21 27 19 23 31 31
40 42 43 46 52 49 43 45 36 31 29 24 21 19 16 15 11 15 17 15 13 13 10 12 24 30 21 44 24 27 24 21 25 24 23 24 25 25 21 19 16 18 14 31 26 18 20
40 43 44 48 52 46 47 43 34 30 31 20 18 22 19 15 13 17 19 24 16 9 11 15 23 25 23 41 27 31 25 23 29 29 27 29 26 28 27 22 18 16 16 13 21 19 23
41 41 45 50 47 46 45 41 38 34 29 21 23 20 19 17 19 21 20 17 8 9 10 14 26 17 19 28 30 30 28 23 30 29 33 34 30 34 33 23 10 11 12 15 14 18 22
41 43 46 47 45 45 45 41 35 31 30 24 22 21 20 20 22 22 22 11 5 7 10 18 34 15 20 16 31 28 29 23 23 17 31 32 29 27 21 23 22 14 10 11 10 14 19
41 43 47 46 46 43 41 35 35 33 30 29 26 24 21 20 22 23 20 10 4 2 19 24 22 13 18 20 30 29 28 23 22 21 17 24 19 21 19 20 23 17 14 11 14 17 20
36 39 44 44 42 39 37 34 36 33 30 27 24 20 17 13 11 5 4 7 10 21 18 12 26 13 18 19 29 28 28 19 18 15 15 21 11 22 21 22 23 23 15 16 12 9 6
37 38 42 41 38 38 35 33 34 31 27 31 31 26 17 13 4 10 12 16 27 19 5 17 29 18 22 21 27 21 22 20 18 21 8 6 9 12 16 29 23 17 12 11 10 10 12
34 35 39 38 34 33 34 31 31 31 27 29 30 28 24 21 18 16 21 29 15 4 6 9 15 25 25 9 31 27 21 18 14 11 10 11 14 12 15 16 18 8 9 8 11 10 2
31 32 34 35 29 27 29 27 29 29 27 29 29 30 29 28 28 26 27 13 6 8 9 17 19 27 21 19 31 25 17 20 8 12 15 14 12 8 8 9 8 8 6 1 2 1 4
27 30 30 31 27 22 24 27 26 30 29 26 27 27 27 27 20 12 7 8 11 12 16 28 30 26 23 23 20 27 13 21 10 7 13 9 5 11 12 11 7 13 10 3 4 1 3
24 27 28 27 26 21 20 24 22 22 24 23 23 24 17 14 10 11 20 26 10 11 21 27 26 26 21 18 19 18 15 13 9 7 4 7 5 13 11 11 10 11 11 12 1 1 1
24 20 26 20 22 21 18 19 20 23 20 19 17 14 14 15 13 22 30 29 24 33 31 25 14 13 15 17 16 16 15 15 11 9 10 8 6 11 11 11 12 7 6 6 5 2 3
25 17 25 18 18 17 18 17 16 17 16 14 13 14 17 13 13 20 32 33 31 26 20 12 7 15 22 20 16 16 16 10 16 13 11 6 6 8 10 8 13 14 13 5 5 2 3
23 18 20 23 16 14 16 16 15 13 13 15 14 11 11 9 16 22 24 20 20 17 12 9 7 15 19 18 19 18 18 4 19 13 11 10 5 5 10 6 8 12 12 14 5 5 4
24 21 18 23 19 14 13 16 16 13 14 11 11 13 11 8 17 20 16 15 12 12 12 7 8 11 10 13 9 21 14 15 11 20 10 10 3 5 2 8 12 12 17 16 13 4 8
21 22 17 22 22 17 13 13 16 16 14 13 8 2 8 10 14 15 12 7 8 6 5 6 7 8 12 13 7 18 15 17 8 17 18 10 7 4 5 0 2 9 15 18 18 8 8
21 22 20 19 23 19 14 11 15 14 13 11 10 4 4 3 4 7 12 10 6 5 5 5 8 8 13 10 5 9 12 11 9 12 21 14 6 8 11 12 14 11 8 15 25 23 13
25 23 23 22 24 20 16 11 10 14 12 9 5 3 1 4 6 6 4 5 7 9 7 6 13 13 6 3 5 6 14 11 9 14 15 16 6 4 8 10 13 17 18 21 20 19 25
28 29 28 23 23 22 17 12 10 11 13 11 9 8 5 4 3 4 4 4 5 6 7 10 9 5 4 3 3 6 8 4 1 7 15 12 9 4 3 3 6 14 10 20 18 15 13
31 31 31 28 24 23 16 13 11 11 11 14 12 12 12 9 9 8 6 6 5 4 4 7 6 7 5 3 6 7 3 7 3 4 12 8 10 8 5 5 1 2 4 6 2 5 8
32 33 33 32 26 23 16 14 11 11 10 9 15 14 17 18 14 13 12 11 9 6 5 9 9 8 9 7 7 5 4 5 9 7 8 12 11 3 2 5 12 9 7 3 2 1 4
34 35 33 33 23 21 19 12 12 12 11 8 8 11 15 16 18 19 19 18 17 14 12 10 12 13 14 12 10 7 7 6 7 6 13 12 12 12 4 3 3 1 8 2 6 6 2
30 28 25 23 22 17 19 12 13 13 13 12 9 10 10 13 15 17 20 22 21 19 17 14 14 15 16 15 13 8 7 8 7 9 11 17 15 16 14 7 8 8 5 3 2 3 9
24 22 21 21 18 17 19 13 14 13 14 14 13 14 14 15 13 17 20 24 24 22 20 14 14 18 16 15 14 11 10 11 10 10 10 13 12 11 12 8 10 8 10 4 5 9 11
22 22 20 18 16 17 20 22 14 15 15 15 16 18 20 21 19 19 20 22 28 26 26 23 19 10 15 12 15 10 10 8 13 8 17 12 12 7 11 4 5 9 10 9 10 12 13

GFSGBSN_700_spd_039.txt.gz
Wind_Speed
34 33 35 39 41 45 49 42 37 36 35 32 29 28 23 21 20 19 19 20 21 23 23 30 29 26 41 47 39 13 19 28 31 32 31 33 35 38 40 40 37 38 35 35 27 30 30
36 37 39 42 45 48 43 39 38 35 31 32 31 26 23 19 16 14 13 15 16 16 16 18 21 25 36 43 43 15 16 27 32 31 30 31 35 36 35 35 35 30 34 28 28 30 33
40 38 41 43 47 45 43 40 37 34 31 32 28 22 19 16 15 12 12 12 13 14 13 11 14 20 35 46 42 33 22 22 27 26 29 29 30 33 29 31 28 28 21 30 31 30 32
42 39 40 44 46 44 40 42 38 31 29 28 25 19 17 17 15 10 12 13 14 12 12 12 14 18 34 36 30 22 18 17 27 25 25 28 23 27 26 20 24 24 23 21 26 32 34
43 40 42 47 45 43 42 41 38 34 30 29 24 18 17 17 15 11 12 15 20 12 10 11 11 14 25 39 38 15 21 18 24 25 24 27 24 24 24 22 17 22 18 30 23 19 18
40 40 43 45 44 44 42 41 42 33 32 29 26 21 21 18 17 14 13 17 17 9 9 11 11 16 25 37 38 17 23 22 27 27 27 28 24 28 25 26 21 21 18 14 23 26 25
38 40 43 43 43 43 42 43 43 33 34 32 27 24 19 18 17 15 14 15 13 4 7 8 16 12 19 20 37 20 25 26 27 28 34 32 31 36 31 24 13 16 15 18 13 18 18
36 39 42 42 40 40 41 41 40 33 32 31 26 19 18 13 15 16 15 11 7 3 7 11 29 15 15 19 36 16 26 24 29 35 32 31 32 27 26 21 15 13 13 10 11 13 17
36 37 40 40 39 40 37 37 37 38 33 34 29 21 14 9 9 10 9 3 4 6 14 31 24 19 17 21 27 33 25 7 32 36 36 33 22 20 24 26 21 14 13 10 9 9 13
34 34 38 38 34 36 35 36 35 39 38 35 30 27 21 13 9 11 11 14 19 20 13 25 17 9 16 13 27 32 17 10 12 26 35 30 19 21 22 24 20 19 16 12 9 6 3
33 32 35 35 31 31 32 33 34 38 39 38 35 30 24 22 21 21 24 31 19 12 5 6 7 18 17 16 30 21 19 10 9 23 12 11 16 21 23 24 22 15 18 12 10 7 6
32 30 33 34 31 26 29 28 30 36 35 33 34 38 37 25 29 31 23 14 10 7 6 3 16 19 22 21 29 26 23 11 12 10 14 14 14 12 19 19 25 15 14 9 6 5 2
29 28 29 31 29 24 26 28 26 28 28 24 28 28 27 24 18 19 19 16 9 10 7 8 20 20 14 30 15 17 21 18 8 11 9 11 15 9 15 15 14 16 14 2 1 1 3
27 27 26 28 25 24 23 25 26 25 22 18 20 21 21 20 11 13 18 19 14 18 14 27 27 20 21 22 14 14 15 11 10 4 19 5 6 10 10 8 6 12 9 3 4 3 2
29 28 24 24 23 22 22 23 24 24 22 21 23 21 17 15 15 20 17 22 9 11 21 27 21 21 19 14 11 18 14 14 10 9 4 6 6 10 15 10 7 11 8 8 4 1 2
30 28 26 22 21 19 20 19 20 22 24 24 20 15 13 11 10 10 20 18 14 28 28 19 7 9 11 13 16 16 6 11 9 9 6 9 8 11 12 12 10 6 8 5 6 3 3
31 26 26 21 20 17 16 18 16 20 25 26 20 14 16 7 9 12 26 27 26 22 15 6 5 11 15 20 15 16 11 9 12 9 7 8 4 10 11 10 11 12 11 5 6 2 3
28 24 27 24 21 20 15 15 19 16 20 20 20 15 16 8 7 18 17 14 16 12 8 3 5 8 12 18 16 15 11 3 14 9 9 8 4 7 10 7 8 14 14 14 5 5 5
27 23 24 27 23 21 18 16 15 17 15 16 14 11 14 9 8 11 12 13 11 7 4 3 4 8 9 11 9 16 11 8 9 10 5 8 4 7 3 6 11 13 17 17 15 8 8
28 26 22 23 27 24 20 17 15 15 14 12 13 7 9 7 10 7 6 5 4 5 6 4 4 4 8 9 7 14 12 11 9 12 14 8 6 4 5 2 4 8 13 17 19 10 8
28 29 25 24 27 27 23 15 16 13 11 10 9 6 5 4 4 8 9 8 2 4 5 4 8 7 8 8 9 7 17 11 12 8 16 14 6 7 9 9 11 10 8 13 23 24 11
27 29 27 30 27 27 25 16 14 13 10 8 7 5 3 2 2 2 2 5 6 7 2 6 2 6 7 2 4 1 11 13 11 14 15 19 7 5 5 11 14 16 16 17 16 19 25
28 32 32 31 30 27 26 18 13 12 10 9 9 10 8 6 4 2 1 1 5 6 8 10 11 5 4 1 1 4 10 1 1 4 14 12 13 4 3 4 7 13 13 19 22 19 14
31 31 31 32 33 28 26 21 13 13 9 8 10 12 12 12 9 8 7 5 4 3 4 7 6 5 4 5 6 8 5 5 3 2 8 13 9 6 4 3 1 4 4 3 6 7 8
32 30 31 32 32 27 24 19 14 12 9 9 9 10 15 17 16 15 13 12 9 7 5 7 7 6 6 5 6 5 5 5 12 6 8 13 9 3 2 4 10 8 9 5 5 5 9
30 28 27 25 23 21 17 16 14 12 11 9 10 9 8 13 16 18 19 18 16 14 12 10 11 12 10 10 8 5 5 5 7 7 13 12 14 11 5 2 3 2 9 12 6 9 12
25 23 23 22 21 20 17 14 14 12 12 11 11 11 11 9 9 14 16 19 21 20 17 13 14 14 16 16 15 10 8 7 6 8 10 16 16 18 13 6 8 9 10 12 5 7 5
22 23 21 21 21 18 14 12 14 15 13 14 14 13 14 14 13 15 16 18 22 23 22 17 15 20 19 19 13 11 12 12 10 8 9 15 12 11 13 7 10 10 15 9 7 3 5
23 23 24 24 20 16 10 12 14 18 17 15 16 16 17 18 14 17 16 17 21 25 26 25 23 11 16 13 17 12 13 9 14 7 16 13 12 7 11 4 6 8 12 11 9 5 6

GFSGBSN_700_spd_045.txt.gz
Wind_Speed
38 38 35 37 36 36 37 39 39 39 33 28 28 27 26 24 18 12 9 7 6 8 12 17 20 26 25 21 31 21 41 27 34 28 33 31 29 31 26 27 22 34 13 25 21 31 34
38 39 36 38 35 35 34 36 37 39 31 33 34 30 28 20 14 8 7 6 4 8 7 11 16 18 23 21 24 21 35 29 32 31 34 32 30 27 19 16 24 23 18 17 22 28 23
37 39 39 39 36 33 33 37 41 40 32 36 36 31 26 18 12 8 8 8 4 9 9 7 11 13 21 19 17 27 22 40 28 31 33 30 22 27 21 17 23 9 23 13 21 25 23
37 39 38 39 33 32 35 37 38 40 36 36 34 31 26 21 11 10 8 7 6 9 12 8 8 13 25 15 22 36 22 31 32 29 30 28 24 26 17 18 16 19 18 21 20 25 27
36 38 37 38 31 32 34 34 37 40 42 43 35 31 22 10 5 9 8 8 9 11 10 7 6 11 9 18 29 34 24 21 25 30 29 27 27 28 20 19 16 20 18 25 17 24 24
37 37 36 36 31 31 32 32 32 37 47 52 43 30 21 12 7 5 7 8 9 11 3 5 5 6 9 15 28 39 29 22 27 30 29 30 24 32 22 24 26 25 28 23 25 17 27
36 36 35 33 31 30 30 31 33 33 43 48 46 38 22 14 8 4 5 5 5 3 6 7 7 5 15 20 27 40 29 25 22 31 34 31 26 37 36 32 21 18 23 19 19 22 14
36 34 34 31 29 28 29 29 30 28 41 46 42 46 30 17 11 3 2 1 3 6 5 8 10 10 22 29 24 24 25 24 32 36 29 31 33 26 23 22 22 11 19 22 13 20 25
35 35 33 29 27 27 28 28 29 28 34 38 39 38 39 36 23 13 9 8 6 7 6 14 14 18 21 22 21 20 32 29 28 32 35 35 28 25 23 24 22 17 17 19 10 17 15
34 34 32 27 26 25 26 27 29 27 31 33 34 31 32 30 29 26 24 21 17 14 12 17 17 14 20 18 16 22 24 24 30 33 31 23 15 27 24 23 22 18 15 15 12 10 10
32 33 32 29 24 23 24 24 27 29 30 30 30 27 22 20 19 16 14 7 11 6 2 3 10 15 16 13 17 8 15 24 32 39 27 15 26 22 21 21 19 12 18 12 12 7 4
33 32 34 28 21 22 21 23 25 28 31 28 26 27 21 11 7 8 9 10 10 6 8 13 14 17 14 13 8 14 9 14 30 35 20 21 27 23 20 21 19 14 16 10 7 3 5
34 31 32 25 23 19 20 20 22 26 28 27 26 25 21 11 10 13 11 10 7 10 7 13 14 15 12 14 19 12 14 13 13 12 20 27 26 23 27 24 22 18 17 6 5 4 4
26 29 31 24 25 18 18 19 19 22 24 25 25 23 19 12 11 13 10 13 13 13 17 15 14 11 12 15 13 8 10 9 7 16 17 7 5 24 27 31 23 22 21 4 6 6 7
26 28 29 25 23 25 20 19 19 17 20 20 20 22 18 13 16 9 7 11 5 9 11 10 8 8 10 5 8 7 5 5 7 8 3 5 6 9 23 29 27 29 15 9 2 2 2
28 27 28 27 22 24 25 23 19 18 15 17 16 17 17 16 13 10 4 10 9 13 13 6 2 4 8 6 4 6 5 7 11 10 7 7 9 6 11 16 21 22 18 6 4 4 5
24 26 29 26 22 23 25 26 25 17 14 14 14 11 13 11 10 3 6 14 13 12 5 3 2 3 5 5 7 3 2 7 8 7 5 10 4 9 10 7 7 7 7 7 4 3 3
26 28 28 26 22 24 24 28 25 20 14 11 11 8 9 5 4 3 6 14 14 5 5 5 3 5 6 8 7 4 4 4 9 8 4 5 5 7 7 13 14 14 10 12 6 6 4
23 26 27 28 29 27 26 26 23 21 16 8 9 6 5 6 2 3 6 8 8 4 3 5 2 3 5 8 3 6 7 7 9 10 4 7 2 5 2 7 15 17 18 13 10 6 8
26 27 31 33 31 29 26 24 23 18 17 9 7 5 3 3 1 2 5 8 6 6 4 2 1 3 5 5 5 6 7 8 8 10 9 8 6 7 3 2 5 13 18 18 18 10 8
23 28 34 33 32 30 28 25 21 15 16 8 7 7 5 3 2 3 3 4 9 7 9 5 4 4 4 2 4 3 7 11 10 10 9 9 7 11 8 6 5 5 10 17 25 24 12
28 31 35 32 32 32 28 25 20 13 13 9 7 9 9 7 6 3 3 3 1 2 6 6 6 7 6 3 4 6 7 9 7 11 7 13 7 10 11 12 12 16 17 16 17 22 24
30 34 34 32 31 29 26 24 20 13 11 13 9 11 12 10 10 6 6 5 4 2 2 5 5 5 4 6 8 7 7 8 7 7 10 9 10 7 3 7 9 15 21 25 23 22 21
29 32 32 29 28 26 24 22 20 15 12 12 11 9 14 14 13 13 9 9 7 4 4 6 7 4 5 6 5 6 7 6 6 7 8 9 10 7 3 2 4 8 8 8 22 21 22
33 32 30 26 26 27 26 22 19 16 12 12 11 10 10 14 16 16 15 13 10 9 7 8 7 4 3 6 5 3 2 3 8 7 7 10 9 3 3 7 13 12 12 8 6 9 20
29 26 24 22 24 25 25 22 18 14 13 13 13 11 10 9 14 18 18 18 14 11 12 12 11 11 8 6 5 5 5 4 4 4 14 11 11 8 5 4 4 2 6 9 4 5 10
24 20 18 21 22 24 24 21 19 13 12 13 14 13 12 12 12 11 16 19 21 19 14 15 15 14 13 11 10 7 7 7 6 7 8 13 12 16 12 7 10 9 5 8 6 6 16
22 20 22 23 23 21 19 18 16 15 13 13 14 17 18 16 15 13 13 13 17 21 18 18 15 19 18 16 10 11 11 10 10 8 9 14 9 10 13 8 9 8 11 9 11 10 15
18 19 21 22 23 20 16 16 15 15 15 13 13 13 17 22 20 15 14 14 16 19 21 25 21 11 14 11 14 10 11 9 10 9 14 11 13 8 11 7 14 9 10 17 13 8 10

GFSGBSN_700_spd_048.txt.gz
Wind_Speed
37 36 38 35 35 31 33 33 33 40 44 40 38 40 32 30 24 14 10 7 3 5 8 9 13 16 21 20 23 14 37 35 34 28 32 31 30 32 32 34 21 32 17 18 24 18 25
39 37 38 35 34 31 32 33 31 42 45 43 34 35 31 25 17 8 4 5 4 5 5 7 7 12 16 14 19 19 29 37 33 29 28 29 29 25 21 9 28 22 23 11 23 26 27
38 38 36 35 33 30 31 32 30 41 45 45 44 34 25 20 11 5 5 6 5 4 7 6 6 8 14 13 14 25 25 36 28 25 26 27 26 22 16 19 12 9 23 19 24 25 27
38 39 34 34 31 29 30 30 32 37 45 46 49 37 24 18 8 4 4 6 7 6 9 7 5 8 15 14 19 31 21 37 29 29 25 26 30 26 16 22 16 22 17 21 27 20 23
38 37 35 33 31 28 31 31 33 38 44 47 48 42 25 18 8 0 3 4 8 9 11 4 3 5 2 12 18 32 31 29 30 29 25 26 33 30 21 22 15 17 17 24 19 28 27
38 38 35 33 29 27 29 32 33 37 42 45 46 45 24 21 13 4 3 5 7 11 4 2 2 4 6 8 15 28 31 29 30 30 26 28 30 30 27 20 23 27 29 22 26 23 29
39 38 33 33 28 26 28 31 32 36 37 39 41 41 31 22 18 11 6 4 3 4 2 2 3 7 14 13 23 31 27 28 26 40 29 32 31 42 39 36 20 13 19 18 19 21 21
38 37 34 32 26 24 26 28 30 32 34 31 31 31 30 26 23 19 14 10 6 8 6 1 2 5 18 20 27 20 22 28 27 39 32 32 33 31 27 21 19 13 15 23 11 25 21
38 38 35 33 27 24 23 26 27 31 33 28 25 22 23 21 20 26 27 19 13 13 10 10 8 14 18 27 25 24 27 21 29 31 27 24 21 20 23 23 21 23 16 19 17 13 19
33 38 34 32 28 23 21 22 24 28 32 29 25 21 14 16 17 15 22 20 15 11 10 14 10 14 16 13 17 14 26 18 27 28 22 16 10 26 24 26 23 22 14 13 18 10 5
31 33 30 30 26 23 22 20 22 25 28 29 25 23 18 12 15 15 17 15 8 1 3 5 7 17 6 4 15 12 18 15 20 26 22 14 22 31 27 26 23 16 20 17 14 12 9
31 28 28 27 26 24 23 23 22 22 25 26 26 22 21 17 18 18 12 10 10 6 7 8 12 13 9 9 11 12 13 9 19 26 28 17 21 17 32 22 22 17 19 14 10 6 4
30 27 28 27 26 24 23 24 24 22 22 23 24 20 17 17 20 17 12 6 8 9 6 7 8 13 15 11 10 8 5 16 14 25 22 19 24 26 18 19 24 24 21 6 3 3 4
26 28 28 27 25 25 25 24 25 23 21 20 20 22 17 14 18 14 8 13 10 12 14 12 10 9 9 18 14 6 14 18 15 24 23 6 11 24 25 22 14 20 22 5 5 4 4
21 27 25 29 25 22 25 27 23 24 20 18 18 17 17 13 16 12 5 8 6 10 12 11 6 5 6 2 9 6 8 12 11 15 9 6 4 22 17 27 20 23 22 12 3 3 4
22 25 29 28 27 25 25 27 27 24 20 16 14 15 15 14 12 13 2 7 9 11 11 3 1 4 5 8 7 5 3 6 9 9 6 6 8 9 23 27 27 24 21 9 7 2 4
21 24 27 27 28 28 28 27 28 23 20 15 12 13 13 9 10 6 4 7 13 8 4 5 3 3 5 5 8 4 3 8 9 8 9 8 3 7 12 13 26 28 25 10 6 5 2
19 24 27 30 30 28 28 26 27 23 18 15 12 9 10 9 4 5 2 9 11 5 6 5 6 9 5 7 7 4 7 7 11 10 5 4 6 8 5 7 9 18 21 18 5 5 5
20 21 25 31 30 27 27 27 24 23 19 12 10 8 6 6 4 4 3 7 5 3 4 4 2 4 8 8 3 6 7 6 11 11 8 6 5 8 3 6 15 16 15 16 13 9 7
21 21 25 29 33 28 27 25 23 20 15 12 7 5 5 4 1 2 2 4 5 5 3 1 2 4 6 5 5 5 6 8 9 9 8 8 8 6 5 4 5 17 24 22 20 11 6
25 26 27 30 32 28 26 24 22 19 12 9 7 6 7 3 5 4 6 5 6 7 8 4 3 5 5 2 3 2 8 7 9 7 8 8 6 10 8 6 6 6 11 21 27 27 14
27 25 27 31 33 28 26 24 23 21 13 9 7 8 8 8 5 4 2 4 3 6 6 3 5 4 6 3 4 5 6 4 7 11 10 10 7 7 10 13 13 15 15 16 21 26 27
24 26 30 32 31 26 25 24 21 19 15 12 9 9 10 10 8 6 6 5 4 2 2 6 5 4 5 8 9 7 9 9 5 7 9 6 6 4 2 5 8 14 22 24 25 23 22
24 30 32 30 27 25 25 25 23 20 16 12 12 9 9 11 11 7 13 12 9 6 2 3 6 5 7 7 6 6 5 8 10 10 9 8 7 5 3 3 2 5 8 10 14 23 23
29 27 26 26 25 25 25 26 24 19 16 12 12 11 9 9 16 17 18 13 11 8 6 7 6 3 2 5 4 2 1 2 6 8 9 9 10 4 3 6 14 13 13 9 6 9 14
23 22 22 22 23 24 24 24 22 18 15 13 11 12 10 9 13 14 17 15 13 10 8 10 9 9 4 5 3 3 3 4 3 3 11 11 11 9 7 3 4 4 7 6 7 9 9
18 17 18 20 22 22 23 23 21 18 13 12 11 12 13 14 13 12 13 17 19 17 12 9 12 12 11 9 9 9 8 5 5 6 6 16 13 17 13 7 10 11 11 6 5 4 4
17 18 20 22 23 23 21 21 21 19 14 13 12 12 14 16 19 15 15 13 14 19 20 15 12 14 14 15 9 10 9 10 9 9 9 14 10 10 14 6 9 6 9 9 7 4 4
18 19 20 22 22 22 21 19 20 21 17 15 14 14 17 16 16 17 24 16 15 15 18 23 17 10 15 10 12 8 11 8 12 6 15 11 15 9 11 7 11 10 9 11 15 6 6

GFSGBSN_700_spd_051.txt.gz
Wind_Speed
36 37 35 32 31 29 30 32 32 35 40 46 49 47 30 24 19 13 5 4 1 3 9 7 7 9 17 14 22 13 18 37 38 29 33 28 33 33 34 35 32 36 23 26 23 26 27
37 38 36 33 31 28 31 31 32 34 40 43 47 43 29 24 19 6 2 3 2 3 7 7 6 5 10 11 21 21 29 44 35 33 36 32 31 30 30 27 30 32 24 19 19 27 19
36 40 38 33 31 27 30 31 32 33 38 40 41 40 30 22 14 8 2 2 1 4 7 8 7 4 7 6 16 24 24 41 36 29 36 33 28 28 20 17 23 5 29 23 16 20 25
37 40 38 34 30 27 29 30 31 32 35 36 36 39 34 25 12 6 1 2 4 7 10 10 6 5 2 7 18 24 28 37 41 36 31 27 30 23 20 18 20 15 15 27 30 19 20
37 39 37 35 30 26 27 29 31 32 32 31 31 33 39 31 15 7 5 4 4 7 10 5 4 1 8 13 13 18 24 32 30 37 38 32 35 31 20 24 22 20 16 29 25 37 31
35 38 37 33 31 25 25 27 29 31 31 29 26 26 38 40 22 11 7 6 9 8 2 4 4 6 10 13 17 22 25 26 29 27 37 36 35 35 27 32 33 38 30 29 29 33 35
33 35 36 31 30 25 23 25 27 29 31 29 25 24 24 33 36 24 14 8 7 4 3 6 7 1 13 14 19 30 20 36 28 39 40 38 40 45 39 32 15 20 25 17 24 20 23
33 32 33 31 29 27 23 23 26 29 31 30 26 21 20 25 31 28 23 19 15 12 9 9 8 2 11 15 23 30 25 23 21 26 38 37 38 37 30 26 18 15 12 25 15 20 25
32 33 31 30 30 29 25 24 24 26 28 30 27 21 18 20 26 25 18 18 17 17 15 14 12 10 10 15 27 21 17 22 16 27 28 27 26 33 29 28 24 23 16 17 20 14 26
30 30 30 29 30 27 27 24 25 24 26 27 27 20 17 17 22 21 18 11 8 12 9 15 8 7 13 22 7 19 20 17 23 23 24 17 13 26 26 27 24 20 17 11 18 19 15
27 27 29 29 29 27 25 26 26 25 24 24 25 22 17 17 19 18 15 13 7 7 5 8 7 9 13 11 10 24 26 19 29 29 17 11 15 27 25 26 21 16 13 15 16 16 10
24 25 28 25 28 27 25 24 25 26 24 22 24 23 19 16 17 15 9 9 8 6 5 8 7 3 9 14 15 18 12 20 24 23 11 13 23 22 26 26 23 14 19 16 14 10 4
21 22 25 25 27 26 25 28 26 25 24 20 21 20 20 16 15 12 8 5 8 8 5 3 9 7 16 16 19 15 13 16 15 16 16 13 16 20 25 23 26 20 20 4 0 2 6
22 21 24 26 27 24 24 26 23 23 24 19 16 19 19 17 17 14 10 15 12 5 6 9 12 15 13 15 13 9 11 15 14 19 21 14 6 17 20 27 26 25 25 9 6 4 5
20 20 22 25 26 29 27 25 26 23 21 18 13 15 14 14 12 10 7 8 10 11 9 7 6 6 6 7 9 4 12 16 17 21 11 10 10 22 21 19 19 30 26 10 3 5 2
19 18 22 24 27 29 29 25 26 22 19 17 12 10 9 10 11 10 5 6 11 12 9 4 3 2 6 11 8 4 3 5 10 21 20 10 6 21 21 26 23 21 26 11 8 2 4
19 19 21 24 28 29 29 26 24 22 16 14 11 9 8 9 7 8 5 11 15 8 6 4 6 4 8 6 9 5 3 7 9 13 13 12 5 10 18 21 27 23 24 13 11 6 3
18 19 21 23 27 30 29 27 24 22 16 13 10 6 6 5 4 4 7 16 10 7 5 6 10 10 9 9 6 4 9 7 12 10 11 9 7 8 11 8 22 32 25 25 11 7 6
19 21 22 24 26 30 30 26 26 25 18 10 7 6 5 3 2 2 5 9 5 5 4 4 5 9 10 12 7 7 9 9 16 13 13 10 8 9 4 3 9 21 30 31 22 9 10
19 22 22 22 26 29 30 24 23 23 18 11 7 4 4 2 2 2 3 2 5 3 2 2 4 6 11 11 7 9 11 10 15 12 11 10 10 7 12 4 9 20 24 25 35 14 11
21 23 22 24 27 28 24 23 22 21 18 12 7 4 5 4 4 5 5 3 5 5 5 4 5 7 8 3 5 5 7 11 13 13 13 12 10 12 9 7 7 8 18 25 27 30 16
22 20 22 24 25 23 21 21 21 18 16 12 6 5 6 6 2 4 3 1 3 6 8 6 8 7 10 5 7 8 6 8 10 14 13 13 7 11 12 13 13 15 15 18 31 32 33
20 22 22 22 22 23 22 22 22 20 16 14 9 6 7 8 8 8 7 4 3 3 1 5 8 8 12 10 9 8 6 6 4 7 13 11 9 8 5 8 9 15 24 28 25 27 29
21 21 22 21 21 23 24 24 22 21 18 15 10 6 6 10 12 14 14 12 11 6 3 6 8 9 7 10 9 9 10 12 11 8 7 8 5 5 3 4 2 4 4 6 13 17 27
20 18 19 20 20 21 23 24 22 18 17 15 11 8 7 9 13 16 16 14 10 10 8 7 9 6 4 5 6 4 3 3 8 11 14 11 10 4 3 7 16 12 8 10 11 12 13
16 15 17 18 20 24 24 24 22 19 17 15 14 11 8 9 9 10 15 16 15 14 13 10 9 8 6 8 5 5 5 5 4 3 11 14 10 11 7 4 4 2 3 6 7 13 10
12 13 14 18 23 25 23 24 23 20 18 17 16 14 12 11 11 12 12 12 15 17 15 12 11 12 12 11 10 8 8 5 5 7 8 14 14 16 12 6 11 7 9 7 5 4 4
12 13 17 20 22 24 25 24 22 22 19 17 16 16 16 14 12 12 18 13 13 16 19 14 11 12 13 15 10 10 9 9 10 9 8 10 12 10 13 7 10 2 4 7 6 6 3
11 15 17 19 22 24 24 25 24 23 22 21 18 18 18 15 15 16 12 17 16 17 17 22 16 9 16 11 14 7 10 7 10 6 15 10 12 8 11 5 6 5 9 8 7 9 4

GFSGBSN_700_spd_054.txt.gz
Wind_Speed
33 34 32 30 28 25 24 24 24 25 28 30 31 37 38 29 21 13 6 3 3 3 7 6 5 7 11 19 17 15 35 47 50 34 27 32 37 36 34 35 34 34 31 34 30 33 31
32 33 32 30 29 26 24 25 26 28 30 30 28 35 38 28 18 13 6 5 2 4 8 9 8 4 8 6 21 17 24 40 53 28 30 31 36 32 32 35 36 34 17 26 28 26 29
32 33 34 32 29 25 23 25 26 29 31 30 26 33 38 30 19 11 4 3 2 5 9 12 9 6 1 5 11 19 30 40 48 40 34 29 30 30 29 25 29 14 24 24 29 29 25
32 34 34 30 28 25 23 24 26 29 32 29 25 27 35 30 21 11 5 3 4 8 11 12 6 1 5 8 21 15 27 44 51 39 29 27 27 25 24 20 26 14 32 25 26 27 22
32 34 34 30 26 26 23 24 27 29 31 31 28 23 28 31 26 13 7 4 4 8 9 5 3 2 6 8 13 22 25 43 43 37 31 32 34 29 30 22 30 23 27 33 28 28 28
31 34 32 29 28 27 25 25 26 28 30 31 29 22 22 26 27 20 11 7 8 7 5 5 5 5 10 9 9 21 29 42 35 42 37 38 39 32 33 31 36 37 31 37 32 35 29
29 32 31 29 28 26 26 25 26 27 27 29 28 23 20 21 19 24 21 15 14 11 6 9 5 3 8 12 11 18 36 25 38 40 41 44 44 45 38 35 13 26 27 27 32 22 34
28 30 30 27 26 25 25 25 25 27 26 27 28 23 19 19 16 16 17 19 19 16 16 14 9 6 8 12 11 12 13 23 35 43 41 43 39 39 34 31 22 24 25 21 20 19 22
27 28 29 29 24 24 24 24 25 26 26 24 25 22 19 18 17 12 10 15 15 18 19 17 13 9 4 7 8 24 10 16 27 35 36 32 30 36 34 32 19 21 19 24 18 21 26
25 26 27 26 23 23 23 23 26 26 26 24 22 22 17 17 17 13 13 7 7 13 10 13 7 6 10 14 13 18 15 17 25 37 32 20 22 35 33 30 24 19 15 10 16 17 17
24 23 25 24 24 25 23 25 25 26 25 24 20 21 18 14 11 11 11 8 7 6 5 4 10 8 15 8 15 3 11 16 30 35 20 15 23 32 31 28 22 19 15 9 8 20 16
22 22 23 24 24 24 24 25 23 24 25 23 19 19 18 14 9 7 6 9 7 4 3 3 7 7 13 3 7 16 12 15 28 25 15 21 23 25 26 25 23 19 13 10 12 16 6
21 21 21 22 24 25 26 25 26 23 22 23 18 15 16 12 9 7 5 4 6 8 3 7 13 14 10 14 17 18 14 24 15 15 14 18 23 22 27 26 23 17 19 3 1 3 8
19 20 20 21 23 27 28 25 25 25 20 17 18 13 12 11 7 10 8 4 8 8 9 11 15 16 15 15 11 13 14 19 18 16 19 14 9 21 24 25 24 24 25 7 7 4 4
18 19 20 20 22 26 28 25 22 24 22 14 13 12 9 9 6 1 2 3 6 9 12 9 7 7 5 5 6 8 12 20 14 17 12 15 9 21 19 26 24 27 26 11 2 4 1
18 18 20 20 21 25 27 25 22 22 20 13 10 9 8 7 5 3 4 5 11 14 10 7 5 3 5 10 6 5 5 13 10 19 12 11 7 17 21 21 24 30 28 13 9 3 4
19 19 21 21 22 23 25 25 20 20 19 11 9 6 6 6 2 3 2 9 16 11 10 5 6 7 8 6 8 5 3 5 5 20 17 13 7 15 21 21 21 24 27 18 11 6 4
18 19 21 19 21 23 24 23 18 19 18 12 8 5 6 5 2 2 6 13 10 8 7 8 10 10 9 7 4 2 6 4 9 18 17 12 7 7 19 16 22 27 24 33 13 8 11
19 19 19 19 20 22 22 19 18 17 17 12 7 7 6 3 2 2 12 7 6 6 7 9 12 12 12 11 5 7 6 6 11 13 11 8 3 8 4 10 13 25 33 32 32 17 20
19 18 18 18 19 19 18 18 18 17 17 13 7 5 6 4 4 4 6 9 7 6 4 4 7 11 14 16 12 8 10 10 15 11 11 8 7 7 11 2 10 21 30 36 37 23 25
17 15 16 16 16 17 16 17 18 18 17 15 8 3 5 6 7 7 7 6 8 8 7 8 7 8 13 11 11 9 10 12 18 17 14 12 9 14 11 8 7 8 17 26 40 40 24
15 13 15 15 14 14 15 17 19 19 17 16 10 5 6 7 8 9 9 7 7 9 8 10 10 12 11 8 9 7 7 11 15 18 17 16 9 11 14 15 14 16 15 18 28 33 34
12 13 14 13 12 13 17 19 20 19 15 16 13 6 7 9 11 12 11 8 8 8 6 8 12 12 13 9 7 6 6 7 6 10 15 14 10 8 4 11 14 19 27 30 29 29 31
12 13 13 12 11 14 17 19 20 20 18 17 15 10 6 10 12 14 14 12 9 8 7 11 11 11 14 13 11 10 10 10 9 10 10 11 12 6 3 4 2 10 10 10 15 26 33
12 11 11 11 12 17 17 18 19 20 20 17 16 12 6 7 9 13 15 16 14 13 11 9 12 13 10 11 11 7 8 10 12 12 11 10 10 5 4 7 19 16 10 11 13 16 15
8 9 9 12 16 15 16 18 20 22 20 19 19 15 11 7 7 11 13 17 16 15 15 14 14 12 9 10 8 6 7 5 6 5 16 15 12 13 7 4 5 3 2 3 9 16 9
7 8 9 11 13 14 16 18 20 22 22 21 22 21 16 10 9 11 15 13 12 15 16 15 14 15 14 15 13 8 7 6 5 7 8 16 15 18 15 8 11 7 7 8 4 5 8
7 6 9 11 12 13 15 18 18 19 22 22 23 22 20 15 15 15 14 16 16 15 17 17 14 16 16 16 13 11 10 10 12 9 8 13 13 12 15 8 9 3 3 6 7 10 9
3 6 8 10 11 13 15 17 18 19 20 21 22 21 19 14 14 16 16 17 15 18 17 22 17 14 16 13 14 9 10 7 10 6 16 12 16 8 11 6 4 5 6 10 8 8 7

GFSGBSN_700_spd_057.txt.gz
Wind_Speed
31 33 35 29 25 22 19 20 22 26 29 29 29 30 33 31 23 18 12 6 4 6 8 9 7 5 9 14 17 12 36 36 45 41 33 35 38 33 30 35 33 36 42 40 39 39 36
31 31 34 29 26 23 20 20 22 26 31 31 29 28 31 30 23 15 7 4 2 5 10 12 8 6 5 8 16 24 30 37 47 42 37 36 38 31 27 30 29 25 22 30 30 27 23
30 30 33 29 25 24 22 21 21 24 29 31 28 25 28 28 23 14 6 6 7 7 9 12 8 6 4 8 13 23 27 36 49 46 35 36 32 32 29 25 29 19 20 22 26 27 26
30 30 31 28 26 24 25 23 24 23 26 29 29 25 23 25 23 14 8 6 7 9 11 9 6 5 5 9 12 17 21 31 47 45 30 32 34 32 28 23 33 13 16 20 23 27 30
29 29 30 29 26 24 24 23 24 25 23 28 29 26 20 21 22 16 11 6 6 7 5 6 5 2 2 5 14 11 28 33 39 33 31 29 33 27 27 20 28 27 24 25 21 24 25
28 29 29 29 25 24 24 23 24 24 25 25 27 26 20 18 18 16 13 8 6 6 8 5 5 2 3 5 5 7 26 37 43 32 27 33 33 29 29 30 38 34 33 34 29 30 30
26 28 29 28 23 24 25 24 23 25 24 23 26 26 21 17 13 13 15 10 10 12 9 10 6 5 5 4 8 12 28 36 42 33 32 30 36 40 36 35 18 23 30 31 27 28 30
25 26 27 27 22 23 25 25 22 23 23 24 22 24 22 16 14 7 12 14 17 16 21 15 10 5 4 6 8 16 26 32 40 39 32 34 39 35 33 26 12 25 24 22 24 14 28
24 24 25 26 25 24 24 24 24 22 22 24 21 22 23 17 13 10 4 7 5 11 12 15 12 9 7 4 4 18 26 15 41 38 27 39 33 33 33 23 23 21 23 24 20 27 18
22 22 22 25 24 24 24 25 25 23 21 21 20 19 21 18 13 10 7 5 2 7 6 13 8 7 10 8 5 26 6 14 26 35 28 27 26 34 31 24 24 18 16 17 12 17 19
20 20 21 22 24 24 25 25 23 22 20 17 16 17 17 17 11 9 9 4 3 3 4 5 10 11 13 7 16 11 9 10 31 38 23 20 25 35 31 29 19 14 14 8 16 16 15
20 18 20 21 22 24 24 26 24 21 21 17 15 13 14 14 10 5 6 7 3 3 3 7 5 10 9 9 9 2 20 22 29 34 18 26 25 30 29 28 24 14 13 8 7 11 8
20 17 20 20 21 23 24 25 25 21 22 18 11 10 12 11 8 4 5 4 4 5 3 6 10 9 6 8 8 16 8 21 24 22 24 20 23 26 26 25 23 18 12 3 1 3 5
20 18 21 21 21 23 26 25 23 22 21 17 12 9 9 9 7 5 4 4 4 5 6 12 13 14 14 11 13 10 12 13 29 15 24 13 12 27 25 26 22 23 21 7 6 4 4
20 18 21 22 22 22 24 23 23 20 20 15 11 8 8 8 7 7 5 3 4 10 14 9 12 11 6 6 6 9 13 14 17 20 6 13 11 26 17 27 25 25 24 17 1 1 1
19 18 20 21 21 20 23 23 20 18 18 16 10 8 7 7 8 6 2 2 8 9 11 7 2 5 6 8 10 10 13 15 15 16 16 11 7 24 21 28 27 20 28 14 10 3 4
18 19 21 20 20 20 22 21 14 17 16 15 9 9 8 7 7 5 2 4 11 11 7 6 4 5 10 7 5 5 7 9 16 16 16 11 8 13 21 22 31 31 22 20 11 12 5
17 19 20 20 18 17 19 17 13 16 15 13 10 8 9 9 6 4 3 12 10 10 8 6 7 7 9 10 7 4 3 3 10 18 22 14 8 7 15 19 21 25 32 29 17 9 15
17 19 19 19 16 15 16 15 13 13 14 13 11 10 9 6 4 1 8 7 7 5 5 7 8 8 9 10 7 7 6 5 10 20 18 19 6 6 8 18 25 28 31 35 34 19 21
17 19 19 17 14 14 13 13 12 12 12 13 11 8 8 7 9 4 6 9 7 6 5 6 9 12 10 13 10 8 9 11 10 11 12 10 7 9 12 4 13 29 32 31 31 24 28
16 17 18 16 12 11 11 13 14 12 11 12 9 8 8 6 8 7 7 6 10 9 8 7 7 9 12 12 14 11 9 9 15 16 13 12 7 10 14 10 9 11 14 23 35 44 25
15 16 16 13 11 10 10 13 17 15 11 12 11 8 9 10 8 10 9 10 8 10 11 9 10 9 11 11 10 4 8 10 11 18 16 15 8 8 11 14 16 18 17 19 22 27 36
15 16 13 10 10 10 13 16 12 12 11 12 13 10 6 9 11 12 12 11 10 9 8 10 11 11 12 9 7 7 6 6 8 14 15 18 14 10 5 9 12 19 26 29 30 30 29
14 15 11 8 10 12 14 12 10 10 11 11 12 12 9 7 11 13 15 12 10 8 9 6 8 11 10 11 10 9 7 8 7 8 11 9 11 10 5 6 3 6 9 12 17 18 23
15 11 7 8 10 11 12 13 11 10 10 11 12 13 10 8 8 13 15 17 15 13 11 9 10 10 8 10 10 7 9 9 12 11 10 9 8 4 3 4 19 21 14 10 13 17 14
15 7 4 7 8 9 11 12 12 11 11 13 13 13 11 10 6 10 14 16 18 18 15 13 11 12 14 9 10 6 5 4 5 4 12 12 12 11 5 2 4 2 1 5 9 11 8
11 5 5 5 6 8 10 11 12 13 12 12 12 12 12 10 9 9 11 13 13 14 17 16 15 15 12 13 12 8 6 5 4 6 8 15 15 17 15 7 12 7 9 10 4 6 11
9 6 3 2 4 6 8 10 11 13 13 13 14 14 12 11 14 10 10 12 13 15 15 17 16 17 17 16 13 11 8 9 10 8 7 13 12 12 13 8 9 4 3 4 7 12 12
10 7 3 1 2 5 8 9 12 14 15 15 15 15 13 10 13 10 11 14 13 14 18 19 20 17 18 12 15 9 9 6 10 5 15 10 13 6 10 5 5 4 7 11 12 8 13

GFSGBSN_700_spd_060.txt.gz
Wind_Speed
27 31 31 30 27 23 22 22 21 23 26 28 30 27 25 26 27 21 14 9 5 7 9 9 9 7 6 10 13 10 19 37 28 41 35 30 34 35 37 38 38 39 36 37 38 38 39
27 30 31 30 27 23 23 24 23 23 25 27 29 26 23 24 25 21 13 9 7 8 12 11 10 8 6 9 14 17 15 39 28 43 35 33 33 29 30 33 34 34 33 31 32 40 46
26 29 30 31 28 24 23 23 22 23 24 26 27 26 21 21 22 19 15 12 11 10 12 13 8 9 8 11 13 17 23 37 31 48 34 32 30 31 28 25 28 21 28 30 32 27 31
26 28 29 30 28 24 23 21 23 24 24 25 25 26 21 20 20 19 15 13 12 11 11 10 6 8 9 10 9 15 24 36 32 45 36 30 31 29 22 21 25 16 19 22 21 27 30
26 26 28 29 28 24 25 24 23 24 24 26 25 25 22 19 15 18 15 12 10 8 8 7 6 5 6 7 10 9 20 38 34 45 34 30 33 27 23 23 28 23 21 27 21 23 20
25 25 26 27 28 25 25 26 23 23 23 24 24 22 22 17 14 15 17 11 11 9 11 5 7 4 7 10 2 7 27 38 42 46 37 33 38 28 27 30 37 27 18 26 23 29 27
24 24 24 26 27 27 24 25 25 23 21 23 25 21 21 16 14 9 14 13 14 17 16 12 11 9 11 12 4 19 21 32 38 41 35 38 41 38 33 31 21 31 27 22 18 16 30
23 24 23 24 26 26 25 25 27 26 23 22 25 21 20 16 12 9 9 9 11 13 13 15 11 9 9 10 10 16 25 34 29 41 24 38 35 33 32 29 10 16 22 18 22 11 19
21 23 22 23 24 26 25 26 26 27 24 21 21 20 19 18 11 9 8 6 5 7 9 13 12 9 7 9 8 10 21 29 22 24 32 34 30 32 27 26 15 14 19 20 17 18 17
20 21 22 22 24 25 27 28 26 24 24 23 18 20 17 17 12 8 5 6 2 4 4 13 6 5 9 10 10 15 18 25 20 18 22 21 22 31 24 20 22 10 14 16 14 15 17
20 19 20 22 24 26 26 28 28 25 24 23 17 19 15 16 13 8 6 5 4 1 3 7 9 10 15 13 17 18 24 18 29 15 21 14 21 29 25 21 20 10 9 13 13 10 12
20 18 19 21 23 25 26 26 27 25 24 23 17 15 14 14 13 9 7 4 5 1 1 4 3 10 9 13 12 4 9 12 23 20 18 20 23 25 27 21 14 12 12 8 6 12 5
21 19 18 21 22 24 26 26 26 24 21 22 16 12 13 11 11 10 8 6 3 3 4 5 2 6 4 6 9 12 19 22 14 16 25 22 21 25 26 24 21 11 13 4 1 1 4
22 20 18 21 22 23 25 25 25 22 20 21 16 12 12 10 10 9 8 7 2 2 5 9 11 10 7 8 11 6 8 21 19 15 30 15 12 24 24 27 24 20 15 5 5 3 4
22 20 19 21 23 24 23 24 24 20 18 20 16 11 10 11 10 9 7 3 1 6 10 12 13 8 7 6 6 7 7 22 26 27 7 11 9 22 17 26 22 22 19 15 2 0 0
22 20 19 21 23 23 21 21 21 19 18 19 15 12 11 9 10 9 4 1 3 7 9 9 3 4 4 6 5 9 9 20 18 20 10 12 9 23 20 25 26 17 25 13 9 2 4
21 19 19 20 22 22 20 19 19 17 18 18 14 11 8 9 9 8 3 3 7 10 7 4 2 3 4 6 5 7 9 14 16 19 13 8 6 13 24 19 20 23 20 15 14 11 3
21 20 19 20 22 21 18 17 17 16 15 17 16 11 10 9 8 7 4 5 8 9 7 5 4 3 9 5 4 3 3 3 18 14 16 12 8 7 19 17 20 24 22 24 16 7 11
20 20 19 20 21 20 17 15 15 14 14 16 14 13 10 7 6 6 5 8 8 7 7 6 5 5 6 8 3 4 4 4 9 14 12 14 5 8 4 14 19 22 29 30 29 23 19
21 19 19 19 20 17 16 14 14 15 14 15 13 9 9 7 9 8 4 8 7 5 4 4 7 8 7 8 3 4 4 5 8 11 14 14 8 6 10 3 10 21 28 29 30 23 29
21 20 19 20 20 16 15 14 16 16 13 13 11 9 8 6 8 8 7 5 5 4 3 3 3 7 11 10 12 10 6 6 8 11 19 11 8 8 9 11 12 13 15 25 35 40 30
22 21 19 18 19 16 15 15 17 11 11 12 9 8 8 7 8 9 8 6 4 4 6 6 4 4 7 10 8 5 11 10 9 13 12 11 6 9 11 13 16 20 20 20 23 26 37
21 21 19 17 18 15 15 16 13 11 12 11 9 6 5 5 7 10 11 11 8 6 4 4 7 7 7 8 6 8 6 7 7 11 17 16 14 10 7 10 11 16 24 28 29 29 28
20 21 19 17 17 15 15 13 12 12 12 10 8 5 5 4 6 9 11 10 9 9 9 6 4 6 7 9 7 6 6 7 7 8 12 13 16 12 5 4 2 5 6 9 14 15 16
20 20 19 17 16 14 13 11 9 10 10 10 8 6 5 5 3 7 11 13 14 11 11 10 6 6 7 10 9 6 6 8 12 11 10 10 11 6 4 5 15 16 5 4 8 8 9
20 20 19 18 13 12 11 10 9 10 10 9 9 8 8 8 4 6 9 11 14 17 15 15 11 8 9 8 8 6 4 3 3 4 13 12 12 11 6 3 4 2 3 6 8 3 6
21 20 19 18 11 10 8 8 8 9 10 10 10 9 9 9 6 6 8 10 10 13 16 16 14 11 11 12 8 4 3 4 4 4 6 14 15 16 13 6 9 7 9 6 2 5 14
22 21 20 15 9 7 5 6 7 9 12 14 15 14 12 13 10 6 7 10 11 14 13 15 12 16 14 12 10 9 5 6 6 7 6 6 9 9 11 7 7 3 3 3 5 11 11
25 22 17 11 8 5 3 6 9 11 12 14 14 12 10 7 7 6 7 8 9 10 12 14 14 11 14 12 13 8 9 5 7 4 10 8 9 4 8 3 2 2 8 10 13 13 14

GFSGBSN_700_spd_063.txt.gz
Wind_Speed
25 25 27 28 28 25 24 23 23 22 24 26 25 28 26 22 23 23 18 15 14 12 13 13 13 9 7 5 11 7 18 38 27 34 34 30 33 36 34 39 42 40 35 36 29 28 29
25 24 27 27 28 26 25 24 23 22 23 27 26 27 25 21 20 23 19 16 15 16 16 16 14 11 8 7 10 15 14 25 25 35 34 29 33 30 31 32 37 35 32 29 30 24 25
27 24 25 26 28 27 24 25 25 24 24 26 27 26 26 20 18 22 20 18 14 15 15 15 12 10 11 7 7 14 17 23 37 29 32 28 27 29 29 27 32 22 25 22 23 26 33
28 26 25 25 26 28 25 25 26 26 25 24 27 27 25 21 17 19 19 18 15 12 12 10 10 10 9 4 4 14 18 20 33 37 33 22 29 25 22 20 26 20 21 25 26 25 25
28 27 26 24 26 28 27 26 27 27 26 22 26 27 24 21 17 15 18 16 15 10 9 7 8 7 5 5 3 10 18 22 32 36 36 25 31 26 22 24 23 22 22 26 26 28 29
26 28 26 25 24 27 29 26 27 29 27 24 24 26 24 22 16 12 14 15 16 13 9 4 7 5 11 14 4 7 21 28 36 38 41 30 34 28 26 27 31 28 18 19 24 24 26
26 27 25 24 25 26 28 27 28 29 28 25 22 24 23 21 16 13 9 11 13 17 11 10 8 9 14 17 8 22 29 42 31 37 37 21 38 36 31 27 18 24 18 18 18 12 24
28 28 25 24 26 26 28 29 26 27 28 25 23 23 21 20 18 12 9 6 9 11 14 13 11 10 12 15 10 19 31 32 31 44 31 26 33 31 24 18 15 18 21 22 16 12 10
23 27 25 24 25 26 27 31 29 28 27 25 23 22 19 18 17 13 9 5 5 8 9 11 9 10 9 12 14 23 27 24 29 42 26 24 28 28 26 20 15 14 22 21 16 15 10
22 25 25 24 25 26 26 29 30 29 27 24 22 21 17 17 17 12 8 6 5 6 4 10 7 8 8 13 13 17 18 22 26 33 21 17 28 30 25 25 12 14 12 15 17 15 9
26 23 24 24 24 26 28 30 31 29 27 23 22 20 15 15 14 11 10 7 5 3 4 6 8 11 13 13 17 13 13 12 24 28 9 13 28 28 21 22 19 6 12 14 12 13 13
24 21 23 24 24 25 27 29 30 29 25 21 22 18 14 13 12 11 11 7 4 2 1 3 3 9 12 15 14 15 15 12 11 18 11 21 26 24 21 18 21 10 14 12 10 9 5
24 20 23 23 23 25 25 28 27 28 22 20 21 18 14 12 11 10 10 9 1 3 4 2 1 4 10 11 9 12 14 15 15 12 21 22 25 22 23 19 19 17 19 4 1 3 4
24 20 22 23 23 25 24 25 24 24 20 19 20 17 14 13 10 10 9 6 1 3 4 5 3 8 9 11 11 10 13 14 15 15 27 10 12 22 25 25 15 18 17 6 5 4 3
25 21 22 23 23 25 24 22 22 21 19 19 20 16 13 12 11 9 7 1 3 5 9 12 10 5 4 2 5 6 13 15 17 27 6 9 8 25 20 28 22 22 15 9 4 1 1
22 22 22 22 22 24 24 21 21 20 18 18 19 15 12 11 11 9 5 2 2 8 11 8 4 2 2 2 4 7 7 21 22 20 10 14 11 21 21 26 24 15 23 10 7 2 3
23 23 23 23 22 23 24 20 20 17 16 17 18 16 11 11 12 10 3 2 3 9 8 3 4 3 1 3 2 6 5 21 26 13 7 17 8 17 22 18 20 19 20 13 10 8 3
28 23 24 22 22 22 23 19 18 16 16 17 18 15 12 10 11 7 4 1 4 9 5 2 4 7 6 2 2 2 7 6 17 18 10 7 5 9 17 16 19 21 20 21 12 6 11
25 22 24 22 21 21 22 18 16 15 16 17 16 17 12 8 6 6 4 2 5 5 5 3 4 6 10 7 0 0 3 4 15 15 9 12 6 9 7 15 16 20 25 24 26 14 15
23 24 23 23 20 20 21 19 16 16 18 15 14 11 11 8 6 4 2 4 5 5 3 4 6 6 8 8 4 1 2 4 8 9 14 11 9 6 11 5 11 23 26 24 26 20 23
24 25 22 23 18 19 20 20 17 18 14 11 13 9 8 9 5 4 3 4 5 4 4 3 3 6 8 6 7 4 3 4 6 8 13 11 9 8 5 4 5 7 10 15 29 35 27
30 26 23 21 18 19 20 22 17 16 13 11 11 9 8 8 5 6 5 4 5 4 7 5 5 3 6 7 6 2 9 6 6 10 14 14 5 6 4 6 9 14 16 19 21 24 33
30 26 23 20 18 18 18 21 16 15 12 11 9 8 6 6 5 7 9 7 6 6 5 7 7 7 7 7 5 7 2 5 6 6 8 9 8 4 3 9 12 15 19 23 28 30 29
28 25 23 20 19 18 17 20 15 13 10 9 8 7 6 5 4 6 7 8 11 8 8 7 4 7 8 10 9 6 7 6 5 5 7 8 9 8 4 6 3 8 10 9 11 11 14
35 27 23 20 19 18 17 17 13 11 9 8 7 7 7 7 6 5 7 10 12 11 10 7 5 8 10 13 12 8 6 6 9 9 8 8 9 4 4 10 14 18 11 5 5 5 5
38 30 22 20 19 16 17 12 10 8 6 5 6 7 8 8 6 5 6 10 13 14 14 11 9 8 9 11 12 6 5 5 6 6 15 14 13 11 6 3 4 3 1 4 5 5 6
33 35 22 20 19 15 15 8 8 6 6 7 9 9 10 10 7 6 7 9 9 12 13 14 14 12 13 13 9 7 7 8 6 7 7 14 14 16 13 7 8 6 9 7 2 2 8
41 35 25 23 19 15 10 5 6 7 7 8 10 9 8 7 7 7 8 9 8 9 9 11 13 15 12 13 9 8 7 10 9 9 8 9 9 8 11 7 7 1 4 3 6 10 12
41 24 22 23 18 14 7 6 6 6 6 6 6 6 5 2 1 4 7 7 6 7 9 11 12 10 13 10 12 9 9 9 10 6 12 9 8 4 7 2 3 3 4 8 11 15 15

GFSGBSN_700_spd_066.txt.gz
Wind_Speed
24 24 27 27 28 28 27 26 26 26 24 24 25 26 25 26 23 21 23 22 20 17 14 15 15 14 10 5 10 7 14 31 29 31 33 30 33 31 31 35 44 30 35 25 33 35 30
24 24 25 29 30 27 28 28 26 26 25 25 23 25 25 24 21 19 22 21 19 17 14 14 12 11 9 8 6 13 11 21 15 37 34 32 30 27 27 30 31 38 25 25 32 32 33
26 23 24 27 30 30 29 29 27 26 25 24 23 24 26 23 19 17 20 18 18 15 13 10 7 8 7 6 5 11 13 14 21 37 38 33 35 32 26 26 29 20 30 21 32 22 23
27 24 25 27 29 30 31 31 28 27 27 25 23 24 24 22 19 15 15 15 17 14 11 7 5 5 6 6 6 11 18 13 25 40 30 36 34 23 27 25 26 20 19 24 22 25 25
26 26 24 28 29 31 32 31 29 28 28 25 24 24 22 21 19 14 11 12 13 14 10 8 5 2 2 5 8 13 17 17 31 38 24 34 31 25 27 22 20 19 21 24 17 23 23
30 23 26 29 30 30 31 33 32 28 28 26 23 25 21 21 19 13 10 10 12 13 13 7 9 5 7 5 6 15 21 19 22 30 25 29 30 25 24 25 28 29 22 23 20 27 28
33 25 30 29 29 30 31 33 34 29 28 25 23 24 21 20 18 13 10 9 10 10 12 12 10 10 12 16 4 18 22 22 28 36 24 24 26 28 26 22 12 19 18 20 18 16 26
31 28 23 27 28 28 30 34 35 31 28 25 22 22 20 18 17 14 9 10 8 8 11 12 13 10 11 13 20 18 25 27 27 26 30 19 24 19 22 19 15 19 18 15 11 16 17
27 26 24 28 28 27 29 33 35 33 27 24 21 21 19 17 16 14 9 9 10 7 7 12 11 11 11 14 25 27 21 23 22 24 35 11 26 25 22 18 16 16 18 17 12 16 12
27 28 27 27 27 26 28 31 35 33 27 22 20 19 17 15 15 13 8 8 7 4 3 11 13 6 14 19 20 19 23 29 21 23 25 13 23 23 19 16 15 13 19 17 15 12 10
28 24 25 28 26 25 26 30 33 32 27 21 19 18 16 13 13 11 11 7 5 4 1 4 12 12 6 12 16 13 13 18 18 35 10 9 27 26 23 20 16 12 16 15 13 11 6
29 27 26 29 25 25 25 27 31 30 26 20 18 18 15 12 12 12 10 8 3 2 3 3 7 8 13 12 15 12 7 14 20 27 7 17 26 20 18 23 13 11 16 12 8 7 7
27 27 25 25 24 24 25 25 29 28 25 20 17 17 15 13 11 11 10 8 2 3 3 2 5 6 9 10 15 17 8 15 14 13 20 23 27 19 20 20 20 13 19 7 5 5 4
29 27 23 24 23 24 24 23 27 27 25 21 17 16 15 13 10 9 9 4 3 2 3 4 9 7 9 11 11 12 12 13 11 6 24 11 13 18 25 18 16 18 17 5 6 4 3
29 30 28 23 22 23 24 22 24 25 23 20 17 15 15 12 10 8 6 4 2 3 7 9 10 5 6 6 9 9 12 12 16 19 4 10 8 19 20 21 20 21 15 7 3 2 1
32 30 26 21 21 23 24 22 23 23 21 19 16 15 13 11 11 8 2 2 4 9 13 6 3 3 4 5 6 10 10 13 17 23 10 10 9 21 22 23 19 16 18 8 3 3 4
34 29 28 25 23 22 24 22 22 20 19 17 17 15 12 10 11 6 2 2 7 12 7 3 4 3 1 5 5 6 8 15 19 18 10 14 9 17 19 20 18 18 13 11 6 4 2
34 30 27 28 25 21 22 22 22 18 18 17 15 13 14 12 7 3 2 4 8 12 8 3 2 3 5 5 6 4 6 13 24 15 12 11 8 11 19 18 22 20 18 18 16 6 8
35 32 25 27 22 21 21 21 21 16 17 17 14 13 10 8 4 1 2 5 9 10 7 6 6 5 6 7 4 5 6 9 22 17 10 10 5 7 7 15 20 21 26 21 18 15 10
35 31 31 26 20 21 19 20 21 15 15 13 10 9 10 7 5 3 3 7 8 8 6 6 7 10 9 8 3 7 7 7 13 14 12 11 11 8 9 5 13 22 32 26 23 17 22
33 34 28 25 19 20 18 19 21 13 13 10 9 7 8 7 5 5 6 8 9 8 7 7 7 9 11 9 8 6 7 7 8 10 13 12 7 7 8 5 6 6 18 26 30 34 25
34 35 32 23 21 21 18 18 19 13 12 9 8 6 6 8 5 6 7 9 8 9 7 6 5 8 9 9 8 8 7 5 4 9 13 13 7 10 9 9 9 11 13 15 20 23 28
42 34 31 30 21 20 17 17 18 14 11 7 6 5 5 6 5 7 9 11 11 9 8 11 11 8 8 10 10 7 5 8 5 5 10 12 11 8 4 7 7 13 17 19 22 25 23
43 40 30 30 20 19 17 17 18 14 9 6 3 3 5 6 6 6 8 14 12 11 9 7 9 10 9 10 9 9 8 6 7 6 9 7 10 8 5 3 5 5 6 6 9 10 11
42 38 34 31 21 20 17 17 16 12 6 3 3 4 5 6 6 7 10 11 13 13 11 8 9 10 11 12 9 7 8 7 8 8 8 8 9 5 4 5 9 8 8 5 5 4 4
40 41 31 28 20 19 17 16 14 10 4 2 3 5 5 5 7 8 10 13 15 13 11 10 9 11 13 15 13 6 5 6 7 7 15 12 11 7 4 2 3 2 2 2 3 2 3
41 38 28 32 23 19 17 16 12 8 4 4 6 7 7 7 8 9 11 12 12 16 15 14 13 12 15 14 14 9 6 7 5 6 7 14 15 11 10 7 6 6 8 6 3 3 6
41 40 23 33 22 20 18 15 11 7 5 5 6 6 6 7 8 10 11 10 10 12 14 15 16 18 14 16 9 7 6 10 7 7 6 8 7 7 10 8 8 5 6 3 4 4 10
41 37 35 32 27 22 18 14 10 7 4 3 4 3 4 6 8 10 10 9 8 10 13 14 14 11 15 13 12 9 7 9 11 6 13 7 9 5 8 6 7 6 6 7 10 11 13

GFSGBSN_700_spd_069.txt.gz
Wind_Speed
35 36 31 28 30 31 33 33 33 29 27 28 26 24 23 25 24 20 18 20 20 21 19 15 13 11 9 7 6 9 11 14 27 33 31 40 33 33 35 32 34 32 32 27 26 21 21
38 39 37 31 29 31 34 33 33 31 28 27 27 25 22 23 23 19 15 17 18 17 17 14 10 8 6 3 8 10 10 13 24 29 27 38 32 25 27 25 33 40 29 33 25 22 22
32 37 39 33 30 32 34 35 33 32 29 28 27 25 22 21 22 18 14 14 15 15 15 14 11 11 9 8 9 9 14 13 18 26 33 36 33 28 26 24 31 26 35 31 31 29 20
30 34 38 37 31 34 34 36 34 32 30 28 26 25 23 20 20 17 14 12 14 15 13 12 11 11 9 8 11 12 13 10 24 18 35 36 35 29 27 23 24 25 35 25 29 18 20
31 32 36 40 30 35 35 35 34 33 30 28 27 24 22 19 18 17 14 11 14 15 14 10 10 10 11 9 10 13 12 10 14 26 28 25 28 25 27 28 25 23 16 29 19 24 13
22 31 33 38 28 32 35 36 34 33 31 29 27 24 22 19 17 17 13 12 12 13 16 13 10 9 15 20 14 16 13 11 14 7 23 28 33 23 23 28 28 25 17 21 19 27 18
31 31 32 33 31 32 35 37 34 34 32 28 26 22 21 17 16 16 11 11 11 12 12 12 12 12 13 15 7 15 15 15 14 9 15 25 21 30 27 26 17 22 23 25 21 16 21
30 32 32 35 34 31 33 34 35 34 32 28 24 22 20 16 15 15 10 9 7 8 12 14 12 10 13 11 14 15 15 14 12 11 10 30 19 22 19 18 13 22 22 18 14 10 14
29 34 31 33 35 30 34 33 32 34 32 27 23 21 18 15 14 13 10 8 6 5 7 14 11 11 12 14 17 17 17 11 16 11 14 17 18 16 19 17 16 18 21 18 12 12 13
34 33 33 30 31 31 35 33 30 33 31 26 22 20 17 13 12 12 10 8 5 2 4 10 14 8 14 16 18 16 18 18 18 9 16 8 13 20 17 16 16 17 15 13 11 15 11
38 34 33 28 31 30 33 31 29 30 30 24 21 19 16 12 11 10 9 8 3 3 0 4 12 4 9 16 14 8 12 10 10 15 15 7 17 17 16 14 12 11 18 14 11 12 6
40 34 30 31 30 30 30 28 27 29 29 23 20 18 15 11 10 10 9 7 2 1 2 3 8 7 8 12 16 13 9 10 8 18 2 15 19 17 14 16 8 12 14 8 6 7 7
46 36 30 29 27 27 27 25 25 27 28 23 20 17 15 11 9 8 8 4 2 2 5 4 4 8 5 14 11 12 9 14 11 17 5 11 17 15 21 16 13 13 19 8 5 4 5
49 39 32 27 28 28 28 23 23 25 26 22 19 16 14 11 8 7 7 1 2 2 3 7 10 8 6 10 11 11 13 9 16 10 16 10 8 15 18 14 9 14 18 5 6 6 9
46 43 37 31 31 29 27 22 22 22 25 21 17 15 14 10 7 5 3 2 2 5 6 10 11 6 4 3 7 8 11 9 18 18 5 5 5 20 20 19 14 14 10 4 2 3 2
47 47 37 30 33 26 24 24 21 20 22 19 15 16 13 9 7 4 3 2 4 8 14 9 3 3 5 6 8 7 9 11 15 20 7 4 6 13 17 20 17 13 12 5 3 2 4
55 48 42 30 32 26 28 25 21 19 20 18 16 15 11 10 5 1 3 4 9 14 10 5 5 6 6 7 7 6 10 9 15 18 9 8 5 15 13 14 13 13 10 8 4 4 3
52 52 44 34 33 30 27 25 21 19 18 16 14 13 12 8 4 1 4 7 10 13 7 4 6 5 6 6 6 4 8 7 16 20 7 11 5 11 17 13 22 18 16 14 14 5 9
50 52 44 35 26 26 27 23 19 19 16 14 13 11 9 6 3 3 4 7 12 13 8 5 3 6 9 7 4 5 5 12 20 22 10 12 5 8 7 14 21 25 19 16 17 11 7
52 50 36 32 31 28 24 22 19 17 15 11 10 8 8 6 5 7 6 6 9 11 11 8 5 7 9 7 5 6 5 9 24 21 16 13 8 6 7 2 8 22 23 24 21 11 18
51 49 41 34 29 26 21 20 18 16 13 9 9 8 7 3 3 8 9 10 9 10 9 10 8 7 6 6 5 6 6 9 14 14 11 10 7 12 10 9 9 12 14 21 27 31 23
50 43 40 33 26 25 20 18 18 15 12 9 10 10 7 8 4 9 10 11 12 10 8 8 5 8 8 4 4 7 6 6 6 13 13 16 7 11 9 9 9 11 12 13 21 24 26
40 48 35 35 32 24 22 20 18 15 10 8 8 9 8 6 7 9 10 10 12 13 12 10 9 7 9 11 11 8 10 8 7 7 11 13 10 10 5 10 8 12 17 19 16 18 16
39 46 40 39 33 31 24 20 19 15 8 8 8 9 9 8 8 11 12 13 15 15 8 11 12 11 11 10 9 9 8 7 9 9 10 9 10 8 2 4 4 5 7 8 10 12 13
57 50 40 37 36 26 27 18 16 14 9 8 8 10 10 10 10 10 12 16 16 14 13 10 10 11 11 12 10 6 6 6 9 10 11 9 9 4 4 9 9 10 11 7 4 3 6
57 47 23 34 33 29 26 17 19 13 10 9 9 10 11 10 13 10 13 15 17 14 14 12 13 11 12 15 11 8 7 7 6 5 14 13 12 9 5 4 4 2 4 3 2 7 6
39 41 30 33 38 32 27 18 17 12 11 10 9 10 12 12 10 14 17 19 17 16 13 16 15 12 13 12 11 8 7 7 6 7 6 11 10 13 11 8 6 7 9 6 5 5 5
32 34 34 36 32 33 27 20 16 12 11 9 9 12 13 12 11 16 16 16 17 19 13 15 14 17 15 13 8 7 6 7 7 5 6 9 9 10 11 6 7 9 7 7 7 7 8
47 31 32 35 34 35 26 17 16 13 11 10 11 11 11 13 11 17 15 14 15 15 18 16 18 12 19 14 12 7 5 6 7 5 11 5 8 3 6 4 6 7 10 10 11 12 15

GFSGBSN_700_spd_072.txt.gz
Wind_Speed
27 34 37 37 42 42 40 37 38 36 34 32 32 30 26 26 23 22 20 17 19 20 21 19 17 16 10 7 7 15 9 8 11 23 26 41 35 32 33 41 46 38 35 36 31 21 21
27 28 34 35 40 42 44 39 39 37 35 34 33 31 26 25 23 21 20 17 17 19 20 18 17 15 12 8 14 14 10 8 10 18 31 37 29 33 30 26 39 31 41 33 20 28 25
29 34 33 34 36 40 41 38 38 39 35 35 35 31 25 24 24 19 19 17 15 17 19 18 16 16 13 11 15 13 11 10 11 14 28 21 37 37 21 24 27 36 30 23 37 32 28
34 37 36 26 36 36 39 37 40 40 37 36 35 31 24 23 23 18 19 16 15 16 19 17 13 17 14 9 14 16 13 6 8 13 26 30 36 35 24 27 22 24 31 16 21 29 27
31 34 32 35 34 36 38 40 39 40 37 35 34 29 23 23 21 17 18 15 15 15 16 18 11 18 8 12 13 15 10 7 9 16 22 40 27 32 26 25 24 20 24 16 9 23 19
36 35 35 35 35 36 39 39 37 40 38 35 33 28 22 21 18 16 17 13 13 13 13 16 13 13 16 25 25 16 8 5 4 6 33 28 27 30 26 29 24 22 13 24 20 13 24
38 40 36 38 38 37 39 37 35 41 38 35 33 25 21 19 17 16 15 12 11 9 11 14 12 14 17 22 11 10 9 6 10 8 27 34 20 28 32 29 20 22 13 21 23 15 9
40 40 40 38 39 34 36 34 33 39 37 35 31 24 20 18 15 13 13 10 9 8 10 16 12 14 9 14 15 13 12 10 4 6 12 24 18 21 13 19 12 19 19 10 12 16 11
39 41 42 41 39 35 34 35 33 37 35 33 29 23 19 16 13 12 11 10 9 5 6 12 9 13 11 13 18 14 14 11 8 10 16 21 21 14 19 17 15 16 21 24 14 16 13
40 41 43 42 38 39 35 32 33 34 33 31 27 22 18 14 13 11 9 9 7 3 3 7 9 11 10 15 17 10 16 10 10 10 23 13 23 16 19 13 12 19 14 13 12 13 4
43 42 43 46 37 40 31 29 34 32 30 29 25 20 16 13 11 9 9 7 4 1 0 4 7 7 12 9 11 15 13 8 6 8 10 15 11 20 14 11 9 12 15 11 10 10 3
48 44 43 47 40 44 30 30 32 29 28 26 23 19 14 11 10 8 7 5 1 1 1 2 5 7 9 11 15 13 13 9 9 9 12 20 19 14 15 13 10 17 16 9 8 3 3
52 47 47 48 45 38 32 30 30 28 26 24 21 17 14 10 7 7 6 3 2 2 4 4 2 3 4 10 12 13 10 10 4 10 11 16 13 11 17 12 12 14 18 5 2 1 3
52 49 47 49 44 38 34 28 30 27 24 22 18 15 14 9 5 6 5 1 2 1 2 5 7 5 3 4 7 11 12 5 11 12 11 5 5 10 16 13 13 18 16 4 3 4 5
40 49 44 47 45 38 37 29 25 23 23 20 17 14 13 7 4 6 5 2 1 4 6 10 8 4 3 1 7 8 9 6 12 10 5 6 3 13 21 17 16 14 9 7 1 2 3
38 49 41 46 42 42 36 32 24 24 22 19 15 14 12 5 4 6 6 4 4 11 11 11 2 3 5 6 5 6 6 9 12 12 9 4 7 16 17 14 12 11 8 3 2 1 2
35 43 46 34 33 41 46 37 32 26 21 17 15 14 10 5 5 6 5 5 5 12 16 11 2 5 5 8 7 7 8 11 9 18 10 7 3 8 14 14 17 14 12 6 6 3 1
33 42 43 30 38 44 46 37 34 26 19 15 14 14 9 6 6 7 6 7 10 16 8 10 9 5 6 7 7 6 5 6 16 17 8 7 7 7 9 11 16 18 14 13 5 3 4
31 41 32 30 41 39 50 31 32 27 17 14 14 13 9 7 6 8 6 7 11 13 9 6 5 9 12 7 4 6 6 8 15 19 8 9 3 7 6 9 16 19 21 19 16 11 6
36 34 26 29 30 41 44 31 36 24 15 13 12 9 6 8 8 9 7 6 10 15 10 9 6 9 13 7 5 7 4 12 12 20 14 14 7 3 4 2 5 17 27 21 17 14 17
40 28 23 31 27 38 31 31 29 23 15 14 13 11 6 3 8 10 12 9 10 12 12 9 7 8 8 7 6 7 5 5 16 20 18 13 7 11 7 6 6 8 10 21 26 29 17
30 41 21 37 33 37 29 28 32 19 16 14 14 13 8 8 8 12 14 15 11 10 11 11 8 10 10 10 7 7 4 6 8 16 17 13 6 10 11 12 12 11 12 16 24 27 28
24 34 15 35 29 39 27 29 31 15 14 13 10 12 9 7 10 12 10 11 15 14 12 11 9 10 12 10 8 12 10 8 4 4 12 10 13 6 3 10 10 11 18 20 18 18 23
22 30 22 24 28 33 25 30 25 14 12 13 13 14 12 9 12 13 14 16 17 16 12 16 12 12 12 11 10 8 6 8 9 9 8 8 10 8 1 3 1 5 8 8 15 18 16
21 25 35 36 35 29 29 33 25 17 13 15 15 14 15 14 13 15 16 16 18 16 13 10 14 15 11 10 9 5 3 5 6 9 10 9 10 3 3 7 6 15 13 9 7 7 12
20 27 38 38 43 24 32 36 25 18 17 17 15 16 17 14 17 15 16 16 16 18 16 13 11 11 14 15 11 7 7 6 6 4 12 12 11 8 4 3 3 3 3 3 7 8 8
19 27 34 24 40 27 34 33 31 23 19 17 17 19 17 14 9 17 18 19 20 18 14 16 13 13 14 17 13 7 6 6 7 7 6 14 12 12 10 7 6 6 6 8 5 6 10
3 21 29 31 33 27 32 34 28 22 20 19 18 19 17 15 10 16 15 17 19 18 18 12 16 16 16 12 12 7 3 6 6 5 7 8 9 11 13 7 7 8 10 9 9 11 10
8 24 24 21 20 27 34 32 32 20 20 20 20 17 15 16 11 17 17 17 18 18 19 16 18 14 15 15 11 9 6 6 7 6 11 7 10 6 7 7 10 9 12 11 14 13 14

GFSGBSN_700_spd_075.txt.gz
Wind_Speed
25 24 26 30 36 36 35 39 41 40 41 38 37 37 34 29 27 25 22 21 19 19 20 22 21 20 13 14 18 17 13 10 11 9 20 26 31 33 30 31 41 36 36 38 30 24 23
27 28 28 30 32 31 37 39 40 41 40 39 37 37 34 29 26 25 21 20 18 17 19 22 21 18 15 12 16 15 15 9 11 8 24 28 26 28 31 28 37 38 26 33 28 28 26
28 30 32 31 30 31 38 39 41 41 38 40 39 36 33 29 25 24 20 19 16 16 18 21 21 16 16 9 12 14 15 10 7 6 29 32 31 31 22 23 30 24 21 39 29 28 36
25 27 31 33 35 30 34 40 42 42 37 39 40 36 34 29 25 22 18 18 14 14 17 19 20 16 18 8 12 14 14 10 5 5 13 22 27 42 16 20 23 22 27 20 19 30 35
26 26 28 31 32 37 34 37 41 41 37 37 39 36 33 28 24 21 18 16 13 12 14 18 14 18 9 18 20 13 10 6 4 6 10 15 36 30 23 22 22 21 27 26 12 20 23
27 27 28 28 30 34 38 31 39 42 39 37 38 35 33 27 23 20 17 14 12 9 13 16 10 13 18 23 23 8 10 3 2 0 18 17 30 28 36 23 17 24 26 27 12 12 36
30 29 29 30 27 31 33 32 37 42 38 37 38 33 30 26 22 19 16 13 11 6 12 14 14 17 17 13 11 13 11 7 5 8 14 24 27 29 29 24 18 15 19 23 23 4 5
35 36 32 31 32 28 33 30 34 38 34 38 38 32 28 24 20 17 14 12 11 8 8 13 14 18 11 10 12 13 11 10 6 16 19 29 15 28 18 19 16 15 13 12 10 22 7
37 39 35 35 34 33 33 30 27 35 38 37 40 31 26 22 18 16 13 10 9 4 3 10 11 14 10 11 10 10 13 10 14 17 18 31 14 11 23 22 16 16 26 14 12 19 14
37 37 44 41 36 37 29 34 29 34 36 34 39 29 24 20 16 14 11 9 7 3 2 7 9 9 9 9 14 16 15 14 11 17 19 16 10 17 15 19 17 16 15 12 20 11 7
40 40 44 48 43 36 36 38 31 36 41 31 37 27 22 18 14 12 9 7 4 2 2 4 10 10 10 9 11 13 12 15 18 14 8 17 18 18 21 9 13 15 17 17 10 10 5
45 46 47 49 49 41 39 28 35 36 37 29 33 25 19 16 13 11 7 4 0 2 1 4 7 10 10 14 15 13 12 12 15 12 17 25 20 19 15 13 17 26 25 20 14 12 1
41 45 49 51 55 48 35 32 33 28 34 29 30 23 17 14 11 10 6 2 2 1 6 7 6 8 9 10 9 10 9 9 6 10 15 20 13 21 16 16 18 19 22 5 4 2 4
38 40 44 33 39 50 37 38 30 34 34 30 24 21 16 13 11 9 5 4 1 4 4 7 10 11 10 9 7 6 7 5 10 12 15 7 5 14 13 14 12 14 10 6 5 4 4
37 34 33 31 35 38 38 36 33 32 41 29 19 18 14 13 11 9 6 4 5 7 8 12 11 9 9 6 7 7 4 3 13 12 5 8 4 11 14 12 17 18 3 2 4 4 4
37 36 33 30 14 34 40 37 32 38 41 33 15 16 14 12 12 9 8 7 9 11 9 14 6 8 7 8 11 9 6 7 12 8 7 7 8 11 14 12 11 8 8 6 2 3 2
37 42 38 32 27 34 33 17 32 31 36 32 16 15 12 12 12 10 10 9 9 14 17 12 7 4 6 10 8 10 7 9 13 13 11 8 5 11 13 11 12 9 9 3 3 1 4
33 37 43 34 34 39 43 25 41 35 44 32 16 16 12 12 12 13 10 10 11 20 19 13 8 9 6 9 11 9 7 8 10 12 15 6 8 9 11 11 16 18 11 9 4 3 2
32 36 39 35 40 37 41 36 35 30 41 34 15 17 13 13 11 15 12 12 15 22 15 15 11 13 8 7 7 7 5 9 14 17 13 11 7 8 4 10 17 19 22 21 12 6 6
30 35 35 39 28 22 28 30 24 27 33 33 15 13 16 17 14 12 14 13 17 17 13 16 14 13 11 10 4 8 7 12 15 20 16 13 10 4 8 5 9 24 21 22 21 14 14
32 33 32 44 23 29 27 37 20 31 27 32 21 18 13 8 16 14 15 14 15 20 15 15 12 16 14 8 9 8 7 12 12 20 16 12 10 9 5 5 5 8 9 23 26 27 20
35 34 31 33 25 32 27 35 28 30 29 28 24 18 13 11 12 16 20 18 18 15 17 17 13 17 15 14 11 14 6 9 9 15 19 14 7 8 9 10 11 12 13 13 23 30 29
35 34 32 21 34 27 31 31 37 23 28 22 24 16 11 11 15 18 17 21 18 17 15 15 14 16 14 10 10 10 6 6 4 5 15 15 13 6 5 9 10 13 20 20 19 20 24
33 34 32 12 24 19 15 25 25 19 24 24 18 16 14 11 14 15 18 21 19 18 17 18 17 17 15 12 9 10 8 6 5 3 7 7 9 9 3 6 1 5 5 7 11 18 19
32 33 34 10 23 30 33 27 37 29 25 22 19 19 15 13 13 19 20 20 22 18 16 16 16 14 14 13 13 9 9 8 6 7 9 9 8 4 4 7 7 12 11 9 9 7 14
32 28 27 15 27 33 34 32 33 30 25 25 21 18 18 16 19 20 24 23 22 21 19 13 17 18 14 17 13 7 7 7 6 6 12 11 9 7 5 3 4 1 2 3 7 12 13
28 26 16 25 32 32 29 26 29 28 26 25 23 21 20 18 13 20 22 22 22 22 19 17 15 17 18 20 15 9 7 9 8 9 10 16 14 14 11 6 7 6 5 6 7 6 13
23 24 7 17 15 27 24 27 31 31 28 25 24 23 20 17 10 15 18 22 23 22 19 19 18 19 19 19 16 8 7 12 9 8 8 9 12 12 12 7 8 10 10 10 13 12 10
19 9 12 13 13 3 18 25 32 26 30 27 26 21 19 20 12 14 18 20 22 20 17 15 17 20 16 16 13 11 9 11 12 9 12 11 11 9 9 4 8 6 9 11 11 11 14

GFSGBSN_700_spd_078.txt.gz
Wind_Speed
19 21 23 24 26 25 28 29 33 38 36 37 38 38 36 34 31 28 26 25 21 22 18 20 22 23 20 20 20 17 10 13 12 9 13 21 28 30 32 34 41 37 30 44 43 37 35
22 20 21 23 24 24 26 29 29 35 38 38 43 38 38 36 32 28 26 23 21 20 17 20 22 23 18 18 17 16 12 13 11 9 6 17 14 32 31 28 32 38 24 28 47 26 33
26 24 23 22 23 23 25 27 24 32 34 39 40 42 40 36 30 27 25 22 22 18 16 19 21 20 18 16 13 15 9 9 8 3 2 15 22 24 20 27 30 36 23 30 29 35 22
34 31 26 26 25 23 23 26 23 29 34 34 37 41 42 36 30 27 24 21 21 15 14 18 21 19 13 8 12 15 12 6 7 4 6 25 25 22 22 18 24 40 29 23 23 41 15
36 36 36 30 28 28 24 24 25 25 33 33 39 37 45 38 30 26 22 20 17 13 11 18 14 20 12 22 19 18 16 4 3 4 12 25 29 18 26 20 21 25 12 22 24 30 15
38 38 38 37 34 30 30 20 31 23 27 30 33 34 43 43 31 26 20 18 14 11 9 14 14 15 19 18 21 12 8 5 2 3 11 16 26 18 24 15 25 22 22 25 11 14 27
39 38 40 41 39 35 31 33 23 27 25 35 29 39 35 44 32 25 19 16 13 8 7 12 15 15 16 12 13 12 10 7 3 8 16 13 25 23 31 8 10 22 28 20 21 9 8
38 39 41 45 47 42 39 36 24 29 26 30 31 34 29 41 31 23 17 14 12 7 4 11 13 14 12 10 9 8 10 4 3 11 14 15 16 25 22 16 10 20 23 16 18 12 4
37 37 39 41 44 48 46 36 34 21 24 29 33 31 31 40 30 22 16 12 10 4 1 9 9 10 10 9 8 5 8 12 6 12 14 18 12 14 15 14 22 15 22 21 14 11 13
37 38 40 42 43 45 46 45 32 26 31 27 28 32 28 39 29 21 14 12 8 2 1 7 5 4 3 6 10 20 24 15 17 12 12 18 19 21 11 22 21 21 25 17 15 22 9
36 37 38 42 44 45 44 42 39 34 30 22 31 29 28 29 29 18 13 10 5 3 2 2 6 5 4 8 7 14 17 24 17 11 9 11 8 15 18 16 14 16 19 13 10 10 10
40 39 38 38 37 44 46 45 41 35 31 24 34 24 27 28 26 17 10 8 4 2 3 5 3 5 6 8 9 13 17 19 16 13 18 18 21 15 14 15 11 23 22 21 16 13 4
34 32 33 35 36 35 44 42 38 41 29 30 30 26 26 28 23 15 9 7 4 4 9 8 7 5 5 6 8 11 13 11 8 13 21 20 20 19 19 23 23 24 28 4 4 2 4
32 34 39 39 41 36 24 25 31 43 34 29 29 24 24 29 22 14 10 8 7 7 9 11 11 9 6 6 6 9 8 9 10 17 17 6 9 12 17 18 18 19 5 4 4 3 3
35 35 36 37 36 38 34 28 29 46 41 28 34 29 29 25 19 13 13 12 4 12 14 17 12 12 8 4 4 8 9 15 19 11 3 7 6 13 14 14 18 8 6 5 8 5 4
33 33 34 33 31 35 37 30 17 47 34 28 33 26 30 20 18 15 16 13 10 13 13 19 10 7 8 9 9 8 5 12 9 8 8 8 9 15 12 14 9 10 10 3 1 3 3
34 33 33 34 30 32 31 27 12 2 23 31 37 27 29 23 20 20 21 14 17 18 17 19 12 12 9 9 9 11 5 9 12 8 6 8 5 11 13 8 9 10 9 3 3 2 3
35 35 32 34 33 31 32 30 30 8 29 35 34 28 27 25 23 25 22 19 19 21 22 20 12 12 10 10 12 9 7 6 13 11 10 5 6 9 11 7 13 12 11 9 2 3 3
37 37 33 35 34 34 30 34 35 32 26 31 31 23 21 22 25 26 14 17 19 25 23 17 15 13 11 11 10 10 8 8 16 12 11 7 5 7 2 10 16 16 16 13 9 4 6
37 36 35 35 36 34 35 25 32 40 29 33 31 24 22 25 26 18 21 19 21 27 24 20 15 17 14 16 6 13 11 11 13 17 14 10 9 3 7 2 6 15 20 20 16 8 7
38 35 34 35 35 35 28 20 26 35 32 40 31 24 21 16 30 21 21 20 23 28 20 18 19 18 16 14 12 13 12 14 15 16 15 10 9 7 4 2 3 5 15 15 21 23 14
37 34 33 34 32 33 22 29 19 37 31 41 32 24 23 16 13 24 25 23 26 24 24 24 16 20 18 16 14 13 7 15 9 15 18 14 6 7 6 7 8 9 11 13 17 28 26
35 32 32 34 34 30 14 31 16 34 36 41 31 21 14 17 18 26 25 24 21 23 21 18 16 21 18 14 10 10 7 7 6 12 22 15 10 6 4 8 9 14 20 22 21 19 21
33 31 31 33 32 16 8 24 4 27 42 39 24 18 18 13 17 19 22 24 22 19 19 22 20 21 18 13 13 12 9 9 6 7 12 14 12 7 3 4 1 8 7 7 11 15 21
32 30 30 32 28 18 17 23 36 29 38 34 22 21 16 10 14 20 25 25 22 20 14 23 20 18 17 16 18 15 13 9 8 10 12 10 13 7 6 10 10 9 9 8 8 10 11
29 28 30 24 17 12 24 31 34 34 29 29 28 25 18 11 22 22 29 26 26 23 21 20 19 18 20 18 14 7 7 8 10 10 14 13 12 13 11 4 5 2 2 2 4 8 9
27 28 24 13 2 7 9 24 30 25 25 30 28 28 22 15 20 26 28 25 24 22 23 23 23 21 19 22 17 10 6 10 8 11 17 16 12 17 14 7 6 9 10 10 6 8 9
27 25 19 4 4 11 20 19 29 28 30 36 28 25 23 19 16 24 23 24 21 22 23 21 22 25 24 21 18 8 7 13 8 10 11 19 14 14 15 8 10 12 17 16 11 11 12
24 20 15 1 9 16 6 17 28 29 31 34 29 26 22 20 13 20 21 21 20 19 22 17 19 19 19 21 14 13 7 12 13 10 14 12 12 7 9 6 7 7 10 13 12 12 13

GFSGBSN_700_spd_081.txt.gz
Wind_Speed
37 37 37 35 27 26 25 22 22 25 26 32 29 34 38 37 37 39 36 32 27 22 22 19 22 24 27 23 20 18 13 12 13 10 10 11 17 29 34 38 34 34 37 42 52 13 34
39 38 38 39 39 35 27 27 25 26 23 30 30 36 34 36 38 40 37 33 26 22 20 19 21 25 24 21 22 12 11 11 10 8 7 9 15 21 39 23 37 36 33 32 50 18 30
42 41 40 41 41 39 39 32 27 24 27 24 29 34 30 37 38 34 35 31 26 22 17 17 20 25 21 18 12 13 12 9 8 8 8 8 11 23 20 26 33 17 29 24 55 29 22
41 42 43 43 42 42 43 41 33 25 22 29 29 32 31 33 33 37 33 29 25 20 16 14 20 22 21 11 20 21 16 10 8 10 9 10 12 24 25 25 22 24 25 32 25 41 24
43 43 42 44 46 44 44 44 44 30 29 27 31 27 36 32 31 36 31 27 23 18 15 15 15 21 15 19 20 22 19 9 6 7 7 11 14 13 16 24 22 22 18 17 15 37 33
42 43 43 45 45 47 47 46 45 44 30 32 27 27 38 33 29 35 32 23 21 17 11 13 12 13 18 20 22 11 5 8 4 2 6 12 17 6 7 20 13 18 23 6 22 11 38
40 41 41 43 44 44 47 49 47 43 42 30 25 28 34 36 32 29 31 19 19 14 8 9 11 11 14 15 11 8 7 7 4 4 7 9 17 11 15 11 8 9 35 8 17 11 13
40 40 40 41 43 44 45 46 46 45 40 32 38 26 30 40 24 26 30 17 17 13 6 7 7 10 13 12 8 4 5 4 1 6 7 8 16 17 12 14 5 13 17 18 9 9 3
40 39 40 42 42 45 46 46 47 41 39 36 34 30 28 40 26 25 26 14 15 12 5 6 2 6 8 10 15 7 1 7 6 8 7 8 15 18 8 14 7 17 23 19 21 18 5
37 38 40 41 40 41 42 44 47 46 37 34 33 35 27 37 25 20 24 11 13 10 4 3 1 2 4 6 10 8 11 11 9 11 8 6 10 13 16 16 11 13 15 20 16 14 3
39 38 35 34 30 32 36 40 42 45 44 34 37 38 28 31 25 18 20 9 10 6 2 4 3 1 2 4 8 17 10 9 12 10 6 9 15 9 10 18 15 19 12 14 16 12 7
39 41 40 38 38 37 36 37 38 42 43 33 39 34 32 27 24 18 15 5 7 2 4 6 5 5 4 7 10 15 13 11 9 9 4 12 16 12 9 21 16 20 18 17 17 8 1
39 39 39 39 39 38 39 36 35 38 33 30 37 35 31 29 19 17 12 5 4 5 5 7 8 9 8 5 8 9 8 6 10 12 19 18 17 17 18 12 20 20 16 3 4 2 2
38 38 38 38 39 38 35 32 36 29 33 25 39 35 34 30 26 15 10 10 6 7 10 11 10 10 7 4 6 5 7 8 13 22 14 5 9 9 21 18 23 22 9 5 4 2 0
37 36 38 38 37 36 32 31 27 32 25 24 33 31 32 30 25 14 12 13 6 11 14 16 14 12 9 6 5 5 9 15 19 6 4 6 6 12 9 11 22 19 8 7 10 5 2
34 35 37 37 35 35 33 31 29 27 19 12 24 36 29 30 20 14 17 18 11 12 11 16 11 11 10 9 8 6 6 11 9 6 7 8 9 14 12 9 10 6 9 5 5 3 2
33 34 35 36 33 30 32 33 31 27 21 9 23 30 30 30 21 18 26 19 16 16 16 20 9 10 9 10 9 8 6 12 8 6 6 9 6 11 12 5 8 10 7 5 6 4 3
33 30 33 36 34 30 29 33 30 24 18 7 22 26 29 31 25 26 29 22 17 21 20 20 14 11 11 11 12 9 7 8 11 7 6 4 6 9 8 5 8 9 8 4 2 3 4
33 27 32 34 33 28 29 31 28 23 13 12 23 21 17 29 29 31 23 19 19 26 24 22 16 12 10 11 8 10 9 7 13 11 7 6 5 7 1 7 10 9 10 10 7 2 3
31 28 32 32 31 27 28 29 28 23 18 16 29 20 28 30 28 21 22 17 24 28 25 24 16 14 13 14 7 13 11 10 15 12 9 5 8 5 7 4 8 15 15 13 11 5 5
27 29 31 32 30 26 28 29 27 15 15 15 30 18 30 29 33 22 19 17 22 27 25 23 17 18 18 14 10 11 10 10 11 13 11 7 7 7 7 5 5 7 16 19 21 18 9
30 30 31 31 28 26 28 31 16 10 22 30 38 30 24 23 13 26 23 21 26 26 27 26 20 21 17 15 11 13 9 13 9 14 13 12 7 9 6 5 5 6 6 12 16 18 20
32 31 31 30 26 26 30 23 10 19 16 39 39 40 35 19 12 25 28 25 27 27 25 22 18 23 18 14 9 8 6 12 8 9 18 15 7 6 1 6 7 8 11 16 15 15 13
32 29 29 27 26 28 26 14 12 26 40 46 42 34 22 9 13 21 21 20 25 24 27 21 17 20 20 14 11 12 12 10 5 8 15 14 12 6 1 3 2 3 4 7 11 18 22
30 29 28 27 27 28 18 10 12 18 38 45 31 34 15 2 11 23 24 25 21 19 19 21 21 18 19 16 16 12 11 9 6 6 9 14 12 5 3 5 8 8 7 8 10 9 11
30 29 28 27 27 22 7 9 16 21 34 43 34 22 15 7 16 20 30 25 25 24 21 23 21 18 19 19 16 9 7 8 8 6 10 10 9 11 6 2 4 3 5 9 11 15 12
26 26 27 25 19 4 2 9 13 25 28 31 30 22 16 9 22 21 31 26 25 25 23 25 23 19 20 21 13 9 6 9 6 9 13 13 10 14 9 6 7 10 8 8 6 6 6
24 27 25 22 5 3 3 11 5 19 20 24 27 26 17 10 21 22 29 28 25 23 25 26 23 24 24 19 13 6 6 11 9 7 10 17 11 9 10 7 10 9 15 15 10 9 11
26 24 20 9 7 2 7 12 10 17 21 21 25 23 21 15 17 23 26 24 21 21 20 20 24 23 20 18 13 11 7 11 13 7 13 13 14 5 9 7 7 6 10 14 14 15 14

GFSGBSN_700_spd_084.txt.gz
Wind_Speed
43 43 43 41 42 40 40 39 36 35 33 31 26 30 30 30 34 31 32 33 31 24 21 25 24 24 23 27 25 25 20 17 17 16 15 13 15 21 24 31 40 37 23 34 34 35 44
43 43 45 44 44 43 41 41 40 38 36 30 29 29 31 31 36 37 31 31 29 25 20 20 22 24 25 26 25 15 12 12 14 13 13 10 14 13 22 28 30 21 34 15 30 26 32
43 44 42 41 44 43 44 44 41 40 38 34 31 32 35 35 35 40 29 29 25 24 19 18 20 25 24 21 14 18 20 16 15 14 13 11 15 16 18 20 32 22 21 19 18 32 43
42 44 44 44 42 41 42 42 43 41 39 36 35 29 32 31 33 40 34 27 25 20 18 17 18 22 19 15 17 19 20 14 13 13 13 13 11 11 7 26 19 30 12 23 20 26 32
44 43 43 43 45 45 43 42 42 44 40 38 36 33 33 33 36 36 37 25 23 17 17 14 17 19 10 16 18 22 11 10 11 11 9 11 9 6 19 10 15 23 12 23 17 21 35
44 45 44 43 43 44 44 44 44 42 42 39 39 32 32 32 31 33 38 27 19 15 14 12 11 12 14 16 13 15 6 7 7 5 4 2 6 3 12 17 16 18 13 18 19 13 32
47 46 47 46 45 46 46 46 45 46 45 42 38 33 31 35 33 28 38 24 16 14 13 10 11 9 12 15 12 10 5 4 2 1 3 5 6 3 4 23 12 13 13 12 16 8 26
47 48 48 48 47 47 46 47 47 47 47 44 37 32 30 34 30 30 33 23 12 12 14 11 9 7 7 11 12 6 4 3 2 2 5 3 6 8 3 7 12 17 22 20 18 10 10
46 47 47 47 46 43 44 43 43 43 45 43 39 29 29 31 30 30 32 22 12 9 13 11 8 4 5 8 8 5 1 2 5 5 6 4 8 16 3 7 6 15 20 25 9 15 9
43 45 45 43 40 38 36 36 36 36 40 41 37 29 31 33 26 28 28 15 6 8 9 6 5 4 5 6 7 10 4 7 5 5 8 1 7 13 9 3 5 14 15 12 12 13 3
45 46 48 46 42 36 30 31 31 35 35 39 42 31 29 31 26 23 22 5 4 5 3 5 5 3 1 4 3 9 4 10 5 5 1 6 8 7 9 6 3 13 18 16 14 10 8
48 50 47 43 39 36 35 35 35 35 36 38 41 33 20 23 27 27 24 4 6 4 6 7 7 5 4 6 7 5 8 7 4 3 3 8 6 4 8 12 17 16 17 14 14 13 6
51 51 46 39 36 35 36 36 37 37 37 33 35 23 19 22 20 26 24 9 6 7 6 7 9 10 7 7 7 5 5 4 2 6 13 17 11 9 16 18 20 15 16 4 4 2 1
51 49 39 33 34 35 36 36 38 37 35 27 35 28 28 26 24 24 21 17 9 7 9 9 12 13 8 7 5 3 5 8 6 12 10 9 6 7 10 22 11 14 5 3 4 3 3
50 41 33 30 31 32 35 38 37 34 36 25 19 16 22 27 26 24 19 16 5 11 11 14 15 13 10 8 5 4 6 13 10 4 5 5 7 12 12 11 14 16 4 6 10 11 4
42 35 32 33 29 33 36 35 29 30 31 29 23 16 11 27 25 23 24 18 12 11 8 14 14 13 11 10 7 6 5 12 7 8 6 10 10 9 12 18 11 14 5 2 4 3 3
39 32 33 32 26 32 34 30 24 26 25 29 14 16 15 23 21 25 30 24 15 12 9 14 17 14 11 11 8 6 6 11 6 5 8 9 5 10 8 5 11 5 2 5 8 6 3
38 33 32 27 28 31 32 26 21 24 23 27 22 3 13 16 26 30 32 22 12 17 15 15 14 10 11 11 10 6 7 8 9 8 7 5 9 8 7 8 9 7 6 6 5 2 4
37 32 27 26 29 30 29 22 21 20 21 25 21 7 7 24 29 28 26 24 16 20 17 18 15 10 9 11 7 8 9 9 10 7 4 5 7 8 1 4 6 3 3 3 5 6 4
36 30 27 29 28 29 27 20 21 20 25 16 16 3 13 27 30 28 28 13 18 22 19 19 13 11 11 11 6 11 11 9 13 9 5 4 7 4 7 4 6 7 9 8 8 2 3
36 27 27 29 26 27 22 20 20 21 17 16 8 12 13 25 35 16 13 9 22 21 20 22 16 14 14 13 9 11 11 11 14 11 8 2 3 4 8 7 5 7 11 12 11 9 3
36 27 27 27 26 24 20 21 21 18 13 18 17 15 16 23 17 32 17 16 21 22 23 24 18 17 15 12 6 9 8 10 9 13 8 5 3 4 2 1 1 2 5 11 13 15 16
35 28 27 27 26 24 22 23 19 15 8 9 23 18 13 17 21 15 27 17 20 18 21 22 16 19 13 11 7 7 5 11 6 5 10 8 3 5 1 2 4 7 8 8 11 14 14
33 29 28 28 27 24 22 24 17 10 15 12 19 17 23 22 15 16 17 20 21 18 18 23 18 17 16 11 8 8 7 7 2 7 8 7 7 3 1 1 1 3 5 7 13 17 19
32 28 26 27 27 24 24 22 7 9 12 14 19 12 19 21 19 13 16 22 23 19 19 21 18 18 18 13 13 9 9 5 1 4 7 10 9 2 2 3 8 7 7 8 9 10 11
29 26 27 27 25 22 24 2 2 4 11 20 17 27 12 12 5 12 22 19 23 23 17 20 20 16 18 22 14 7 6 6 6 5 7 9 9 8 4 1 3 1 3 7 8 13 10
27 28 28 25 19 12 3 6 4 8 8 21 22 18 8 11 10 18 23 21 19 19 20 24 23 21 18 17 13 8 5 10 6 8 12 10 7 8 7 4 7 7 8 6 3 3 5
27 27 23 17 11 4 8 8 2 5 11 15 28 23 12 2 18 18 23 21 19 19 21 24 23 23 21 16 11 7 5 9 7 6 6 13 9 7 9 5 8 5 9 10 6 6 9
28 23 16 10 6 7 6 6 9 14 12 16 21 18 12 7 15 17 22 20 19 20 17 21 19 19 17 15 11 8 6 8 11 6 11 8 11 4 8 4 4 4 6 9 12 15 15

GFSGBSN_700_spd_087.txt.gz
Wind_Speed
40 39 39 40 42 44 43 43 42 39 37 36 36 28 30 32 31 33 32 36 37 27 26 23 20 21 23 20 22 24 21 18 17 18 17 18 19 17 21 26 23 35 37 37 30 32 37
41 41 42 42 41 42 43 43 42 41 40 39 36 32 32 31 31 32 32 30 37 30 21 23 20 21 21 23 18 16 13 12 14 17 15 15 16 15 23 23 24 26 31 35 18 26 32
43 42 43 44 45 44 44 44 42 40 38 37 36 37 34 30 28 30 30 33 34 29 25 20 20 19 20 18 16 17 20 22 20 17 15 15 16 18 20 17 20 17 16 37 13 25 26
43 43 43 44 45 47 45 45 45 43 40 36 34 35 33 29 31 30 32 28 31 36 21 22 20 17 19 12 15 17 23 17 14 16 15 13 16 18 20 17 7 21 24 11 17 18 28
43 43 41 42 44 46 47 47 46 46 45 41 37 33 32 28 29 28 30 26 28 34 18 21 18 14 10 14 14 13 17 5 9 12 11 10 13 11 13 6 12 17 21 21 15 14 22
45 46 47 46 45 46 47 48 46 45 45 45 39 34 29 24 30 27 29 24 35 28 15 17 16 11 10 12 14 12 10 5 3 6 4 3 4 10 6 14 9 17 19 15 10 13 16
45 46 47 47 47 48 48 49 49 45 41 41 38 34 29 21 26 24 22 23 25 25 13 13 13 10 11 9 11 9 5 3 3 1 3 4 6 9 6 16 7 14 14 10 15 11 15
47 48 46 48 48 49 49 49 48 45 42 35 34 28 25 7 19 22 15 20 28 16 16 14 11 9 9 9 9 9 6 4 2 1 2 4 7 4 3 8 19 17 17 17 12 6 8
47 48 47 48 48 48 48 45 42 40 41 34 30 28 23 14 18 18 16 17 22 10 13 14 8 10 8 8 11 7 1 2 5 2 2 3 3 2 5 10 16 19 19 24 19 15 11
46 48 47 48 49 48 42 36 34 34 33 32 28 28 26 19 18 17 14 18 24 2 8 5 7 8 5 2 3 7 6 5 7 5 3 3 2 6 2 3 10 16 21 19 7 3 1
49 49 49 50 49 45 36 33 32 31 31 30 31 28 28 19 13 12 16 18 4 3 3 4 9 7 3 2 1 4 2 7 4 4 1 3 3 5 4 5 5 11 13 11 8 6 2
50 51 51 50 41 37 33 31 35 36 34 34 31 30 26 9 14 14 18 16 11 5 4 9 10 9 6 5 5 4 3 5 1 3 7 6 4 4 7 9 13 17 15 14 10 7 2
52 53 52 45 37 35 28 30 33 37 38 38 36 28 29 17 18 15 22 13 9 6 6 9 11 11 9 7 5 3 2 1 3 4 9 12 9 11 18 19 15 18 15 4 3 3 1
52 52 48 36 34 33 28 32 35 36 31 29 32 29 26 24 25 25 21 20 6 7 9 10 11 14 9 8 4 2 3 2 10 9 7 9 6 8 11 14 15 9 5 3 4 3 3
54 53 44 36 33 32 29 33 34 31 26 30 28 29 31 24 31 30 24 16 6 9 9 14 16 15 12 9 5 4 5 6 5 5 4 5 6 8 9 14 6 6 9 8 9 10 6
55 52 41 36 32 27 29 31 32 24 26 30 35 14 14 32 30 22 30 16 10 10 9 15 10 10 12 11 7 7 5 5 4 7 8 15 8 14 9 14 7 9 6 3 4 3 3
56 49 41 33 26 28 30 29 27 21 27 29 32 11 17 19 27 27 30 15 14 15 8 15 9 12 12 13 8 6 5 5 4 5 9 9 5 7 11 9 9 6 6 6 6 4 3
57 46 40 29 27 28 27 27 22 21 26 28 29 21 14 20 25 32 28 17 11 13 12 10 9 9 13 14 11 4 7 4 6 7 5 5 10 9 9 6 4 4 7 7 3 2 6
56 44 38 26 26 27 24 23 18 20 23 26 23 14 16 26 25 25 19 22 13 12 15 11 10 8 13 13 7 5 8 7 7 5 3 4 6 7 4 3 5 1 3 7 10 7 5
53 43 37 23 25 25 24 18 17 18 20 20 17 9 18 26 9 16 20 9 12 12 16 11 10 9 13 13 7 11 10 8 7 5 6 6 5 4 5 5 4 3 4 3 2 3 5
46 41 33 25 24 23 21 17 17 18 16 18 9 5 6 17 23 13 11 4 11 10 14 14 11 9 11 9 8 8 9 9 9 7 5 5 6 7 9 7 4 5 7 6 3 3 1
40 38 28 26 23 22 19 17 16 13 17 12 5 2 1 3 5 22 10 8 8 10 12 18 11 10 8 4 5 6 5 7 5 10 8 4 5 5 3 3 2 2 5 9 8 6 6
37 35 28 24 24 22 20 16 16 10 9 1 2 5 2 3 7 6 19 12 9 11 11 15 11 12 9 6 4 9 5 6 6 5 9 5 6 5 1 1 2 5 4 5 5 5 5
35 32 28 24 24 21 17 16 12 6 7 3 3 5 7 9 8 11 7 12 14 12 12 15 14 14 10 8 6 6 3 5 1 5 5 5 8 6 3 2 0 1 0 1 4 6 9
33 31 30 26 24 22 16 13 3 4 7 3 4 4 4 3 8 14 8 17 16 15 11 15 16 11 11 8 9 9 8 4 3 5 5 5 7 2 1 1 5 6 3 3 3 2 5
33 31 29 26 21 17 10 1 5 8 8 4 3 7 6 1 9 4 10 19 16 14 15 16 14 16 15 14 8 4 4 3 4 5 6 7 5 4 2 1 3 1 0 1 3 3 5
33 31 22 21 17 11 6 3 5 2 4 5 7 8 3 8 4 6 17 15 17 14 18 17 15 14 12 15 11 4 3 6 5 6 11 8 7 7 5 3 5 8 6 4 2 1 3
33 26 17 13 11 10 10 9 6 7 10 13 8 7 1 4 4 13 16 12 14 14 14 18 18 17 16 13 9 7 5 8 6 5 5 11 9 7 8 6 6 4 6 5 4 6 8
29 21 12 9 8 14 15 7 4 16 17 17 13 8 2 3 9 12 14 14 11 12 12 14 16 16 13 9 7 8 5 7 9 4 9 8 9 3 7 3 3 2 2 6 9 10 12

GFSGBSN_700_spd_090.txt.gz
Wind_Speed
39 39 39 39 38 39 39 39 37 37 36 34 31 32 34 32 30 28 32 28 24 21 25 26 25 25 24 21 16 23 19 20 19 15 15 16 18 19 23 22 18 25 27 24 29 31 32
41 42 43 43 42 41 40 39 38 38 38 36 32 31 32 30 30 34 35 23 24 28 23 27 26 24 24 20 18 16 16 20 20 16 17 17 15 17 23 24 23 24 24 32 28 31 33
45 45 44 43 43 43 43 42 39 39 39 36 36 32 30 28 29 32 30 23 23 23 26 26 20 22 22 17 16 16 16 20 23 21 21 18 17 18 20 23 19 19 20 17 25 33 35
45 45 45 45 45 44 43 42 41 40 41 41 36 34 30 28 23 26 25 27 27 20 19 22 17 20 20 17 14 14 14 19 15 14 16 17 16 17 20 23 21 20 16 15 14 24 29
45 45 44 44 45 46 44 43 44 41 41 41 38 34 31 26 22 22 26 22 17 20 21 22 17 20 17 9 13 12 12 12 7 9 12 13 10 14 13 21 14 14 8 14 16 17 17
44 44 46 46 46 46 45 45 43 45 42 41 37 33 30 24 18 17 22 13 19 22 20 18 18 15 11 10 10 11 10 8 2 5 6 6 7 11 14 12 8 5 11 18 17 13 20
46 45 45 46 47 47 47 48 48 44 41 39 33 29 23 10 3 11 16 22 17 18 17 17 18 16 13 9 10 12 8 6 5 2 4 7 11 12 9 13 16 12 13 8 9 11 12
44 45 46 47 47 45 46 46 42 38 36 37 30 27 21 8 12 17 15 19 14 14 16 16 16 14 10 9 8 14 7 8 7 4 3 6 13 10 9 3 12 15 13 7 6 8 7
44 45 46 47 47 47 46 39 30 30 30 30 30 24 24 15 17 22 15 15 17 12 16 17 15 14 9 8 8 5 3 4 4 1 4 6 6 7 6 6 13 15 14 10 10 11 9
43 45 47 48 50 48 41 33 27 25 26 26 27 24 22 20 13 16 24 8 12 9 8 7 9 10 9 6 4 2 1 4 4 4 4 5 5 4 4 0 15 11 13 15 10 6 4
45 48 47 50 50 38 33 34 25 26 29 29 27 28 21 22 12 12 13 19 19 14 3 7 11 8 9 7 4 1 4 3 4 4 1 2 2 5 6 2 16 6 15 13 2 2 5
50 48 50 52 47 35 33 31 29 29 31 31 31 25 23 19 11 11 14 14 18 7 5 10 11 12 11 8 5 1 2 2 4 5 6 7 8 8 9 5 12 10 11 7 4 2 4
52 50 48 50 45 38 30 30 32 30 31 32 27 25 21 21 11 16 13 17 8 5 8 10 13 15 12 10 7 3 3 3 7 3 4 2 3 5 12 17 16 17 7 3 1 4 4
45 50 47 49 41 33 28 29 29 29 32 28 29 27 21 19 18 18 19 26 7 6 12 9 16 16 10 11 6 3 2 2 8 2 3 3 5 4 12 6 10 9 4 5 2 3 4
53 52 47 46 38 28 28 30 28 29 27 28 31 35 17 26 28 25 25 13 3 7 9 12 18 15 12 11 6 5 4 5 8 7 2 3 5 8 9 16 7 3 3 2 6 8 6
53 43 53 44 37 26 28 28 27 25 23 29 35 23 10 29 30 29 30 9 8 13 8 12 6 11 9 12 7 6 3 3 5 7 8 10 6 6 8 8 8 6 5 1 0 2 4
53 46 55 42 35 25 26 25 25 22 25 28 31 20 20 26 31 23 24 9 13 14 8 14 5 9 11 13 8 6 5 4 6 9 9 5 4 7 10 5 9 10 5 4 5 3 2
50 50 47 40 28 24 24 23 20 21 25 28 29 14 27 22 23 22 23 15 11 16 11 8 5 6 14 13 10 5 8 4 6 7 9 8 10 5 8 3 7 11 13 10 3 4 5
44 45 39 35 23 21 23 20 18 20 24 26 26 24 20 25 14 22 16 12 7 16 11 6 4 5 13 13 7 9 10 8 7 5 5 5 7 4 2 2 2 5 6 11 11 8 8
44 38 37 28 21 20 21 19 18 19 18 22 20 18 17 13 8 20 9 5 11 16 11 7 4 5 13 11 6 11 11 9 7 8 10 10 7 3 2 2 2 1 3 6 9 8 11
40 37 34 23 21 20 17 15 16 16 15 14 17 18 10 11 7 8 3 3 12 9 11 9 7 5 8 7 7 9 10 10 7 5 6 7 11 12 10 7 4 4 4 5 8 10 7
38 36 30 24 20 17 14 10 12 11 13 12 15 16 13 10 4 8 2 3 15 10 12 10 8 10 8 8 4 7 6 6 4 6 4 5 7 9 8 6 6 6 3 3 4 5 7
38 34 28 24 19 16 13 9 8 6 11 9 11 13 11 11 7 6 8 4 13 8 10 14 9 9 9 9 8 10 6 6 5 7 6 2 4 3 2 3 3 5 3 4 2 1 3
37 33 27 24 16 13 10 8 5 5 9 11 10 6 9 6 7 7 6 14 13 8 12 15 11 9 10 9 8 8 6 5 4 4 5 4 4 3 2 3 3 2 5 3 3 4 4
35 30 26 26 17 11 9 7 6 7 8 7 11 8 11 5 9 5 5 20 15 12 13 14 12 11 10 9 9 7 5 4 5 4 5 4 6 2 2 0 2 3 4 4 3 3 4
32 23 21 18 13 12 11 8 9 10 8 11 11 14 12 7 11 7 14 16 14 11 14 13 15 14 12 11 7 3 2 4 4 4 6 6 4 2 3 1 3 4 5 6 6 4 7
29 17 13 15 12 11 10 10 6 8 7 13 14 12 13 10 11 8 18 18 15 12 14 17 15 13 15 11 6 3 1 3 3 6 8 7 5 4 5 4 5 9 7 5 3 4 6
26 15 9 10 15 19 16 6 6 7 10 13 14 11 10 8 5 10 12 9 13 11 14 16 14 13 13 10 6 3 3 5 4 4 4 8 7 6 7 5 5 8 8 6 5 5 6
20 19 8 7 14 18 14 9 6 7 12 13 14 11 10 8 8 10 12 10 10 9 11 11 9 9 8 6 4 5 4 4 7 4 9 7 11 5 9 4 4 8 6 5 5 8 10

GFSGBSN_700_spd_093.txt.gz
Wind_Speed
36 38 40 41 42 41 42 41 38 36 35 32 31 31 29 27 27 28 29 28 29 29 24 28 22 22 23 19 18 25 23 18 18 18 15 15 14 12 16 17 18 26 28 27 29 26 30
37 39 41 41 41 42 41 41 40 38 37 35 31 31 31 27 25 26 28 24 31 31 25 25 23 23 19 18 21 20 18 16 17 18 17 16 17 13 20 23 21 23 24 28 23 28 28
41 42 42 43 43 44 44 42 41 39 39 39 33 31 29 27 25 25 30 34 33 37 26 23 19 18 20 12 18 19 16 16 16 18 18 18 20 19 12 17 18 22 26 24 28 27 29
41 43 45 45 43 42 42 41 39 40 37 38 38 33 30 26 23 23 27 30 34 29 27 27 21 21 21 17 17 14 16 14 14 13 9 14 17 18 18 20 23 22 24 30 19 19 23
41 43 43 43 44 44 45 45 45 45 44 41 38 32 27 21 20 20 24 25 25 24 24 20 18 21 20 15 10 13 13 12 10 8 7 11 13 15 14 17 21 17 18 16 17 18 13
41 41 42 44 45 42 44 46 46 39 42 36 34 27 21 15 12 9 9 16 18 21 25 24 23 18 16 11 11 12 9 9 8 7 9 9 10 14 15 16 14 9 17 15 15 10 17
40 40 41 44 43 45 47 48 46 38 31 27 28 23 15 9 8 10 16 17 20 20 13 15 18 13 11 10 10 11 9 8 7 7 7 7 14 18 14 16 19 19 17 19 16 17 18
38 38 40 42 45 45 48 47 41 34 26 24 25 23 15 9 17 14 15 21 24 23 18 18 21 20 14 12 10 11 10 6 6 5 5 13 18 13 20 20 20 20 20 19 14 9 14
40 44 46 47 45 44 43 42 34 32 24 24 24 24 19 11 14 24 20 10 8 21 15 21 21 17 14 12 9 8 5 5 8 10 11 14 10 15 14 10 11 13 18 16 6 12 11
50 53 48 43 40 41 38 36 29 30 27 26 25 23 22 14 10 15 19 20 7 13 6 10 12 14 16 11 7 5 1 6 6 5 8 11 9 10 5 5 8 12 12 2 5 11 3
48 45 43 38 33 43 37 32 27 28 29 25 26 24 23 19 12 13 14 18 10 5 4 7 11 12 14 12 6 3 3 6 7 4 7 2 4 8 11 11 11 8 6 9 3 10 6
53 55 52 45 34 43 33 25 25 28 27 25 27 26 20 14 14 9 11 11 13 8 5 8 13 13 14 11 8 5 6 3 6 9 10 10 10 11 9 11 15 3 5 5 8 12 2
49 50 44 44 38 36 24 26 29 29 26 27 23 22 19 9 11 6 10 15 12 7 6 8 12 15 11 10 8 6 2 4 7 4 6 6 9 4 3 4 12 10 9 3 7 1 3
45 44 44 40 50 31 26 26 28 27 27 23 23 23 18 13 14 14 6 19 6 4 6 8 12 14 7 11 6 5 5 7 3 6 2 4 1 5 11 10 3 1 5 6 4 2 4
49 54 44 50 51 36 25 26 26 26 23 25 31 25 14 17 21 20 11 11 4 5 4 9 14 10 8 7 5 5 3 3 8 5 2 1 5 6 12 10 3 3 4 3 4 6 7
61 46 47 46 37 27 25 25 25 23 27 32 20 19 9 25 27 22 14 1 5 9 10 13 4 4 6 7 4 2 1 4 3 5 6 3 3 7 11 9 8 4 5 3 4 2 5
58 50 42 36 29 24 25 23 23 26 31 22 22 31 21 27 26 20 10 1 7 8 10 7 5 5 5 6 3 2 3 6 6 7 7 3 2 6 6 5 7 6 9 4 2 4 2
56 44 39 31 23 24 22 21 23 28 30 22 25 26 19 19 22 14 5 5 0 7 10 7 7 6 5 4 3 3 4 4 6 7 5 7 6 3 3 7 10 13 11 10 6 6 7
48 42 37 27 21 19 18 20 24 28 27 23 27 28 21 16 12 6 6 9 4 12 10 10 4 4 7 4 2 5 5 8 5 3 3 6 3 1 2 6 10 8 14 13 5 6 6
43 40 33 26 18 16 17 19 23 28 24 21 26 21 15 6 5 4 2 4 2 14 9 11 6 5 6 4 4 6 7 5 8 10 9 8 7 5 7 3 3 6 12 16 10 13 18
41 36 28 25 21 16 14 16 22 24 19 13 14 16 10 11 15 8 3 6 16 9 7 8 6 5 4 2 5 5 5 7 6 7 7 8 8 11 10 7 6 7 9 12 17 13 16
39 30 26 23 21 16 17 17 20 20 15 10 13 18 11 5 1 4 8 6 11 13 7 7 7 7 5 3 3 5 4 3 1 2 6 5 5 7 9 8 8 7 8 9 12 13 14
33 28 27 22 18 13 14 16 17 16 14 11 12 14 15 14 11 9 4 6 11 11 8 12 13 6 5 7 7 7 4 4 2 3 1 3 3 4 3 5 5 4 5 7 7 6 8
26 23 24 19 18 15 12 11 11 12 12 11 8 10 10 9 6 5 8 14 13 10 9 10 12 8 9 11 6 4 4 3 3 4 4 2 2 2 0 2 2 0 3 5 6 4 4
29 16 17 16 18 17 13 9 6 6 8 11 9 9 5 10 10 5 12 17 11 10 12 12 9 12 8 10 4 3 3 3 4 1 3 3 1 1 0 1 2 1 3 2 3 2 2
28 15 11 11 13 16 10 3 5 5 4 6 9 8 9 10 9 8 21 17 11 12 12 12 12 10 8 6 2 1 3 2 3 4 2 2 1 1 1 1 0 2 4 4 2 1 4
24 23 10 11 12 18 16 3 3 4 5 9 9 8 9 12 11 17 20 14 15 15 12 13 14 12 8 4 2 1 1 1 2 2 2 2 3 1 2 2 3 5 3 3 1 2 2
23 25 15 10 13 19 14 6 3 7 9 9 4 6 8 10 11 12 14 17 12 11 9 11 9 8 9 4 1 1 1 3 2 4 2 2 2 2 2 3 3 4 7 4 5 5 7
20 22 23 11 10 15 12 8 2 9 12 11 5 6 9 8 9 11 9 13 11 13 10 14 7 5 7 5 4 3 3 3 4 4 7 2 6 3 4 4 7 6 7 8 7 8 10

GFSGBSN_700_spd_096.txt.gz
Wind_Speed
36 36 36 38 38 38 39 38 37 36 35 33 31 30 29 28 27 25 25 25 26 29 27 27 22 21 20 21 18 24 16 17 15 15 16 13 12 10 12 9 14 24 26 28 27 30 31
37 37 39 40 39 39 39 40 38 35 35 35 35 31 30 30 29 26 24 27 27 27 30 33 21 24 25 21 21 19 15 16 15 14 15 14 12 12 17 17 21 23 25 29 29 29 29
38 38 40 40 39 39 39 39 38 38 38 37 38 35 31 30 29 27 26 26 27 33 32 25 19 27 22 13 20 17 15 14 14 13 16 12 15 15 12 13 14 18 26 26 29 29 30
37 39 40 38 37 37 36 38 40 41 40 39 38 38 35 30 27 26 26 24 25 29 28 26 27 26 25 20 18 15 14 13 14 13 14 11 14 14 13 15 18 19 23 31 20 15 18
37 39 39 39 41 44 43 42 40 41 40 39 38 32 29 28 19 18 24 21 22 36 34 28 26 32 26 20 13 12 10 11 12 11 9 7 11 11 11 12 16 16 25 26 20 14 20
37 39 41 42 45 46 43 39 37 36 36 36 34 27 23 18 13 10 7 6 15 28 32 28 26 18 17 9 7 9 8 9 11 11 9 9 10 11 12 12 15 14 19 25 19 14 18
45 48 50 50 50 39 33 31 28 31 30 28 27 23 18 16 15 20 13 8 23 25 26 20 10 16 8 4 8 9 7 8 10 7 6 5 11 11 7 14 20 22 26 28 20 23 23
47 49 49 50 47 34 30 29 25 27 26 28 27 24 17 14 18 18 20 7 5 11 15 15 14 16 14 11 9 8 8 10 6 5 3 7 16 9 13 19 23 27 30 32 25 21 18
47 49 47 47 49 39 26 31 25 23 26 26 26 23 20 11 15 18 11 4 10 10 17 12 13 15 12 11 8 9 4 4 8 7 10 12 8 11 17 15 18 20 21 21 21 13 14
49 54 50 56 51 35 28 33 22 22 22 23 21 18 17 11 12 16 12 15 4 7 8 8 11 15 15 11 7 6 4 5 4 4 5 11 6 12 16 11 10 18 9 18 15 9 9
57 46 46 52 42 29 43 27 21 21 22 21 21 20 18 14 11 10 6 4 4 13 4 9 8 7 14 13 2 4 2 5 6 5 7 10 5 9 13 14 12 15 12 9 9 14 13
56 53 59 46 38 47 29 22 22 24 23 23 20 15 14 8 7 3 1 8 7 1 2 7 9 14 19 14 8 5 4 2 4 8 11 13 16 14 13 14 14 11 12 8 10 14 4
52 58 56 44 38 31 27 25 26 26 24 21 18 17 13 8 1 2 5 10 4 2 8 9 13 17 12 12 8 6 2 4 4 4 6 8 12 14 10 8 7 10 15 2 4 3 3
56 62 50 42 35 28 28 27 26 25 22 21 21 17 15 5 3 7 6 13 2 11 11 10 14 17 7 10 5 4 3 9 7 6 7 3 1 3 4 3 4 8 7 3 4 3 1
65 54 46 35 30 28 27 27 29 29 29 20 8 4 10 14 6 7 9 6 8 9 12 15 16 8 9 5 5 6 2 1 8 3 3 5 6 10 5 9 9 5 7 9 6 6 2
54 48 40 27 26 26 29 30 33 29 18 9 7 16 23 21 16 14 12 8 12 15 21 7 3 2 7 6 3 2 4 6 6 9 6 6 4 8 7 7 8 9 12 6 3 5 3
47 42 35 23 25 27 29 30 29 28 30 23 29 40 30 22 15 9 12 14 13 17 13 10 11 7 11 5 4 5 5 6 5 2 8 7 4 6 8 7 10 14 14 7 7 2 0
40 33 27 27 26 27 28 28 29 34 30 24 33 34 24 22 13 13 12 13 10 16 13 14 13 9 9 6 8 5 2 3 5 8 6 8 5 2 5 13 15 17 16 13 5 8 11
35 22 24 24 24 26 27 27 23 22 23 22 28 27 20 15 10 11 7 6 7 14 11 14 7 9 10 6 4 5 4 7 7 5 4 4 3 1 2 6 11 11 21 9 11 4 15
29 20 19 20 20 20 23 24 23 23 22 20 23 19 16 9 6 6 7 5 17 15 13 13 11 12 10 10 6 5 6 7 11 11 7 8 10 8 6 4 7 10 19 19 17 17 22
25 18 17 16 17 17 16 18 16 15 13 9 13 11 10 10 9 7 5 14 12 13 14 14 11 9 8 6 7 6 7 8 10 11 8 8 11 13 10 8 9 12 16 24 26 17 20
23 17 16 16 11 12 13 13 12 12 11 6 3 6 6 5 8 11 11 16 14 12 12 14 11 10 5 9 8 3 4 3 5 5 7 7 6 9 10 10 11 11 12 16 22 19 19
19 18 15 16 12 7 8 11 11 10 8 7 7 7 7 8 10 9 10 11 11 12 9 13 13 5 5 7 6 4 3 3 3 3 6 7 5 4 2 4 7 5 7 11 11 17 9
21 14 14 15 16 13 7 5 7 5 6 4 4 4 6 5 4 7 13 16 10 12 12 12 9 8 8 8 10 6 5 5 4 2 1 5 5 5 3 4 3 2 4 6 10 10 10
22 17 12 15 15 15 11 7 3 2 4 5 1 3 6 5 4 7 15 11 10 9 10 9 5 8 7 8 7 5 7 6 9 5 2 2 4 4 3 4 2 2 3 4 6 6 6
21 22 15 13 17 20 14 9 3 3 2 4 4 2 6 5 5 11 16 13 11 13 11 11 8 6 6 6 5 4 4 4 3 9 8 3 2 2 2 1 2 2 1 3 3 3 1
21 19 22 13 13 19 13 7 5 1 3 6 4 3 5 7 9 16 14 12 13 15 13 11 10 7 6 5 2 1 3 3 3 4 4 5 3 1 1 2 4 5 1 4 3 2 1
21 18 18 19 11 14 14 7 2 1 4 2 3 4 6 9 9 8 7 11 14 13 10 10 9 6 4 2 1 1 1 3 3 6 5 1 1 1 2 3 4 4 5 4 2 2 3
20 17 16 19 15 10 15 8 2 1 3 3 4 5 5 6 7 9 12 9 10 11 12 12 8 5 6 5 4 3 2 5 4 3 4 4 7 4 6 5 6 6 4 4 5 5 6

GFSGBSN_700_spd_102.txt.gz
Wind_Speed
34 38 42 43 45 46 45 46 42 42 37 35 28 22 22 22 22 23 20 23 23 20 19 19 23 35 26 24 21 15 15 13 15 14 12 12 13 15 16 14 16 22 22 24 24 26 27
36 39 44 44 47 50 56 58 46 42 31 26 23 23 20 20 20 17 16 18 20 21 22 25 31 25 14 16 16 15 15 12 11 11 13 12 12 14 17 16 19 20 21 23 24 25 29
37 40 45 46 48 50 48 42 42 29 25 22 25 22 19 18 19 16 18 17 17 18 22 28 34 35 30 17 18 16 11 9 11 12 12 14 15 14 15 13 17 22 24 21 20 18 22
40 47 48 52 49 53 50 41 37 23 21 19 14 17 17 14 15 15 17 17 19 18 19 25 33 29 25 17 10 9 8 9 11 12 13 14 15 15 15 14 16 19 20 23 11 15 11
47 51 54 56 58 48 39 23 25 30 13 7 8 10 14 16 19 18 17 18 22 13 16 23 33 34 20 14 16 11 10 11 13 12 13 14 13 12 11 11 13 11 14 16 19 9 19
51 55 57 59 45 43 38 33 19 23 9 7 9 11 15 15 15 15 12 8 7 9 23 24 27 24 19 15 13 13 12 12 11 10 10 9 11 11 12 12 9 8 13 22 25 20 28
49 48 54 43 42 37 34 28 23 18 15 13 13 14 14 15 14 13 10 17 20 21 32 29 23 19 14 14 15 14 13 11 9 8 7 8 11 9 2 6 9 13 19 25 28 21 26
51 51 50 44 42 35 33 30 27 22 19 15 13 13 12 12 11 9 7 14 15 19 27 17 16 19 10 11 17 15 11 9 9 5 6 8 7 4 6 9 11 14 20 26 31 16 23
51 55 52 46 41 33 31 29 25 23 20 16 12 13 13 9 6 6 3 6 4 18 20 11 10 18 22 15 10 10 9 6 3 7 5 8 2 5 6 8 14 18 24 24 24 26 29
52 54 52 48 41 35 34 28 26 24 21 18 17 18 16 9 5 7 11 9 12 29 17 17 24 20 17 14 12 9 7 5 6 4 7 10 2 7 8 14 12 21 15 18 20 24 11
49 53 51 47 42 33 31 29 28 25 20 14 15 17 13 10 14 14 4 1 26 10 4 10 10 19 15 10 8 10 8 6 6 4 7 1 5 10 10 13 13 21 18 22 25 28 26
45 49 47 47 41 34 31 30 30 26 18 14 17 19 16 15 16 18 14 14 11 6 6 7 9 14 19 12 7 9 7 7 5 8 11 11 13 16 14 12 15 18 24 24 25 25 8
41 43 46 44 41 37 34 31 29 26 26 24 23 20 19 19 17 15 13 11 8 8 8 11 14 20 15 10 6 7 4 3 2 2 5 6 7 9 8 4 5 8 11 5 2 3 3
37 40 43 42 38 34 35 34 32 27 27 26 26 24 22 21 18 15 16 11 9 15 17 19 23 19 11 9 5 3 3 3 7 6 8 3 3 2 2 1 3 6 9 5 4 3 3
35 36 37 39 34 32 31 32 31 28 27 28 29 27 24 18 14 12 23 25 14 14 19 25 16 10 10 5 1 3 5 7 4 2 1 4 1 3 1 4 7 6 8 15 5 7 1
31 32 33 35 34 28 25 26 26 28 29 30 27 25 25 20 18 24 35 29 22 20 16 10 6 5 5 4 2 2 3 6 5 5 4 6 2 4 3 7 5 7 12 5 5 4 2
30 30 31 31 31 26 22 20 19 19 20 21 17 22 23 22 25 28 35 27 23 17 13 9 12 12 13 12 11 6 4 8 6 5 7 7 3 3 3 4 8 9 9 6 6 4 2
31 27 28 29 27 26 22 17 14 12 10 7 8 16 16 16 18 24 26 23 20 18 19 18 13 11 10 12 8 6 6 4 4 4 6 5 4 3 2 7 8 10 13 4 4 3 5
29 29 26 26 25 23 21 20 17 13 10 9 13 14 13 14 21 21 22 19 15 13 14 11 10 10 7 7 5 6 9 8 4 1 3 4 3 6 4 1 9 13 13 3 6 4 5
32 27 27 24 25 24 23 19 17 16 15 15 14 13 12 14 13 19 18 17 20 18 17 15 13 13 10 9 7 7 7 9 6 5 5 3 9 9 6 5 13 22 24 14 8 11 14
29 29 25 23 24 24 22 21 19 18 18 17 14 13 12 11 11 14 13 14 16 17 14 10 8 9 7 8 10 9 7 5 9 8 6 6 7 9 8 7 9 17 22 18 21 16 13
29 27 26 24 22 25 25 21 20 20 19 17 12 14 10 7 15 16 16 15 14 13 11 10 11 9 7 8 8 8 7 7 8 9 5 5 4 7 7 9 9 12 14 18 22 23 24
30 27 26 27 24 23 26 24 18 18 19 18 16 13 12 2 10 12 12 11 13 11 8 8 7 7 5 6 5 7 10 9 7 6 5 3 1 1 1 2 3 4 9 14 13 13 11
30 27 26 25 27 20 24 24 15 15 17 18 15 16 14 1 8 10 10 10 9 10 8 6 6 5 5 3 2 5 5 5 7 5 4 5 4 1 1 2 3 1 2 4 4 4 6
29 28 26 25 25 20 19 22 16 13 12 14 15 15 15 2 11 14 11 9 10 11 9 6 4 4 3 1 2 4 4 3 4 5 4 4 4 2 2 2 2 4 4 3 2 3 4
29 25 27 25 21 22 16 19 16 11 10 11 14 15 13 5 10 15 13 13 12 12 11 8 7 5 4 3 3 3 3 4 4 4 4 5 5 4 2 2 3 3 5 6 6 8 9
29 23 22 26 23 19 18 14 14 11 6 8 12 12 12 6 4 10 11 12 13 12 11 10 8 6 7 6 6 4 4 6 5 5 5 7 7 6 6 4 5 7 5 6 5 3 7
28 25 18 22 23 20 19 14 11 10 9 6 8 9 9 7 2 4 7 10 11 12 11 8 10 11 8 7 5 5 6 6 8 10 9 6 5 4 5 5 6 8 7 9 6 6 8
27 25 19 17 21 18 16 16 10 9 7 6 6 6 6 7 6 4 6 7 9 11 11 12 11 5 7 6 6 5 8 8 9 6 8 8 7 5 8 5 6 6 8 9 11 10 10

GFSGBSN_700_spd_105.txt.gz
Wind_Speed
34 35 41 48 51 52 53 54 56 47 36 28 24 19 20 25 18 20 21 23 22 19 20 19 20 27 31 31 22 11 9 8 9 13 14 14 15 15 15 14 18 23 24 25 28 27 27
37 45 53 55 49 41 43 39 42 35 24 31 21 19 16 18 19 19 23 21 19 20 19 18 21 28 27 27 17 24 16 12 12 14 12 11 12 14 15 15 19 22 25 25 25 23 27
55 61 59 55 43 43 44 42 32 16 12 12 12 7 15 12 16 18 22 17 16 15 19 22 21 28 20 18 20 14 13 12 12 12 10 12 12 14 14 14 19 22 25 24 19 20 24
58 62 60 55 47 39 42 40 36 38 24 8 3 2 5 9 14 16 17 18 16 13 17 20 25 29 12 8 13 17 17 11 10 10 11 10 12 14 14 16 18 20 22 21 11 16 19
56 62 61 61 47 37 37 37 35 29 24 18 12 11 8 7 13 12 12 16 14 10 14 18 21 21 18 18 22 13 8 9 11 11 12 12 13 14 15 14 14 13 13 15 16 13 17
54 60 64 63 49 38 35 33 32 28 23 17 13 12 13 11 10 7 6 12 9 8 14 18 20 19 20 15 7 15 14 12 11 10 11 12 15 15 14 11 4 6 11 17 22 16 27
53 56 62 64 50 36 35 32 30 27 24 19 16 15 14 13 10 4 2 10 13 16 25 24 20 23 8 12 5 16 11 12 10 8 9 11 12 8 3 5 7 12 16 21 21 18 23
49 54 57 59 53 37 34 32 28 25 21 21 20 18 12 11 7 5 4 16 24 24 20 20 13 11 13 12 15 14 13 10 7 6 8 10 7 6 7 8 12 13 17 22 23 15 23
46 51 51 54 51 42 33 33 28 20 15 17 17 14 12 11 10 4 3 13 13 23 18 16 13 15 14 14 10 15 12 6 2 6 6 6 3 2 5 8 13 16 21 22 23 23 24
45 47 46 48 47 41 32 28 24 18 15 13 15 17 18 18 15 16 18 19 21 26 15 13 18 21 17 14 14 11 9 3 3 3 5 8 5 7 9 15 13 23 10 15 21 20 12
41 44 44 43 42 41 34 26 20 19 17 19 21 20 21 20 16 12 11 19 28 17 4 13 13 14 18 10 13 12 10 6 5 5 6 1 5 8 13 13 12 23 18 20 24 28 32
37 39 41 39 40 38 35 30 26 23 23 25 23 24 24 22 23 24 28 21 9 6 5 4 16 18 14 11 8 11 8 8 6 8 10 11 12 15 15 15 15 17 22 23 20 21 8
35 35 37 37 35 35 31 30 27 26 25 26 25 24 23 21 20 15 12 8 8 8 6 11 15 19 15 10 9 9 8 7 3 4 5 8 9 10 9 7 4 8 13 6 3 3 3
34 34 33 33 32 28 30 27 27 27 28 27 25 23 20 17 13 16 19 18 12 12 11 14 20 14 11 9 8 6 5 7 5 8 8 4 4 2 0 2 5 10 11 4 4 3 3
34 32 32 30 30 26 22 22 24 26 29 31 30 26 21 17 15 23 28 24 10 11 18 22 14 7 6 3 4 4 3 4 2 3 1 4 3 2 3 5 6 5 6 14 6 9 4
33 32 31 29 27 27 23 20 18 17 23 27 25 24 24 20 15 25 36 31 22 21 15 9 4 3 2 2 1 2 3 6 4 6 4 4 4 4 4 6 5 9 13 5 4 3 3
37 31 31 28 27 26 23 22 21 21 20 22 22 18 14 17 19 23 33 26 19 13 12 11 10 8 8 8 8 5 4 5 6 6 8 5 3 4 5 3 8 13 10 6 6 4 2
37 34 29 29 28 27 28 22 21 22 24 24 24 16 12 6 8 21 22 22 20 17 16 14 10 10 8 5 9 7 8 6 4 4 7 7 6 7 2 5 12 11 14 15 4 0 2
35 35 31 28 28 28 25 26 22 20 21 24 22 15 12 4 11 17 17 17 16 14 8 8 7 8 6 4 5 8 8 8 5 5 6 6 4 8 4 3 10 14 15 9 10 5 3
33 33 33 30 28 27 26 25 24 20 20 22 21 19 10 7 14 15 13 12 13 13 11 10 10 10 7 6 6 5 5 8 6 4 5 2 6 6 3 3 10 20 16 5 3 0 5
38 32 32 32 29 27 25 26 25 21 18 19 22 21 13 5 11 12 9 12 12 9 8 6 7 7 5 6 7 7 5 3 8 7 5 3 3 5 5 6 7 16 19 10 11 9 6
39 34 30 33 30 30 22 26 23 18 19 16 19 20 13 6 7 9 11 10 9 6 6 7 7 8 7 6 7 6 6 5 7 7 5 4 2 2 3 4 6 11 9 16 20 20 19
40 36 32 29 31 30 22 25 21 20 18 16 15 15 11 2 6 9 8 7 8 6 5 4 5 6 4 4 5 5 5 7 5 6 3 3 2 3 2 4 4 3 6 9 10 9 7
39 37 32 30 28 28 22 22 20 17 17 15 13 12 10 1 6 8 10 8 7 6 4 3 2 1 1 1 3 4 4 3 5 4 3 4 5 3 3 7 2 2 2 2 1 2 5
34 36 32 29 27 24 24 19 20 14 14 14 13 11 9 2 7 10 11 10 10 9 6 4 3 2 3 6 8 6 5 4 4 4 4 4 6 5 3 3 5 6 5 4 3 3 3
31 33 31 30 28 25 20 20 16 13 11 12 13 10 7 5 4 9 14 11 11 10 10 7 6 6 7 7 7 6 5 6 3 5 5 6 6 5 5 3 4 2 5 7 6 10 9
32 28 30 26 26 27 21 17 15 13 9 8 11 11 8 3 4 5 9 11 12 12 11 12 10 10 10 9 9 6 6 8 6 6 5 9 9 9 7 6 7 6 8 8 5 5 5
33 24 31 25 23 24 22 17 14 12 12 8 6 8 8 6 1 3 5 10 13 14 14 12 12 13 12 8 6 5 8 8 10 12 12 10 8 5 4 5 5 5 8 8 7 7 7
29 24 29 25 24 21 21 18 12 12 11 11 8 5 6 6 7 3 5 6 8 12 15 16 15 10 6 6 6 5 9 12 15 10 15 8 6 7 6 6 7 8 9 10 12 13 10

GFSGBSN_700_spd_108.txt.gz
Wind_Speed
50 57 65 68 51 40 42 46 45 48 28 6 10 20 17 17 18 21 16 11 8 8 14 25 26 22 24 25 29 7 13 13 13 16 16 14 15 15 16 16 18 22 23 24 26 23 26
53 58 65 70 51 44 42 44 44 47 32 16 15 13 11 9 10 15 15 13 10 10 15 13 8 27 22 26 16 19 17 11 12 12 12 13 13 13 13 13 17 21 22 23 24 20 28
52 56 60 63 53 43 40 40 41 38 38 33 17 13 3 5 5 10 14 13 11 7 14 17 15 23 21 19 14 12 18 18 15 13 11 11 11 10 10 13 16 19 24 22 21 21 24
48 49 52 57 55 40 38 38 38 35 30 25 22 19 11 5 6 7 9 13 9 8 12 13 12 23 18 20 7 3 10 16 11 10 9 9 9 9 10 13 17 19 23 20 13 18 21
46 43 43 52 55 46 36 35 35 32 27 23 18 15 11 4 8 6 9 15 10 3 9 13 18 14 3 3 1 9 4 10 11 8 7 7 8 10 11 14 15 15 16 18 14 13 19
44 42 42 47 51 51 40 35 28 25 27 23 18 15 11 4 5 7 9 10 12 4 10 14 13 11 5 7 4 7 10 8 8 7 6 7 9 10 11 12 7 9 14 18 19 12 24
43 42 41 42 44 45 46 41 33 23 21 20 16 13 10 8 3 6 8 13 18 12 17 15 12 3 4 6 5 4 4 8 7 7 6 7 7 7 7 9 11 13 17 23 18 18 23
41 42 39 40 42 40 39 38 33 26 21 18 17 15 13 10 7 9 12 16 19 22 17 11 5 12 4 7 8 7 9 9 6 4 3 5 6 7 9 9 11 14 19 23 23 11 27
39 39 40 37 39 40 37 36 35 32 25 20 18 16 12 11 8 13 17 24 23 20 18 10 10 8 9 6 7 7 7 4 1 2 3 3 2 3 4 8 13 16 21 23 24 24 26
37 37 37 38 34 39 38 38 37 36 34 29 25 24 17 21 21 17 24 27 21 19 10 8 8 11 11 12 9 7 6 4 4 4 5 3 5 8 9 12 13 22 9 19 23 18 10
37 36 34 34 33 33 36 38 37 37 37 36 34 31 24 19 21 24 18 26 22 7 5 4 9 11 13 5 10 8 6 4 1 2 4 1 3 5 11 14 14 20 17 21 25 27 29
37 36 34 30 30 28 31 34 37 39 41 38 30 27 27 27 25 27 27 27 15 5 5 3 7 10 8 12 5 8 4 5 2 3 7 7 11 15 13 14 18 19 20 22 18 14 6
38 35 33 31 26 26 25 26 30 34 37 42 38 23 15 16 14 15 18 16 8 8 6 5 14 12 11 6 8 5 4 5 0 3 5 10 6 10 9 6 3 5 13 6 3 3 4
43 37 32 31 29 24 23 24 24 27 30 33 37 28 21 11 7 7 11 13 11 10 9 21 18 10 10 12 7 4 1 4 5 7 8 6 4 2 0 2 5 9 9 4 4 3 5
43 41 34 30 29 29 24 23 24 24 27 29 28 28 19 16 9 7 11 16 10 13 20 17 12 8 4 6 3 1 6 7 4 6 5 4 4 3 3 4 6 4 7 13 7 10 5
44 42 40 32 29 28 28 23 24 23 23 25 21 18 20 21 17 17 30 27 21 22 17 7 4 4 4 4 3 1 1 3 3 6 1 3 7 3 4 4 5 8 13 4 4 3 3
42 43 41 38 32 28 27 25 22 21 22 22 17 15 13 12 13 14 29 24 16 12 11 12 13 10 10 8 7 3 4 3 5 5 4 5 4 3 4 2 8 12 10 5 7 5 2
43 41 43 40 36 32 25 26 23 20 20 18 19 13 10 4 4 16 20 19 17 15 13 11 9 8 4 4 7 5 6 5 5 6 8 8 6 10 5 7 12 11 8 12 4 3 3
48 41 41 41 39 35 26 28 26 20 17 16 18 15 12 7 7 14 16 17 14 8 6 8 6 5 3 4 4 6 4 6 6 7 7 8 6 8 3 5 11 15 16 8 6 6 2
48 44 38 40 40 38 27 28 25 21 18 16 17 11 10 5 7 8 10 9 12 10 10 10 8 7 7 8 7 4 3 5 6 6 5 5 6 5 2 4 12 17 19 10 2 1 3
46 47 42 36 38 37 28 28 24 22 20 15 13 13 9 6 5 3 3 8 6 6 6 5 6 5 3 3 6 5 4 3 6 6 5 4 4 4 3 5 10 12 16 9 6 5 3
43 46 43 37 33 37 32 25 23 21 20 17 14 10 9 6 6 5 5 5 4 4 4 5 5 7 5 4 6 5 4 2 5 5 4 4 4 6 4 3 6 8 6 10 14 13 11
40 43 43 38 31 30 32 24 21 18 18 16 15 10 10 5 8 7 4 4 3 1 2 2 3 2 3 3 4 3 4 5 4 5 6 6 7 8 4 8 9 4 1 3 5 5 5
36 40 42 39 33 28 29 29 18 15 15 16 14 9 5 7 6 11 9 6 6 5 2 2 2 2 2 4 5 7 7 6 5 4 5 7 9 6 6 9 3 2 4 4 2 2 3
35 37 37 38 33 30 26 29 24 14 11 12 13 10 2 6 8 8 8 8 9 9 8 7 6 6 6 8 9 5 4 3 5 6 5 6 8 7 5 8 11 9 8 6 6 6 7
35 33 33 33 32 28 23 22 26 17 12 10 10 10 8 2 10 13 12 10 12 13 13 12 11 11 11 11 9 4 3 4 3 5 5 6 8 7 8 4 4 3 6 8 8 14 10
36 30 29 27 32 29 25 19 19 21 14 10 9 9 7 5 5 11 14 15 14 15 17 16 17 15 14 13 11 6 5 6 5 4 4 10 8 11 11 8 9 11 8 9 6 4 4
34 29 27 24 31 28 25 21 18 17 19 12 10 8 7 7 6 7 10 14 14 15 15 15 15 17 16 13 8 7 7 7 9 9 11 8 6 6 5 7 7 5 8 11 10 10 9
32 27 26 25 25 27 23 23 18 15 15 18 14 10 10 9 10 9 10 11 13 15 16 17 16 11 6 8 7 7 10 13 20 13 17 11 7 7 8 8 12 16 16 14 15 15 14

GFSGBSN_700_spd_111.txt.gz
Wind_Speed
37 42 47 52 54 52 48 45 44 44 42 30 13 9 13 8 8 11 10 7 3 5 19 23 23 31 31 25 29 15 14 17 18 18 16 16 16 15 16 16 17 19 20 20 21 19 24
39 40 44 49 50 51 48 45 42 40 34 28 22 12 5 6 2 3 5 6 3 4 2 9 28 29 32 27 26 20 17 21 20 17 16 15 15 14 13 14 16 17 16 18 18 18 25
40 40 42 45 45 46 47 46 42 38 34 27 20 14 3 4 2 4 1 10 0 5 2 5 11 28 24 21 23 11 17 20 18 17 15 14 12 12 12 12 15 16 17 17 18 17 21
41 41 41 42 43 43 44 42 40 38 35 26 18 12 5 5 2 1 6 11 4 1 3 9 8 17 16 18 8 14 16 15 18 13 12 12 12 11 11 12 13 14 16 12 11 17 21
41 42 41 42 41 40 40 38 37 34 34 30 21 14 8 0 4 3 9 10 5 7 12 12 11 17 19 15 11 6 5 14 16 11 10 10 10 10 10 9 10 10 11 14 12 13 18
40 40 41 38 40 39 39 39 38 36 30 31 25 19 7 5 3 5 7 8 9 15 20 16 8 11 16 12 14 4 3 10 14 12 9 8 8 7 6 8 4 8 13 13 13 13 24
39 38 40 36 39 38 38 38 39 41 35 30 26 21 11 2 5 11 9 9 15 26 20 15 12 13 16 12 7 5 7 9 8 8 7 6 4 4 6 6 7 9 12 16 14 16 26
41 38 36 35 37 36 38 39 39 40 42 36 29 26 13 7 9 15 12 16 16 24 21 13 10 10 14 10 7 3 3 7 4 5 4 3 3 5 5 4 6 9 14 16 13 8 26
42 40 35 34 35 34 37 40 41 39 38 40 37 27 22 14 16 16 14 18 20 18 22 19 13 9 7 3 3 4 5 5 4 3 3 2 3 3 2 3 8 11 14 12 15 23 23
42 40 37 33 31 34 35 39 40 41 39 33 37 32 21 19 24 21 20 15 18 12 11 11 8 7 3 8 9 8 8 7 4 3 1 2 1 3 5 5 10 14 8 15 17 16 9
44 40 37 36 31 30 32 36 38 40 42 33 27 30 26 24 26 23 21 21 17 9 6 6 5 5 4 5 7 7 7 4 3 2 3 2 2 3 6 7 9 8 12 18 21 23 27
44 41 37 36 34 30 29 32 33 35 37 38 25 26 28 18 20 24 23 17 8 5 4 3 4 9 11 10 4 5 3 2 4 1 3 3 7 9 8 10 12 13 13 16 12 8 5
44 42 39 35 34 32 29 29 29 29 30 34 31 18 13 14 15 14 14 7 6 10 5 4 9 10 8 6 8 6 5 5 2 4 8 5 3 5 5 4 3 6 10 5 3 3 5
47 43 41 38 34 32 30 27 27 27 27 26 30 26 18 11 9 6 3 6 12 5 9 16 12 9 11 10 6 4 4 6 6 5 7 8 4 6 5 6 5 11 7 4 4 2 5
47 45 41 40 37 30 28 26 24 24 22 18 23 26 23 17 10 3 7 16 7 12 16 12 11 6 5 4 3 3 6 10 7 5 2 4 4 3 3 5 6 4 6 9 7 9 5
48 45 43 40 39 36 27 25 22 21 19 13 18 20 23 23 19 17 27 25 17 17 10 6 4 5 3 4 4 4 7 9 5 5 4 3 5 3 4 6 6 11 10 4 3 3 3
47 45 44 42 41 38 30 25 19 18 18 12 15 17 17 17 13 14 30 23 15 11 9 8 12 8 9 8 7 4 6 6 5 5 4 3 3 3 4 4 8 12 5 4 6 4 2
45 46 43 44 41 39 33 27 20 17 16 13 12 15 12 12 8 16 22 20 16 13 11 9 8 8 7 6 6 5 6 6 6 6 6 6 5 8 4 6 7 9 5 10 4 1 3
42 46 44 41 42 39 34 31 23 20 16 12 13 16 12 9 9 12 15 15 13 9 7 7 4 3 3 2 3 4 3 4 5 5 5 6 5 7 1 2 9 15 17 2 5 6 3
38 44 44 41 39 37 34 30 26 23 19 12 7 11 12 7 7 7 9 8 9 8 8 6 6 6 6 6 3 3 3 3 4 6 4 4 4 3 3 2 8 10 13 3 2 4 4
35 41 44 42 36 35 33 29 26 22 21 15 8 10 9 11 6 3 3 7 4 3 3 3 4 1 1 1 2 2 4 2 3 6 4 5 5 7 7 6 7 9 8 6 2 3 4
33 38 42 41 36 34 33 31 24 20 20 17 10 7 11 10 8 4 4 4 3 2 1 1 1 2 4 5 4 5 5 4 4 5 5 5 6 13 11 7 9 10 6 4 3 4 6
33 35 40 40 36 32 30 29 27 20 17 18 15 6 3 10 9 8 4 3 3 0 1 3 3 3 3 4 5 6 5 5 5 6 5 5 8 11 4 7 13 10 10 6 4 3 4
32 32 37 39 35 32 28 26 25 20 15 15 14 10 3 4 11 11 8 5 4 4 5 4 5 6 7 9 10 11 11 11 10 10 8 8 9 7 7 7 2 3 6 10 9 8 8
32 31 33 35 35 31 29 23 24 23 18 13 13 12 6 5 8 11 12 11 8 8 8 9 9 9 10 10 13 8 7 7 7 10 10 8 8 7 4 8 16 13 12 11 10 7 9
32 30 31 32 32 33 29 24 18 21 20 16 12 11 10 6 9 13 14 13 12 11 12 12 12 12 12 14 11 5 5 8 5 7 9 10 10 11 8 4 5 3 5 7 9 12 10
33 32 30 29 29 30 30 24 21 16 18 18 15 12 11 9 7 10 15 17 17 16 15 13 14 14 14 14 11 8 8 10 6 7 6 9 13 15 15 9 9 12 10 8 6 5 6
36 34 31 27 27 27 28 26 20 19 14 16 17 17 14 12 11 7 10 15 18 19 18 16 14 14 11 11 7 7 8 9 10 12 11 13 7 6 5 6 6 6 7 7 9 13 15
37 36 31 25 24 25 27 24 22 20 17 14 12 15 15 15 16 16 14 13 14 17 18 18 17 15 8 6 7 7 10 13 20 13 16 9 8 8 10 10 15 23 27 29 29 26 19

GFSGBSN_700_spd_114.txt.gz
Wind_Speed
40 39 39 40 39 39 39 38 37 34 33 29 21 16 9 5 1 3 1 4 8 2 11 18 27 36 33 35 23 10 10 10 13 14 16 17 16 16 17 17 17 18 18 17 16 18 21
40 40 39 41 39 39 38 36 34 33 31 26 21 14 2 8 3 4 5 11 8 6 5 16 24 33 35 19 20 19 9 18 14 15 16 17 16 16 14 16 15 13 13 15 15 17 21
39 39 39 42 38 38 37 37 34 30 29 28 20 15 10 6 7 5 11 14 9 9 6 8 21 26 36 21 10 17 15 15 21 16 15 16 15 15 14 11 13 13 13 14 15 16 21
39 38 37 39 38 39 38 38 36 30 28 27 25 14 9 7 7 8 17 18 13 12 10 9 25 24 27 23 16 18 22 23 19 17 17 16 15 14 12 11 9 9 11 10 10 13 21
39 37 36 37 38 41 43 40 37 33 29 27 25 14 10 9 9 14 16 13 17 10 17 16 28 26 23 17 18 9 17 17 20 16 14 14 13 12 10 8 8 8 8 10 11 13 19
40 38 35 34 37 42 46 45 38 37 30 33 26 18 16 13 10 16 15 16 19 13 25 23 21 20 26 22 13 12 16 17 21 14 12 12 11 9 9 8 3 5 7 11 10 13 21
40 39 36 33 34 39 45 48 45 38 42 35 33 22 19 16 13 19 19 21 26 24 31 23 18 23 25 15 14 11 15 16 17 12 11 9 8 8 8 8 8 8 7 11 10 18 24
41 39 37 34 33 34 41 46 48 37 43 40 31 25 21 18 20 21 21 18 22 27 27 26 20 21 15 13 11 12 15 13 12 10 9 7 7 7 7 6 5 5 7 10 12 10 21
43 40 37 37 34 32 35 40 44 36 38 33 28 23 21 19 21 23 17 22 22 24 33 23 17 15 12 9 9 8 11 11 10 9 8 7 6 5 3 3 5 6 8 7 11 18 17
45 41 38 35 36 33 32 34 39 35 32 30 27 22 18 18 24 21 19 20 15 16 15 12 9 10 13 14 10 11 11 9 6 5 6 3 4 4 3 4 7 6 6 10 12 13 6
47 43 41 35 34 34 30 30 33 34 26 30 22 20 19 18 19 22 20 13 11 7 5 6 10 8 9 10 10 8 7 8 6 6 6 4 2 1 3 4 6 4 9 14 14 14 15
49 45 43 39 32 33 30 28 30 30 29 21 22 20 17 17 18 17 14 9 7 4 6 6 9 9 10 7 8 7 6 7 7 5 5 1 2 3 3 5 5 8 8 10 3 3 5
50 47 43 42 33 31 29 26 26 26 26 30 21 17 14 8 9 8 7 6 4 10 4 6 10 8 10 9 10 9 8 6 5 3 6 5 4 4 3 3 1 6 8 3 4 4 2
49 46 44 43 36 31 28 24 24 23 19 26 27 21 14 10 4 3 7 7 14 8 11 11 13 12 12 7 9 9 7 7 8 4 5 4 2 2 3 3 2 5 3 3 4 3 8
47 46 44 41 39 32 29 22 21 20 15 20 24 27 27 22 13 7 7 25 9 11 12 11 9 10 7 8 6 6 9 8 7 6 3 4 0 1 2 4 4 3 4 8 6 9 5
43 47 44 42 40 33 28 24 19 19 13 13 20 21 26 24 19 16 20 23 14 13 8 7 5 6 2 3 4 3 6 7 8 9 6 3 3 1 2 5 5 8 10 3 2 3 3
40 45 45 40 39 36 27 24 20 18 12 10 14 18 18 17 15 10 24 21 14 10 8 7 9 6 6 6 5 4 4 6 8 7 6 5 1 3 6 4 7 8 3 4 5 4 3
37 42 44 41 38 36 31 23 21 17 13 8 7 12 14 13 12 16 19 16 13 10 9 7 7 7 6 4 6 4 5 4 3 4 5 5 4 6 4 6 6 8 5 11 5 4 5
33 38 42 40 36 36 33 25 21 19 13 7 6 11 10 11 8 13 13 13 12 9 7 6 4 5 5 4 2 3 3 4 6 7 5 7 4 6 3 3 7 10 15 6 11 8 8
32 35 40 40 34 36 33 29 21 21 14 9 1 4 8 9 8 6 9 10 10 8 7 6 6 6 5 6 4 4 4 3 4 5 5 6 7 7 7 7 11 9 9 5 10 6 5
31 34 35 40 36 34 33 28 22 19 18 12 5 3 4 6 6 5 2 5 6 6 6 5 5 5 5 4 3 4 5 3 4 6 6 7 8 11 13 15 16 14 11 9 13 9 8
30 32 33 36 38 33 33 28 24 17 17 15 7 1 3 6 5 4 5 3 3 3 4 4 4 5 6 7 6 6 6 5 3 7 8 9 8 19 18 8 12 18 15 14 13 11 15
29 30 32 33 37 35 32 27 24 20 14 13 12 5 0 5 8 6 7 6 4 2 2 1 1 2 3 4 6 8 9 9 10 9 8 8 10 15 7 12 16 18 8 17 13 10 9
27 28 29 31 32 36 31 31 23 21 17 12 10 10 4 4 9 10 8 8 8 7 6 5 4 5 6 7 9 11 12 13 14 14 13 12 11 10 11 11 3 6 7 9 15 14 14
27 26 27 29 29 32 33 29 25 20 17 14 10 8 7 7 8 11 13 12 11 11 11 11 11 10 11 11 13 10 11 12 12 13 14 13 12 6 4 6 21 20 14 15 14 13 13
29 28 27 27 27 27 30 29 28 20 17 14 12 9 8 8 6 10 14 15 16 15 15 15 16 16 15 15 11 7 5 6 5 6 13 15 14 12 9 5 5 7 6 7 8 13 12
30 31 29 29 27 26 26 28 26 25 17 15 14 12 10 10 7 10 12 15 18 19 20 18 19 18 17 17 16 11 10 12 6 6 6 11 12 19 16 11 11 18 12 8 5 5 7
32 30 29 29 27 26 24 25 24 25 21 17 15 14 14 12 13 11 10 12 14 17 18 16 17 18 14 12 9 10 9 10 10 13 11 10 9 8 8 8 8 5 4 6 8 13 17
32 31 29 28 26 24 22 25 23 23 24 19 17 17 16 15 15 15 15 17 16 16 16 17 17 17 11 10 9 8 11 16 21 12 18 12 11 8 9 9 13 16 24 27 23 21 16

GFSGBSN_700_spd_117.txt.gz
Wind_Speed
34 34 34 37 41 41 40 38 34 30 27 19 13 10 3 5 7 7 8 8 9 5 11 16 22 30 34 29 20 20 27 23 21 20 20 19 19 19 18 20 18 18 18 17 17 18 20
35 34 33 36 42 44 45 40 37 31 26 18 17 14 12 5 13 9 14 11 8 8 12 12 30 33 26 19 22 18 18 22 19 20 20 21 19 19 19 17 18 16 16 16 17 18 20
37 35 34 35 40 46 49 45 42 36 27 25 19 17 18 16 16 16 15 15 9 10 9 14 16 37 26 10 12 15 17 18 15 17 19 20 20 19 16 15 16 14 13 14 15 17 20
38 36 35 35 38 46 51 47 45 33 29 25 24 20 20 21 17 19 12 12 9 10 14 18 22 21 21 12 18 25 11 9 15 14 16 17 18 17 14 13 8 10 11 7 14 15 19
39 38 36 35 36 42 49 45 43 38 36 30 26 25 25 19 24 16 15 16 10 15 16 20 18 24 17 13 17 17 14 16 16 15 12 13 14 13 12 10 7 9 4 7 8 14 19
41 37 37 35 36 39 44 42 40 36 32 33 31 30 28 27 24 22 22 23 25 26 24 19 16 20 14 12 13 12 15 23 19 14 12 12 11 10 9 9 2 6 6 8 8 11 17
43 38 36 35 34 36 39 38 36 35 32 31 27 25 29 23 19 20 29 33 36 38 34 23 19 27 21 15 18 18 16 21 18 14 9 10 6 6 10 12 12 10 8 8 8 11 20
46 42 35 35 32 33 35 34 31 32 31 29 26 24 24 22 19 20 19 25 31 33 36 30 25 24 20 20 17 20 19 15 18 10 8 8 6 9 9 9 9 8 6 6 10 12 16
48 45 39 33 31 30 32 31 27 26 28 28 25 22 21 23 22 21 20 26 26 31 32 26 21 14 15 15 15 15 17 16 12 10 9 6 8 7 6 5 3 4 5 6 8 16 11
50 46 42 34 30 28 28 28 22 24 22 22 24 23 20 17 22 21 14 14 15 14 12 18 12 14 15 14 13 12 12 14 9 7 9 4 4 4 3 2 1 3 6 6 9 13 5
51 47 44 36 30 27 25 25 24 18 19 19 17 17 16 16 18 15 11 11 11 8 4 9 14 13 16 12 11 9 8 11 7 7 7 3 5 4 1 3 0 2 6 8 10 12 14
51 48 44 39 33 28 24 23 21 23 17 13 12 13 14 11 11 11 11 9 7 7 6 7 11 12 11 11 10 10 10 10 9 9 5 3 1 1 4 2 2 5 6 7 3 4 5
48 48 44 41 34 29 24 20 19 21 22 16 11 8 9 8 8 11 13 7 7 9 3 6 7 10 10 10 12 9 10 5 3 4 4 5 4 4 4 4 2 4 5 1 4 4 3
44 47 43 41 36 29 25 19 16 17 22 23 20 14 9 8 11 10 9 12 15 9 11 12 12 12 5 8 12 12 9 7 7 6 3 3 3 1 3 4 1 4 2 3 4 3 6
41 45 44 40 38 31 27 20 15 14 16 19 21 21 19 20 17 13 19 28 9 6 7 4 10 6 6 8 7 6 11 8 6 6 4 4 1 0 1 2 1 2 4 4 7 9 5
37 41 43 39 38 34 28 23 15 11 11 14 15 18 18 17 16 12 15 21 12 11 10 11 7 6 5 3 4 4 5 7 8 9 5 2 2 4 3 5 4 4 10 6 6 3 4
34 37 41 37 38 34 30 25 19 10 8 9 11 14 14 15 12 13 22 20 15 13 12 10 7 6 6 5 5 5 4 5 7 8 7 6 1 4 6 4 4 5 4 6 6 5 3
31 34 37 38 36 35 31 26 23 15 6 4 7 8 10 11 10 14 17 14 13 11 11 10 9 9 6 5 4 3 2 3 8 8 6 6 4 6 5 5 5 6 7 8 6 3 9
29 30 32 36 35 36 30 28 22 19 9 4 3 6 7 7 8 11 12 12 11 9 7 8 6 7 6 5 2 3 3 3 3 4 3 7 4 7 2 3 5 8 12 9 13 13 13
27 29 29 31 35 34 34 27 24 20 15 5 2 1 3 5 6 6 7 7 7 7 7 6 5 5 5 4 3 2 4 3 5 5 6 7 6 10 11 10 11 11 9 12 10 7 8
25 26 28 29 31 32 32 31 24 19 16 10 3 2 3 1 1 2 2 3 3 2 2 2 3 4 3 4 3 4 5 6 5 5 7 7 8 10 16 19 19 21 19 15 17 19 10
23 25 26 27 29 31 30 29 28 21 14 12 6 4 5 4 3 2 2 2 2 1 1 2 2 3 3 2 4 6 9 8 7 9 9 12 10 16 24 8 12 18 19 21 21 22 25
23 22 24 24 26 28 29 28 27 24 19 13 9 5 4 5 7 6 7 6 5 4 5 5 6 6 7 9 10 11 14 15 17 17 13 13 10 12 8 13 23 19 13 16 22 22 17
24 22 22 22 24 25 26 28 26 25 20 16 13 9 6 6 8 11 10 10 10 9 10 9 10 10 11 13 15 17 18 19 21 21 20 17 11 11 15 19 4 8 11 12 15 16 19
26 24 22 22 23 23 23 25 25 24 22 16 14 13 10 8 7 10 13 15 14 14 13 13 14 15 15 16 19 16 15 16 13 17 19 18 15 7 6 12 23 18 15 11 12 15 16
26 27 26 24 23 22 22 22 23 22 22 20 14 12 13 13 7 10 10 13 17 19 20 18 17 17 17 17 15 5 6 10 5 9 10 12 14 14 8 6 5 10 14 11 11 9 11
29 28 29 27 25 23 22 23 21 22 20 21 19 14 11 13 13 12 13 13 13 17 21 22 22 21 21 17 11 9 9 13 7 7 8 9 11 17 16 13 15 21 18 11 3 5 10
32 31 31 30 27 26 23 23 22 21 21 20 20 18 16 13 14 11 14 13 13 14 15 18 16 16 15 13 8 8 8 8 12 16 13 9 6 9 8 9 12 8 8 9 14 21 26
33 32 32 31 29 27 26 24 23 22 21 21 20 19 18 17 16 16 18 15 16 17 18 18 17 15 10 9 10 8 11 13 16 12 14 13 15 10 15 10 20 24 31 34 34 33 29

GFSGBSN_700_spd_120.txt.gz
Wind_Speed
40 37 36 40 43 46 48 46 38 36 30 18 19 16 10 12 14 16 14 10 7 4 15 22 20 21 24 16 16 15 23 20 20 21 20 19 19 17 14 18 17 17 17 16 17 17 18
40 39 36 39 42 44 45 45 40 35 35 30 26 21 13 17 20 18 14 11 11 8 13 25 22 20 25 20 25 15 23 23 21 21 22 23 23 20 18 17 18 17 18 15 16 17 19
40 40 37 38 41 42 43 42 39 35 32 31 30 25 20 22 18 14 12 9 10 11 11 27 24 17 29 22 17 20 19 22 21 23 21 19 20 20 14 14 12 13 12 12 14 16 19
41 39 37 37 38 39 39 40 38 36 37 33 28 29 29 22 20 17 13 9 10 14 13 25 25 20 25 12 15 19 19 23 20 18 20 20 18 17 14 11 9 12 10 7 10 12 15
42 38 36 36 37 37 36 37 35 32 33 32 33 37 42 36 32 25 26 19 18 21 16 19 25 21 19 21 18 18 16 15 13 11 14 15 14 14 12 10 5 5 2 5 8 11 13
44 38 36 35 36 35 32 33 32 30 27 30 28 31 35 38 38 39 32 22 25 20 16 17 21 16 15 14 14 10 10 6 8 11 11 13 12 11 11 9 4 3 7 8 6 13 14
45 39 35 34 33 34 29 29 30 27 26 25 23 28 29 25 27 31 34 45 41 42 38 30 21 19 13 7 7 12 9 8 9 9 8 10 9 6 9 13 11 9 7 6 6 14 19
44 40 35 33 31 31 29 26 27 28 27 22 20 24 27 26 25 28 29 40 38 35 35 28 28 27 19 17 17 15 14 19 16 10 12 12 9 11 9 8 9 9 5 2 10 10 14
45 41 36 33 30 29 28 24 23 22 24 22 18 20 22 25 24 22 18 23 26 30 34 28 23 21 18 18 16 16 20 17 12 11 9 8 6 4 5 4 3 2 3 6 7 14 7
46 42 37 32 29 27 27 25 20 19 17 18 18 17 18 14 16 17 18 17 12 13 16 25 15 14 17 17 15 13 12 15 11 10 12 5 4 6 5 3 3 2 8 7 6 11 3
48 41 38 33 29 25 24 25 24 18 16 13 13 14 14 14 12 15 15 12 12 9 6 10 18 15 17 13 12 10 9 11 11 11 7 4 5 5 6 3 4 2 7 7 8 8 12
47 44 39 34 30 25 22 22 23 23 18 15 12 11 12 11 12 14 12 12 10 6 7 8 16 18 17 15 14 14 13 11 10 10 6 4 2 1 5 2 4 7 4 2 3 4 3
43 46 41 37 30 28 21 20 20 22 22 21 17 13 10 13 13 14 12 8 10 10 3 8 9 12 11 13 12 12 11 6 6 5 5 5 4 3 2 5 2 4 5 3 3 2 3
38 42 42 39 32 28 24 18 18 18 21 22 22 24 20 18 19 18 18 21 16 10 12 15 11 11 10 10 13 12 8 6 5 6 4 4 0 2 2 4 0 1 3 1 3 3 3
35 38 41 39 34 27 26 20 15 15 16 18 20 19 21 21 21 20 19 27 9 6 6 8 11 8 8 9 6 7 8 9 6 3 4 1 3 2 2 2 2 2 1 2 4 8 4
31 33 37 39 37 30 25 23 16 12 13 14 15 16 17 17 16 16 20 23 12 13 13 14 6 8 5 4 6 4 4 5 3 8 4 1 1 5 2 4 5 4 4 3 4 3 4
29 31 33 36 37 33 28 24 20 12 10 11 11 14 15 15 13 15 24 21 15 13 10 9 7 5 5 4 6 4 3 4 7 5 3 4 1 3 5 1 3 5 4 5 6 6 2
25 27 29 32 34 34 30 25 23 17 9 8 9 8 12 13 10 15 16 15 13 11 10 9 8 9 4 5 4 4 3 5 8 10 4 6 3 4 2 5 6 9 9 8 5 2 7
21 24 25 27 30 32 32 28 23 21 14 7 6 7 8 10 10 12 11 11 10 9 8 9 6 6 6 6 4 7 7 8 8 9 8 9 5 6 1 3 9 9 11 9 10 14 14
20 20 22 24 26 28 29 29 26 21 18 11 6 3 5 6 7 8 7 7 6 6 6 6 5 5 5 8 6 5 6 6 8 7 7 9 6 8 8 7 8 14 14 17 13 9 14
20 19 19 21 23 25 26 27 27 24 19 15 9 5 3 4 3 3 3 2 3 3 2 2 3 3 4 3 3 4 7 8 10 8 10 10 10 12 17 24 25 24 24 25 31 27 17
19 20 19 19 21 22 25 26 24 24 21 16 11 9 7 5 4 3 3 2 2 3 3 3 4 5 6 7 8 9 12 10 9 14 13 17 11 19 26 15 16 23 32 28 34 35 36
21 19 18 19 20 22 22 24 24 22 22 18 16 11 9 8 7 8 7 6 5 6 6 6 7 8 9 10 11 13 16 16 18 20 19 17 17 16 14 16 25 22 6 15 20 29 31
22 20 19 19 19 20 22 21 23 23 21 20 16 15 12 9 9 11 11 11 11 12 13 11 10 12 11 15 17 18 19 18 19 19 20 20 14 11 16 12 3 5 20 26 22 25 21
24 23 21 18 19 20 21 21 20 22 22 20 19 15 14 14 11 11 12 14 16 16 16 17 16 17 17 19 21 17 17 17 14 16 14 15 14 9 6 6 23 19 5 8 13 12 14
25 25 24 22 21 20 21 22 22 19 20 21 19 18 16 14 11 15 13 10 14 17 20 20 19 19 19 19 16 7 5 9 6 8 10 11 11 13 6 5 5 7 14 20 21 19 16
28 27 28 26 24 23 21 21 23 23 20 19 20 18 18 16 10 14 17 16 14 15 17 18 17 19 20 19 16 12 11 13 8 7 9 11 14 21 22 11 14 19 19 17 6 10 11
30 29 28 30 31 26 24 22 21 24 22 18 20 21 17 17 16 11 13 17 15 16 16 17 17 14 13 12 9 10 11 11 13 14 13 12 8 11 10 10 13 5 10 15 21 26 29
27 25 26 27 29 29 28 26 25 25 24 20 16 21 24 19 18 17 19 20 15 15 18 21 19 18 10 8 10 9 13 15 21 15 15 16 19 12 14 10 21 22 26 31 34 33 35

GFSGBSN_700_spd_123.txt.gz
Wind_Speed
39 38 39 39 38 41 40 40 41 39 35 29 24 23 21 20 17 14 13 11 5 7 12 19 17 14 13 20 20 26 26 25 26 23 22 23 23 23 21 22 20 19 19 15 14 15 15
39 37 38 38 37 38 37 37 37 36 35 32 26 24 23 22 19 18 17 15 8 12 20 14 18 17 14 17 19 20 21 24 25 25 24 25 26 19 19 20 20 19 16 15 15 16 15
41 38 37 37 35 35 36 35 33 34 32 32 29 27 24 25 20 16 15 14 13 12 21 26 18 14 13 15 15 15 27 24 22 20 20 24 22 21 15 14 13 12 12 12 15 14 14
41 38 35 36 34 32 34 34 30 30 35 38 36 37 36 31 29 24 21 22 20 17 19 21 18 10 19 20 16 18 17 21 18 19 19 17 16 13 12 11 13 10 10 10 10 11 11
43 39 35 34 34 30 32 32 26 26 29 31 31 36 39 41 30 30 24 24 24 19 18 21 18 20 21 19 16 14 18 20 17 16 17 16 15 14 12 10 10 10 6 8 9 11 10
45 41 36 33 33 29 27 31 25 23 25 27 27 31 35 40 40 33 24 23 27 28 28 26 17 25 22 18 17 27 25 23 16 15 13 13 13 12 11 12 7 8 9 7 7 8 10
46 42 39 33 32 31 25 25 26 22 23 25 25 29 35 40 43 35 36 35 36 32 26 31 21 22 17 19 18 10 10 13 13 12 13 11 13 12 12 11 10 8 7 4 5 10 15
46 43 40 34 30 30 27 23 21 20 19 21 22 22 27 25 28 27 30 36 39 38 42 32 25 21 14 14 15 13 10 13 12 14 15 14 10 9 8 8 7 7 5 3 7 10 16
44 43 40 37 29 28 28 24 20 17 17 17 17 17 19 20 23 20 21 23 32 35 40 32 26 21 19 17 15 16 15 18 20 18 14 10 7 5 7 7 7 5 5 7 10 14 13
44 43 40 36 31 27 27 28 24 20 18 17 15 16 15 18 19 19 16 15 14 19 20 31 19 18 19 20 15 15 15 17 16 12 12 7 6 7 6 5 6 5 5 7 10 11 6
43 42 39 35 33 25 25 26 27 25 22 18 16 15 14 15 17 17 14 12 13 7 7 11 22 19 19 14 14 11 8 8 11 10 4 6 6 7 6 5 7 6 5 7 9 9 14
39 41 40 36 32 27 23 23 25 26 27 26 21 17 15 14 14 13 12 13 11 9 9 8 19 19 18 16 17 13 13 12 11 10 8 8 6 4 2 3 6 4 3 3 3 6 4
34 38 40 37 33 29 23 21 22 24 25 26 27 26 22 20 17 13 9 9 12 12 5 9 13 12 14 17 15 14 11 8 7 6 8 8 5 3 2 1 1 1 3 2 2 2 5
30 34 37 37 34 29 26 19 19 21 23 24 24 24 22 23 18 18 20 17 16 15 15 13 11 17 15 12 14 15 9 10 8 10 7 4 1 1 4 3 1 1 1 2 4 2 4
27 29 33 35 34 30 27 23 16 17 19 20 21 20 20 23 16 16 22 31 12 10 14 12 15 13 10 10 9 9 11 13 11 5 4 2 1 2 1 2 2 2 3 2 5 7 5
25 26 28 32 33 32 28 25 20 15 14 16 17 17 20 20 18 17 24 26 15 18 16 12 7 7 6 7 8 5 8 8 6 6 2 4 1 3 3 5 7 6 4 3 4 4 4
23 24 25 28 30 31 30 25 23 16 13 12 13 15 16 16 16 16 25 23 16 13 11 9 11 7 6 4 5 4 2 4 8 7 4 3 1 2 6 3 3 4 5 3 4 5 2
19 21 22 23 26 29 30 27 23 21 13 10 11 10 12 14 10 17 18 16 14 12 12 11 9 8 6 6 3 3 3 4 7 7 3 5 1 4 1 1 6 9 9 7 5 3 6
18 18 19 19 21 24 27 28 26 20 18 10 9 7 9 10 9 12 13 13 11 9 8 8 7 8 7 7 3 3 4 5 5 6 5 6 2 2 2 5 10 12 11 9 10 10 17
18 17 17 18 18 21 24 25 26 24 19 15 9 6 6 6 6 7 6 7 6 6 6 6 5 6 4 6 5 3 5 5 6 5 6 7 6 8 9 8 10 20 21 17 16 13 15
18 17 15 16 17 18 20 23 24 24 22 16 12 7 6 6 5 3 4 3 2 2 2 2 2 3 3 3 3 3 6 9 8 7 8 9 11 13 16 20 21 22 22 24 32 31 26
19 18 16 15 16 17 18 19 21 22 22 20 15 11 9 6 6 7 4 3 4 4 3 2 2 3 4 5 5 7 10 10 10 12 13 18 11 21 30 19 16 24 26 25 28 33 40
22 21 17 15 14 16 17 18 18 20 20 20 18 15 9 7 6 8 9 7 6 7 7 7 8 9 9 10 11 12 14 15 17 21 22 19 18 18 14 14 26 25 4 9 13 24 23
21 22 20 18 16 16 17 17 18 18 19 18 18 16 14 10 8 7 7 11 13 12 13 13 14 15 13 16 18 18 20 18 19 19 21 24 18 12 16 18 3 5 12 18 24 12 14
24 23 23 21 19 17 16 17 19 20 18 20 18 16 16 14 12 7 7 8 11 16 17 18 17 19 18 19 21 17 20 17 9 14 14 15 15 10 6 8 26 18 14 10 12 26 22
27 24 23 23 24 22 20 19 20 20 21 18 20 19 16 15 11 11 9 10 9 11 14 16 17 20 20 19 17 8 5 11 6 7 8 9 12 15 6 5 5 5 9 17 20 19 7
31 26 24 22 23 23 23 22 21 21 20 20 19 20 18 16 12 17 15 14 10 13 13 13 12 14 16 18 18 14 11 11 7 7 7 10 13 23 23 12 16 19 15 14 7 13 26
30 26 24 24 22 21 20 21 21 23 22 22 22 20 20 18 17 10 15 16 18 15 15 15 16 11 11 10 8 8 9 10 12 15 13 10 9 11 12 11 14 6 8 16 23 30 31
23 24 24 23 21 21 22 22 22 23 24 24 23 21 21 20 18 20 18 10 10 8 13 13 16 18 12 8 8 8 13 16 21 17 19 19 17 15 16 16 23 32 35 34 35 35 37

GFSGBSN_700_spd_126.txt.gz
Wind_Speed
36 37 35 34 33 34 31 31 33 32 32 30 28 25 22 18 19 19 20 15 15 14 10 15 20 23 53 44 35 38 33 31 32 30 28 29 28 27 27 27 26 21 20 17 15 14 13
35 36 36 35 33 32 28 29 35 36 38 36 34 27 27 22 20 20 24 23 17 16 15 10 18 27 31 34 30 32 32 31 30 28 27 28 28 26 23 24 22 19 19 19 18 16 15
37 35 34 34 31 30 26 26 27 29 34 39 41 33 24 25 26 24 23 23 20 17 21 22 14 14 27 32 27 34 29 27 26 24 23 24 24 21 21 20 20 18 17 17 16 15 15
38 33 33 33 30 28 25 24 26 25 31 35 41 42 40 28 27 26 24 24 22 27 28 27 16 10 24 24 28 31 28 23 21 21 19 20 20 17 20 17 18 14 14 14 13 13 13
38 34 32 31 30 25 25 21 25 26 25 29 36 41 43 45 25 27 26 23 29 23 23 24 24 17 29 19 21 19 23 24 22 19 19 18 18 15 16 14 17 15 9 13 10 11 11
41 37 30 30 30 27 22 22 21 25 24 22 28 34 41 44 40 27 29 30 31 29 27 28 24 22 28 23 21 21 19 22 21 20 19 17 18 16 15 16 10 13 11 11 10 8 11
42 38 33 29 29 30 26 22 22 21 21 21 25 28 31 32 39 32 21 27 32 32 34 33 29 31 25 29 26 26 23 21 18 18 18 16 15 14 12 10 9 10 8 7 7 9 12
42 39 36 27 28 29 30 25 22 20 19 20 21 22 26 26 24 31 33 37 44 39 40 31 28 26 24 21 21 19 19 20 18 18 15 16 14 13 11 9 8 7 6 6 7 11 15
41 40 37 33 26 28 29 30 27 23 21 19 19 18 21 22 19 15 17 30 37 40 45 34 28 22 20 16 18 16 12 13 16 16 14 10 13 11 10 9 9 7 7 8 10 13 16
40 40 38 35 27 25 27 28 29 28 24 18 18 15 17 20 19 16 12 16 19 18 18 34 19 18 16 20 17 16 13 11 15 12 13 8 9 10 9 8 8 7 6 7 10 11 6
38 39 39 37 33 24 25 26 27 28 27 25 21 18 15 16 16 16 12 12 9 7 7 12 25 20 20 17 16 12 10 7 12 9 5 8 11 10 8 6 7 4 4 8 9 10 13
33 37 38 38 34 29 22 24 24 26 25 24 25 22 21 17 13 14 14 17 20 13 8 9 18 18 17 16 15 12 10 11 8 8 10 10 8 4 2 1 2 4 6 5 5 7 3
28 32 36 37 35 31 24 20 22 22 23 23 24 22 23 22 19 11 12 15 15 12 8 10 11 15 17 14 13 12 9 6 6 7 10 10 7 4 3 2 1 1 2 3 3 2 5
24 27 31 34 34 32 28 20 17 20 20 21 21 22 22 19 19 15 15 14 16 14 14 13 18 14 13 12 16 15 8 9 7 10 8 4 4 3 4 2 2 3 4 2 4 1 5
22 23 26 29 32 32 30 25 17 16 17 18 19 20 19 20 14 22 22 20 13 16 20 17 14 11 9 11 8 7 13 13 7 3 3 4 3 3 1 2 1 2 2 1 3 4 5
19 20 22 24 27 30 29 27 23 15 14 14 15 15 17 18 18 16 19 23 15 16 13 8 5 6 6 8 5 3 6 8 6 6 4 4 3 2 3 4 7 7 4 2 4 2 4
16 18 20 21 23 25 28 27 24 20 13 12 12 14 14 15 15 16 25 23 17 13 10 7 9 7 7 8 8 4 3 5 6 3 2 4 3 4 6 6 4 3 5 6 4 5 2
15 16 17 18 20 22 23 25 25 23 17 11 10 10 11 11 9 15 17 16 14 12 11 10 8 6 5 6 5 5 4 4 5 6 5 3 0 3 3 6 6 8 10 9 5 4 8
15 14 15 16 16 18 21 22 24 22 21 16 10 8 8 8 7 10 12 12 10 8 6 5 4 6 5 4 2 4 3 4 4 4 3 4 2 3 2 6 12 15 13 11 13 14 15
13 14 13 13 14 15 17 20 21 22 20 19 14 8 7 5 6 5 5 5 6 6 5 5 5 4 3 3 3 1 2 1 2 2 3 5 7 9 9 9 10 14 19 19 19 14 18
13 12 12 11 12 14 15 16 19 20 21 19 17 11 10 7 3 2 3 1 1 2 3 3 3 2 2 1 2 2 4 7 6 6 6 7 12 16 17 18 22 28 29 29 33 34 27
18 15 13 11 10 12 13 15 16 18 19 19 16 14 13 9 9 6 4 3 5 4 4 4 4 4 4 4 6 8 9 10 9 10 12 16 14 22 32 22 17 25 26 28 33 35 39
19 20 18 15 12 11 12 14 15 17 18 19 17 13 12 11 10 10 8 8 6 7 9 8 8 8 8 9 10 11 14 15 18 20 21 21 19 17 13 14 25 28 10 8 18 24 22
21 23 23 22 18 15 15 14 13 14 16 17 18 16 13 11 10 10 11 11 11 13 13 13 15 16 14 15 17 18 19 19 20 22 23 24 21 14 17 19 3 5 10 17 19 20 22
30 28 28 26 25 24 22 19 17 16 16 18 16 18 16 13 12 6 10 11 12 13 15 16 17 18 18 19 21 17 16 14 10 12 17 20 20 12 7 8 25 14 5 8 12 17 19
34 36 34 32 30 25 25 24 23 20 18 17 16 17 19 16 11 10 11 13 13 14 14 14 13 15 16 15 13 6 4 7 5 6 9 11 13 15 6 5 6 6 10 14 15 21 6
39 43 40 38 33 28 25 23 21 19 19 20 18 19 20 20 13 15 14 10 12 11 14 13 13 13 13 14 13 9 8 9 6 6 7 9 12 23 21 12 17 21 20 17 7 10 24
39 38 36 32 30 27 25 22 20 18 19 20 20 19 21 20 19 16 13 17 19 18 17 14 12 9 9 9 7 7 8 8 11 14 13 11 9 11 12 11 14 8 10 17 20 34 37
37 33 30 28 27 26 24 23 22 21 19 21 23 20 21 20 18 20 19 18 13 14 11 13 13 13 8 8 8 8 11 14 21 16 18 16 17 16 16 19 26 38 36 37 41 42 41